Wetterdaten: aktuell Samstag, 03.06.2023 16:57
Datum Zeit Temp. A. Feuchte A. Luftdruck Regen Wind Richtung Richtung Sonnenschein ET UV Solar Taupunkt Windchill Windben Empfang
03.06.2023 16:57 18,4 C 55 % 1017,4 hPa 0,0 l/m 17,7 km/h (3 Bft) O-SO 112 1 min 0,000 mm 1,6 UV-I 533 W/m 9,2 C 18,4 C 25,7 km/h (4 Bft) 100,00 %
03.06.2023 16:56 18,4 C 56 % 1017,4 hPa 0,0 l/m 20,9 km/h (4 Bft) O-SO 112 1 min 0,000 mm 1,6 UV-I 538 W/m 9,5 C 18,4 C 25,7 km/h (4 Bft) 91,30 %
03.06.2023 16:55 18,4 C 55 % 1017,5 hPa 0,0 l/m 19,3 km/h (3 Bft) O-SO 112 1 min 0,000 mm 1,6 UV-I 538 W/m 9,2 C 18,4 C 24,1 km/h (4 Bft) 100,00 %
03.06.2023 16:54 18,4 C 57 % 1017,4 hPa 0,0 l/m 12,9 km/h (3 Bft) O-SO 112 1 min 0,000 mm 1,6 UV-I 541 W/m 9,7 C 18,4 C 16,1 km/h (3 Bft) 100,00 %
03.06.2023 16:53 18,4 C 58 % 1017,4 hPa 0,0 l/m 14,5 km/h (3 Bft) O-SO 112 1 min 0,000 mm 1,6 UV-I 543 W/m 10,0 C 18,4 C 22,5 km/h (4 Bft) 100,00 %
03.06.2023 16:52 18,4 C 56 % 1017,3 hPa 0,0 l/m 14,5 km/h (3 Bft) O-SO 112 1 min 0,000 mm 1,7 UV-I 545 W/m 9,5 C 18,4 C 20,9 km/h (4 Bft) 100,00 %
03.06.2023 16:51 18,4 C 57 % 1017,4 hPa 0,0 l/m 17,7 km/h (3 Bft) O 90 1 min 0,000 mm 1,7 UV-I 548 W/m 9,7 C 18,4 C 24,1 km/h (4 Bft) 100,00 %
03.06.2023 16:50 18,4 C 56 % 1017,3 hPa 0,0 l/m 14,5 km/h (3 Bft) O-SO 112 1 min 0,000 mm 1,7 UV-I 554 W/m 9,5 C 18,4 C 19,3 km/h (3 Bft) 100,00 %
03.06.2023 16:49 18,4 C 56 % 1017,5 hPa 0,0 l/m 16,1 km/h (3 Bft) O-SO 112 1 min 0,000 mm 1,7 UV-I 554 W/m 9,5 C 18,4 C 27,4 km/h (4 Bft) 100,00 %
03.06.2023 16:48 18,4 C 56 % 1017,4 hPa 0,0 l/m 19,3 km/h (3 Bft) SO 135 1 min 0,000 mm 1,7 UV-I 557 W/m 9,5 C 18,4 C 24,1 km/h (4 Bft) 95,65 %
03.06.2023 16:47 18,4 C 55 % 1017,4 hPa 0,0 l/m 19,3 km/h (3 Bft) O 90 1 min 0,000 mm 1,7 UV-I 559 W/m 9,2 C 18,4 C 27,4 km/h (4 Bft) 100,00 %
03.06.2023 16:46 18,4 C 56 % 1017,4 hPa 0,0 l/m 12,9 km/h (3 Bft) O 90 1 min 0,000 mm 1,8 UV-I 563 W/m 9,5 C 18,4 C 19,3 km/h (3 Bft) 100,00 %
03.06.2023 16:45 18,4 C 56 % 1017,4 hPa 0,0 l/m 19,3 km/h (3 Bft) O-SO 112 1 min 0,000 mm 1,8 UV-I 566 W/m 9,5 C 18,4 C 25,7 km/h (4 Bft) 100,00 %
03.06.2023 16:44 18,5 C 56 % 1017,4 hPa 0,0 l/m 20,9 km/h (4 Bft) O-SO 112 1 min 0,000 mm 1,8 UV-I 570 W/m 9,6 C 18,5 C 24,1 km/h (4 Bft) 100,00 %
03.06.2023 16:43 18,4 C 56 % 1017,3 hPa 0,0 l/m 17,7 km/h (3 Bft) O-SO 112 1 min 0,000 mm 1,8 UV-I 571 W/m 9,5 C 18,4 C 22,5 km/h (4 Bft) 100,00 %
03.06.2023 16:42 18,4 C 57 % 1017,5 hPa 0,0 l/m 14,5 km/h (3 Bft) O-SO 112 1 min 0,000 mm 1,9 UV-I 575 W/m 9,7 C 18,4 C 22,5 km/h (4 Bft) 95,65 %
03.06.2023 16:41 18,4 C 56 % 1017,4 hPa 0,0 l/m 16,1 km/h (3 Bft) O-SO 112 1 min 0,000 mm 1,9 UV-I 575 W/m 9,5 C 18,4 C 19,3 km/h (3 Bft) 100,00 %
03.06.2023 16:40 18,4 C 55 % 1017,4 hPa 0,0 l/m 17,7 km/h (3 Bft) O-SO 112 1 min 0,000 mm 1,9 UV-I 577 W/m 9,2 C 18,4 C 22,5 km/h (4 Bft) 95,65 %
03.06.2023 16:39 18,4 C 55 % 1017,5 hPa 0,0 l/m 20,9 km/h (4 Bft) O-SO 112 1 min 0,000 mm 1,9 UV-I 580 W/m 9,2 C 18,4 C 30,6 km/h (5 Bft) 100,00 %
03.06.2023 16:38 18,5 C 56 % 1017,4 hPa 0,0 l/m 19,3 km/h (3 Bft) O-SO 112 1 min 0,000 mm 2,0 UV-I 582 W/m 9,6 C 18,5 C 29,0 km/h (5 Bft) 100,00 %
03.06.2023 16:37 18,5 C 56 % 1017,5 hPa 0,0 l/m 17,7 km/h (3 Bft) O-SO 112 1 min 0,000 mm 2,0 UV-I 584 W/m 9,6 C 18,5 C 25,7 km/h (4 Bft) 95,65 %
03.06.2023 16:36 18,5 C 57 % 1017,5 hPa 0,0 l/m 17,7 km/h (3 Bft) SO 135 1 min 0,000 mm 2,0 UV-I 587 W/m 9,8 C 18,5 C 25,7 km/h (4 Bft) 100,00 %
03.06.2023 16:35 18,6 C 57 % 1017,4 hPa 0,0 l/m 19,3 km/h (3 Bft) O-SO 112 1 min 0,000 mm 2,0 UV-I 589 W/m 9,9 C 18,6 C 27,4 km/h (4 Bft) 100,00 %
03.06.2023 16:34 18,5 C 57 % 1017,5 hPa 0,0 l/m 16,1 km/h (3 Bft) O-SO 112 1 min 0,000 mm 2,1 UV-I 591 W/m 9,8 C 18,5 C 20,9 km/h (4 Bft) 100,00 %
03.06.2023 16:33 18,6 C 57 % 1017,5 hPa 0,0 l/m 14,5 km/h (3 Bft) O-SO 112 1 min 0,000 mm 2,1 UV-I 592 W/m 9,9 C 18,6 C 20,9 km/h (4 Bft) 100,00 %
03.06.2023 16:32 18,5 C 56 % 1017,5 hPa 0,0 l/m 19,3 km/h (3 Bft) O-SO 112 1 min 0,000 mm 2,1 UV-I 598 W/m 9,6 C 18,5 C 24,1 km/h (4 Bft) 100,00 %
03.06.2023 16:31 18,6 C 55 % 1017,6 hPa 0,0 l/m 20,9 km/h (4 Bft) O-SO 112 1 min 0,000 mm 2,2 UV-I 599 W/m 9,4 C 18,6 C 30,6 km/h (5 Bft) 95,65 %
03.06.2023 16:30 18,6 C 56 % 1017,5 hPa 0,0 l/m 14,5 km/h (3 Bft) O-SO 112 1 min 0,000 mm 2,2 UV-I 601 W/m 9,6 C 18,6 C 19,3 km/h (3 Bft) 100,00 %
03.06.2023 16:29 18,6 C 56 % 1017,5 hPa 0,0 l/m 22,5 km/h (4 Bft) O-SO 112 1 min 0,000 mm 2,2 UV-I 605 W/m 9,6 C 18,6 C 30,6 km/h (5 Bft) 100,00 %
03.06.2023 16:28 18,6 C 56 % 1017,6 hPa 0,0 l/m 16,1 km/h (3 Bft) O-SO 112 1 min 0,000 mm 2,2 UV-I 606 W/m 9,6 C 18,6 C 24,1 km/h (4 Bft) 100,00 %
03.06.2023 16:27 18,6 C 58 % 1017,5 hPa 0,0 l/m 12,9 km/h (3 Bft) O-SO 112 1 min 0,000 mm 2,2 UV-I 608 W/m 10,2 C 18,6 C 19,3 km/h (3 Bft) 100,00 %
03.06.2023 16:26 18,5 C 58 % 1017,5 hPa 0,0 l/m 14,5 km/h (3 Bft) O-SO 112 1 min 0,000 mm 2,2 UV-I 610 W/m 10,1 C 18,5 C 22,5 km/h (4 Bft) 100,00 %
03.06.2023 16:25 18,4 C 58 % 1017,5 hPa 0,0 l/m 12,9 km/h (3 Bft) O-SO 112 1 min 0,000 mm 2,2 UV-I 613 W/m 10,0 C 18,4 C 20,9 km/h (4 Bft) 95,65 %
03.06.2023 16:24 18,4 C 56 % 1017,6 hPa 0,0 l/m 14,5 km/h (3 Bft) O-SO 112 1 min 0,000 mm 2,3 UV-I 617 W/m 9,5 C 18,4 C 17,7 km/h (3 Bft) 100,00 %
03.06.2023 16:23 18,4 C 56 % 1017,6 hPa 0,0 l/m 12,9 km/h (3 Bft) O-SO 112 1 min 0,000 mm 2,3 UV-I 617 W/m 9,5 C 18,4 C 19,3 km/h (3 Bft) 100,00 %
03.06.2023 16:22 18,4 C 57 % 1017,5 hPa 0,0 l/m 16,1 km/h (3 Bft) O-SO 112 1 min 0,000 mm 2,3 UV-I 619 W/m 9,7 C 18,4 C 24,1 km/h (4 Bft) 95,65 %
03.06.2023 16:21 18,4 C 56 % 1017,5 hPa 0,0 l/m 14,5 km/h (3 Bft) O-SO 112 1 min 0,000 mm 2,3 UV-I 622 W/m 9,5 C 18,4 C 19,3 km/h (3 Bft) 100,00 %
03.06.2023 16:20 18,4 C 56 % 1017,5 hPa 0,0 l/m 17,7 km/h (3 Bft) O-SO 112 1 min 0,000 mm 2,3 UV-I 624 W/m 9,5 C 18,4 C 27,4 km/h (4 Bft) 100,00 %
03.06.2023 16:19 18,4 C 55 % 1017,6 hPa 0,0 l/m 25,7 km/h (4 Bft) O-SO 112 1 min 0,000 mm 2,3 UV-I 628 W/m 9,2 C 18,4 C 33,8 km/h (5 Bft) 100,00 %
03.06.2023 16:18 18,5 C 56 % 1017,5 hPa 0,0 l/m 16,1 km/h (3 Bft) O-SO 112 1 min 0,000 mm 2,3 UV-I 628 W/m 9,6 C 18,5 C 27,4 km/h (4 Bft) 100,00 %
03.06.2023 16:17 18,5 C 56 % 1017,5 hPa 0,0 l/m 22,5 km/h (4 Bft) O-SO 112 1 min 0,000 mm 2,4 UV-I 629 W/m 9,6 C 18,5 C 29,0 km/h (5 Bft) 100,00 %
03.06.2023 16:16 18,5 C 57 % 1017,5 hPa 0,0 l/m 17,7 km/h (3 Bft) O-SO 112 1 min 0,000 mm 2,4 UV-I 629 W/m 9,8 C 18,5 C 29,0 km/h (5 Bft) 100,00 %
03.06.2023 16:15 18,4 C 55 % 1017,5 hPa 0,0 l/m 17,7 km/h (3 Bft) O-SO 112 1 min 0,000 mm 2,4 UV-I 635 W/m 9,2 C 18,4 C 20,9 km/h (4 Bft) 100,00 %
03.06.2023 16:14 18,4 C 58 % 1017,6 hPa 0,0 l/m 14,5 km/h (3 Bft) SO 135 1 min 0,000 mm 2,4 UV-I 638 W/m 10,0 C 18,4 C 19,3 km/h (3 Bft) 100,00 %
03.06.2023 16:13 18,4 C 56 % 1017,6 hPa 0,0 l/m 17,7 km/h (3 Bft) O-SO 112 1 min 0,000 mm 2,4 UV-I 640 W/m 9,5 C 18,4 C 24,1 km/h (4 Bft) 100,00 %
03.06.2023 16:12 18,3 C 57 % 1017,6 hPa 0,0 l/m 12,9 km/h (3 Bft) O-SO 112 1 min 0,000 mm 2,5 UV-I 643 W/m 9,6 C 18,3 C 16,1 km/h (3 Bft) 95,65 %
03.06.2023 16:11 18,3 C 55 % 1017,7 hPa 0,0 l/m 17,7 km/h (3 Bft) O-SO 112 1 min 0,000 mm 2,5 UV-I 643 W/m 9,1 C 18,3 C 20,9 km/h (4 Bft) 100,00 %
03.06.2023 16:10 18,4 C 55 % 1017,6 hPa 0,0 l/m 24,1 km/h (4 Bft) O-SO 112 1 min 0,000 mm 2,5 UV-I 643 W/m 9,2 C 18,4 C 35,4 km/h (5 Bft) 100,00 %
03.06.2023 16:09 18,4 C 55 % 1017,6 hPa 0,0 l/m 22,5 km/h (4 Bft) O-SO 112 1 min 0,000 mm 2,5 UV-I 649 W/m 9,2 C 18,4 C 33,8 km/h (5 Bft) 100,00 %
03.06.2023 16:08 18,5 C 56 % 1017,7 hPa 0,0 l/m 16,1 km/h (3 Bft) O-SO 112 1 min 0,000 mm 2,5 UV-I 650 W/m 9,6 C 18,5 C 20,9 km/h (4 Bft) 100,00 %
03.06.2023 16:07 18,4 C 56 % 1017,6 hPa 0,0 l/m 17,7 km/h (3 Bft) O-SO 112 1 min 0,000 mm 2,5 UV-I 654 W/m 9,5 C 18,4 C 29,0 km/h (5 Bft) 100,00 %
03.06.2023 16:06 18,4 C 57 % 1017,6 hPa 0,0 l/m 16,1 km/h (3 Bft) O-SO 112 1 min 0,000 mm 2,6 UV-I 656 W/m 9,7 C 18,4 C 22,5 km/h (4 Bft) 100,00 %
03.06.2023 16:05 18,4 C 55 % 1017,7 hPa 0,0 l/m 24,1 km/h (4 Bft) O-SO 112 1 min 0,000 mm 2,6 UV-I 657 W/m 9,2 C 18,4 C 30,6 km/h (5 Bft) 100,00 %
03.06.2023 16:04 18,4 C 57 % 1017,7 hPa 0,0 l/m 19,3 km/h (3 Bft) O-SO 112 1 min 0,000 mm 2,6 UV-I 659 W/m 9,7 C 18,4 C 32,2 km/h (5 Bft) 100,00 %
03.06.2023 16:03 18,4 C 57 % 1017,7 hPa 0,0 l/m 16,1 km/h (3 Bft) O-SO 112 1 min 0,000 mm 2,6 UV-I 663 W/m 9,7 C 18,4 C 27,4 km/h (4 Bft) 100,00 %
03.06.2023 16:02 18,4 C 56 % 1017,7 hPa 0,0 l/m 20,9 km/h (4 Bft) O-SO 112 1 min 0,000 mm 2,6 UV-I 663 W/m 9,5 C 18,4 C 27,4 km/h (4 Bft) 100,00 %
03.06.2023 16:01 18,4 C 56 % 1017,8 hPa 0,0 l/m 12,9 km/h (3 Bft) O-SO 112 1 min 0,000 mm 2,6 UV-I 664 W/m 9,5 C 18,4 C 19,3 km/h (3 Bft) 100,00 %
03.06.2023 16:00 18,4 C 55 % 1017,6 hPa 0,0 l/m 17,7 km/h (3 Bft) SO 135 1 min 0,508 mm 2,6 UV-I 666 W/m 9,2 C 18,4 C 27,4 km/h (4 Bft) 100,00 %
03.06.2023 15:59 18,4 C 55 % 1017,8 hPa 0,0 l/m 20,9 km/h (4 Bft) O-SO 112 1 min 0,000 mm 2,7 UV-I 668 W/m 9,2 C 18,4 C 29,0 km/h (5 Bft) 100,00 %
03.06.2023 15:58 18,5 C 54 % 1017,8 hPa 0,0 l/m 19,3 km/h (3 Bft) O-SO 112 1 min 0,000 mm 2,7 UV-I 670 W/m 9,0 C 18,5 C 27,4 km/h (4 Bft) 95,65 %
03.06.2023 15:57 18,6 C 56 % 1017,8 hPa 0,0 l/m 20,9 km/h (4 Bft) O-SO 112 1 min 0,000 mm 2,7 UV-I 675 W/m 9,6 C 18,6 C 29,0 km/h (5 Bft) 100,00 %
03.06.2023 15:56 18,5 C 57 % 1017,7 hPa 0,0 l/m 17,7 km/h (3 Bft) O 90 1 min 0,000 mm 2,7 UV-I 675 W/m 9,8 C 18,5 C 30,6 km/h (5 Bft) 100,00 %
03.06.2023 15:55 18,6 C 57 % 1017,7 hPa 0,0 l/m 17,7 km/h (3 Bft) O 90 1 min 0,000 mm 2,8 UV-I 679 W/m 9,9 C 18,6 C 27,4 km/h (4 Bft) 95,65 %
03.06.2023 15:54 18,5 C 56 % 1017,8 hPa 0,0 l/m 16,1 km/h (3 Bft) O-SO 112 1 min 0,000 mm 2,8 UV-I 682 W/m 9,6 C 18,5 C 22,5 km/h (4 Bft) 100,00 %
03.06.2023 15:53 18,4 C 56 % 1017,8 hPa 0,0 l/m 17,7 km/h (3 Bft) O-SO 112 1 min 0,000 mm 2,8 UV-I 682 W/m 9,5 C 18,4 C 24,1 km/h (4 Bft) 100,00 %
03.06.2023 15:52 18,4 C 59 % 1017,7 hPa 0,0 l/m 11,3 km/h (2 Bft) O-SO 112 1 min 0,000 mm 2,8 UV-I 686 W/m 10,2 C 18,4 C 16,1 km/h (3 Bft) 100,00 %
03.06.2023 15:51 18,3 C 57 % 1017,7 hPa 0,0 l/m 14,5 km/h (3 Bft) O-SO 112 1 min 0,000 mm 2,8 UV-I 689 W/m 9,6 C 18,3 C 19,3 km/h (3 Bft) 95,65 %
03.06.2023 15:50 18,3 C 58 % 1017,7 hPa 0,0 l/m 12,9 km/h (3 Bft) O-SO 112 1 min 0,000 mm 2,8 UV-I 691 W/m 9,9 C 18,3 C 22,5 km/h (4 Bft) 100,00 %
03.06.2023 15:49 18,3 C 56 % 1017,8 hPa 0,0 l/m 16,1 km/h (3 Bft) SO 135 1 min 0,000 mm 2,9 UV-I 691 W/m 9,4 C 18,3 C 22,5 km/h (4 Bft) 100,00 %
03.06.2023 15:48 18,3 C 56 % 1017,8 hPa 0,0 l/m 17,7 km/h (3 Bft) O-SO 112 1 min 0,000 mm 2,9 UV-I 693 W/m 9,4 C 18,3 C 25,7 km/h (4 Bft) 100,00 %
03.06.2023 15:47 18,2 C 57 % 1017,7 hPa 0,0 l/m 17,7 km/h (3 Bft) O-SO 112 1 min 0,000 mm 2,9 UV-I 696 W/m 9,5 C 18,2 C 22,5 km/h (4 Bft) 100,00 %
03.06.2023 15:46 18,2 C 57 % 1017,7 hPa 0,0 l/m 14,5 km/h (3 Bft) O-SO 112 1 min 0,000 mm 2,9 UV-I 696 W/m 9,5 C 18,2 C 20,9 km/h (4 Bft) 91,30 %
03.06.2023 15:45 18,2 C 56 % 1017,6 hPa 0,0 l/m 24,1 km/h (4 Bft) O-SO 112 1 min 0,000 mm 2,9 UV-I 700 W/m 9,3 C 18,2 C 33,8 km/h (5 Bft) 100,00 %
03.06.2023 15:44 18,3 C 56 % 1017,6 hPa 0,0 l/m 19,3 km/h (3 Bft) O-SO 112 1 min 0,000 mm 2,9 UV-I 703 W/m 9,4 C 18,3 C 32,2 km/h (5 Bft) 100,00 %
03.06.2023 15:43 18,3 C 56 % 1017,7 hPa 0,0 l/m 20,9 km/h (4 Bft) SO 135 1 min 0,000 mm 3,0 UV-I 703 W/m 9,4 C 18,3 C 30,6 km/h (5 Bft) 95,65 %
03.06.2023 15:42 18,3 C 57 % 1017,6 hPa 0,0 l/m 17,7 km/h (3 Bft) O-SO 112 1 min 0,000 mm 3,0 UV-I 705 W/m 9,6 C 18,3 C 25,7 km/h (4 Bft) 100,00 %
03.06.2023 15:41 18,3 C 56 % 1017,7 hPa 0,0 l/m 17,7 km/h (3 Bft) O-SO 112 1 min 0,000 mm 3,0 UV-I 705 W/m 9,4 C 18,3 C 22,5 km/h (4 Bft) 95,65 %
03.06.2023 15:40 18,2 C 57 % 1017,7 hPa 0,0 l/m 16,1 km/h (3 Bft) O-SO 112 1 min 0,000 mm 3,0 UV-I 707 W/m 9,5 C 18,2 C 22,5 km/h (4 Bft) 100,00 %
03.06.2023 15:39 18,3 C 56 % 1017,7 hPa 0,0 l/m 20,9 km/h (4 Bft) O-SO 112 1 min 0,000 mm 3,0 UV-I 708 W/m 9,4 C 18,3 C 29,0 km/h (5 Bft) 100,00 %
03.06.2023 15:38 18,3 C 56 % 1017,7 hPa 0,0 l/m 22,5 km/h (4 Bft) SO 135 1 min 0,000 mm 3,0 UV-I 712 W/m 9,4 C 18,3 C 29,0 km/h (5 Bft) 100,00 %
03.06.2023 15:37 18,3 C 56 % 1017,7 hPa 0,0 l/m 24,1 km/h (4 Bft) O-SO 112 1 min 0,000 mm 3,1 UV-I 714 W/m 9,4 C 18,3 C 32,2 km/h (5 Bft) 100,00 %
03.06.2023 15:36 18,3 C 57 % 1017,8 hPa 0,0 l/m 17,7 km/h (3 Bft) O-SO 112 1 min 0,000 mm 3,1 UV-I 715 W/m 9,6 C 18,3 C 25,7 km/h (4 Bft) 95,65 %
03.06.2023 15:35 18,3 C 57 % 1017,7 hPa 0,0 l/m 20,9 km/h (4 Bft) O-SO 112 1 min 0,000 mm 3,1 UV-I 715 W/m 9,6 C 18,3 C 32,2 km/h (5 Bft) 100,00 %
03.06.2023 15:34 18,3 C 57 % 1017,8 hPa 0,0 l/m 16,1 km/h (3 Bft) SO 135 1 min 0,000 mm 3,1 UV-I 719 W/m 9,6 C 18,3 C 20,9 km/h (4 Bft) 95,65 %
03.06.2023 15:33 18,3 C 56 % 1017,7 hPa 0,0 l/m 19,3 km/h (3 Bft) SO 135 1 min 0,000 mm 3,1 UV-I 721 W/m 9,4 C 18,3 C 29,0 km/h (5 Bft) 100,00 %
03.06.2023 15:32 18,3 C 56 % 1017,7 hPa 0,0 l/m 22,5 km/h (4 Bft) SO 135 1 min 0,000 mm 3,1 UV-I 722 W/m 9,4 C 18,3 C 32,2 km/h (5 Bft) 100,00 %
03.06.2023 15:31 18,2 C 59 % 1017,7 hPa 0,0 l/m 11,3 km/h (2 Bft) O-SO 112 1 min 0,000 mm 3,1 UV-I 726 W/m 10,1 C 18,2 C 16,1 km/h (3 Bft) 100,00 %
03.06.2023 15:30 18,2 C 58 % 1017,7 hPa 0,0 l/m 16,1 km/h (3 Bft) O-SO 112 1 min 0,000 mm 3,1 UV-I 726 W/m 9,8 C 18,2 C 25,7 km/h (4 Bft) 100,00 %
03.06.2023 15:29 18,2 C 57 % 1017,7 hPa 0,0 l/m 16,1 km/h (3 Bft) SO 135 1 min 0,000 mm 3,2 UV-I 726 W/m 9,5 C 18,2 C 24,1 km/h (4 Bft) 100,00 %
03.06.2023 15:28 18,1 C 57 % 1017,7 hPa 0,0 l/m 22,5 km/h (4 Bft) O-SO 112 1 min 0,000 mm 3,2 UV-I 729 W/m 9,4 C 18,1 C 32,2 km/h (5 Bft) 100,00 %
03.06.2023 15:27 18,1 C 56 % 1017,8 hPa 0,0 l/m 25,7 km/h (4 Bft) O-SO 112 1 min 0,000 mm 3,2 UV-I 731 W/m 9,2 C 18,1 C 33,8 km/h (5 Bft) 100,00 %
03.06.2023 15:26 18,2 C 57 % 1017,7 hPa 0,0 l/m 20,9 km/h (4 Bft) O-SO 112 1 min 0,000 mm 3,2 UV-I 733 W/m 9,5 C 18,2 C 29,0 km/h (5 Bft) 100,00 %
03.06.2023 15:25 18,2 C 56 % 1017,8 hPa 0,0 l/m 24,1 km/h (4 Bft) SO 135 1 min 0,000 mm 3,2 UV-I 735 W/m 9,3 C 18,2 C 27,4 km/h (4 Bft) 100,00 %
03.06.2023 15:24 18,1 C 57 % 1017,8 hPa 0,0 l/m 17,7 km/h (3 Bft) O-SO 112 1 min 0,000 mm 3,2 UV-I 737 W/m 9,4 C 18,1 C 22,5 km/h (4 Bft) 100,00 %
03.06.2023 15:23 18,1 C 57 % 1017,9 hPa 0,0 l/m 19,3 km/h (3 Bft) O-SO 112 1 min 0,000 mm 3,3 UV-I 737 W/m 9,4 C 18,1 C 27,4 km/h (4 Bft) 100,00 %
03.06.2023 15:22 18,2 C 56 % 1017,8 hPa 0,0 l/m 22,5 km/h (4 Bft) O-SO 112 1 min 0,000 mm 3,3 UV-I 740 W/m 9,3 C 18,2 C 32,2 km/h (5 Bft) 100,00 %
03.06.2023 15:21 18,1 C 57 % 1017,8 hPa 0,0 l/m 19,3 km/h (3 Bft) O-SO 112 1 min 0,000 mm 3,3 UV-I 740 W/m 9,4 C 18,1 C 33,8 km/h (5 Bft) 100,00 %
03.06.2023 15:20 18,1 C 58 % 1018,0 hPa 0,0 l/m 14,5 km/h (3 Bft) SO 135 1 min 0,000 mm 3,3 UV-I 742 W/m 9,7 C 18,1 C 17,7 km/h (3 Bft) 100,00 %
03.06.2023 15:19 18,1 C 58 % 1017,9 hPa 0,0 l/m 19,3 km/h (3 Bft) O-SO 112 1 min 0,000 mm 3,3 UV-I 744 W/m 9,7 C 18,1 C 27,4 km/h (4 Bft) 95,65 %
03.06.2023 15:18 18,1 C 57 % 1018,0 hPa 0,0 l/m 17,7 km/h (3 Bft) O-SO 112 1 min 0,000 mm 3,3 UV-I 744 W/m 9,4 C 18,1 C 25,7 km/h (4 Bft) 100,00 %
03.06.2023 15:17 18,1 C 58 % 1018,0 hPa 0,0 l/m 24,1 km/h (4 Bft) O-SO 112 1 min 0,000 mm 3,3 UV-I 745 W/m 9,7 C 18,1 C 30,6 km/h (5 Bft) 100,00 %
03.06.2023 15:16 18,1 C 58 % 1017,9 hPa 0,0 l/m 17,7 km/h (3 Bft) SO 135 1 min 0,000 mm 3,4 UV-I 747 W/m 9,7 C 18,1 C 24,1 km/h (4 Bft) 100,00 %
03.06.2023 15:15 18,0 C 58 % 1018,0 hPa 0,0 l/m 19,3 km/h (3 Bft) O-SO 112 1 min 0,000 mm 3,4 UV-I 751 W/m 9,6 C 18,0 C 35,4 km/h (5 Bft) 100,00 %
03.06.2023 15:14 18,0 C 57 % 1018,0 hPa 0,0 l/m 22,5 km/h (4 Bft) SO 135 1 min 0,000 mm 3,4 UV-I 754 W/m 9,4 C 18,0 C 29,0 km/h (5 Bft) 100,00 %
03.06.2023 15:13 18,0 C 57 % 1018,0 hPa 0,0 l/m 20,9 km/h (4 Bft) SO 135 1 min 0,000 mm 3,4 UV-I 756 W/m 9,4 C 18,0 C 27,4 km/h (4 Bft) 100,00 %
03.06.2023 15:12 18,0 C 57 % 1018,0 hPa 0,0 l/m 19,3 km/h (3 Bft) O-SO 112 1 min 0,000 mm 3,4 UV-I 756 W/m 9,4 C 18,0 C 25,7 km/h (4 Bft) 100,00 %
03.06.2023 15:11 18,0 C 57 % 1018,0 hPa 0,0 l/m 17,7 km/h (3 Bft) O-SO 112 1 min 0,000 mm 3,4 UV-I 758 W/m 9,4 C 18,0 C 29,0 km/h (5 Bft) 100,00 %
03.06.2023 15:10 18,0 C 57 % 1018,0 hPa 0,0 l/m 20,9 km/h (4 Bft) O-SO 112 1 min 0,000 mm 3,5 UV-I 758 W/m 9,4 C 18,0 C 27,4 km/h (4 Bft) 100,00 %
03.06.2023 15:09 18,0 C 56 % 1018,0 hPa 0,0 l/m 22,5 km/h (4 Bft) O-SO 112 1 min 0,000 mm 3,5 UV-I 759 W/m 9,1 C 18,0 C 33,8 km/h (5 Bft) 100,00 %
03.06.2023 15:08 18,0 C 58 % 1017,9 hPa 0,0 l/m 20,9 km/h (4 Bft) O-SO 112 1 min 0,000 mm 3,5 UV-I 761 W/m 9,6 C 18,0 C 32,2 km/h (5 Bft) 100,00 %
03.06.2023 15:07 18,1 C 59 % 1018,1 hPa 0,0 l/m 19,3 km/h (3 Bft) SO 135 1 min 0,000 mm 3,5 UV-I 765 W/m 10,0 C 18,1 C 25,7 km/h (4 Bft) 95,65 %
03.06.2023 15:06 17,9 C 58 % 1018,1 hPa 0,0 l/m 17,7 km/h (3 Bft) O-SO 112 1 min 0,000 mm 3,5 UV-I 765 W/m 9,5 C 17,9 C 22,5 km/h (4 Bft) 100,00 %
03.06.2023 15:05 17,9 C 58 % 1017,9 hPa 0,0 l/m 19,3 km/h (3 Bft) O-SO 112 1 min 0,000 mm 3,5 UV-I 766 W/m 9,5 C 17,9 C 27,4 km/h (4 Bft) 100,00 %
03.06.2023 15:04 17,9 C 59 % 1018,0 hPa 0,0 l/m 14,5 km/h (3 Bft) O-SO 112 1 min 0,000 mm 3,6 UV-I 768 W/m 9,8 C 17,9 C 24,1 km/h (4 Bft) 100,00 %
03.06.2023 15:03 17,9 C 58 % 1018,0 hPa 0,0 l/m 14,5 km/h (3 Bft) O 90 1 min 0,000 mm 3,6 UV-I 770 W/m 9,5 C 17,9 C 24,1 km/h (4 Bft) 100,00 %
03.06.2023 15:02 17,9 C 56 % 1018,1 hPa 0,0 l/m 20,9 km/h (4 Bft) O-SO 112 1 min 0,000 mm 3,6 UV-I 772 W/m 9,0 C 17,9 C 29,0 km/h (5 Bft) 100,00 %
03.06.2023 15:01 18,1 C 56 % 1018,0 hPa 0,0 l/m 25,7 km/h (4 Bft) SO 135 1 min 0,000 mm 3,6 UV-I 772 W/m 9,2 C 18,1 C 40,2 km/h (6 Bft) 100,00 %
03.06.2023 15:00 18,1 C 57 % 1018,0 hPa 0,0 l/m 20,9 km/h (4 Bft) O-SO 112 1 min 0,533 mm 3,6 UV-I 772 W/m 9,4 C 18,1 C 27,4 km/h (4 Bft) 100,00 %
03.06.2023 14:59 18,1 C 56 % 1018,1 hPa 0,0 l/m 22,5 km/h (4 Bft) O-SO 112 1 min 0,000 mm 3,6 UV-I 775 W/m 9,2 C 18,1 C 37,0 km/h (5 Bft) 100,00 %
03.06.2023 14:58 18,1 C 57 % 1018,2 hPa 0,0 l/m 19,3 km/h (3 Bft) O-SO 112 1 min 0,000 mm 3,7 UV-I 779 W/m 9,4 C 18,1 C 29,0 km/h (5 Bft) 100,00 %
03.06.2023 14:57 18,1 C 58 % 1018,2 hPa 0,0 l/m 19,3 km/h (3 Bft) O-SO 112 1 min 0,000 mm 3,7 UV-I 780 W/m 9,7 C 18,1 C 27,4 km/h (4 Bft) 100,00 %
03.06.2023 14:56 18,1 C 59 % 1018,2 hPa 0,0 l/m 9,7 km/h (2 Bft) O-SO 112 1 min 0,000 mm 3,7 UV-I 779 W/m 10,0 C 18,1 C 16,1 km/h (3 Bft) 100,00 %
03.06.2023 14:55 17,9 C 58 % 1018,1 hPa 0,0 l/m 16,1 km/h (3 Bft) O 90 1 min 0,000 mm 3,7 UV-I 780 W/m 9,5 C 17,9 C 27,4 km/h (4 Bft) 100,00 %
03.06.2023 14:54 17,9 C 59 % 1018,0 hPa 0,0 l/m 20,9 km/h (4 Bft) O-SO 112 1 min 0,000 mm 3,7 UV-I 782 W/m 9,8 C 17,9 C 29,0 km/h (5 Bft) 100,00 %
03.06.2023 14:53 17,9 C 59 % 1018,0 hPa 0,0 l/m 17,7 km/h (3 Bft) O-SO 112 1 min 0,000 mm 3,7 UV-I 784 W/m 9,8 C 17,9 C 29,0 km/h (5 Bft) 91,30 %
03.06.2023 14:52 17,9 C 58 % 1018,1 hPa 0,0 l/m 19,3 km/h (3 Bft) O-SO 112 1 min 0,000 mm 3,7 UV-I 784 W/m 9,5 C 17,9 C 29,0 km/h (5 Bft) 100,00 %
03.06.2023 14:51 17,9 C 57 % 1018,1 hPa 0,0 l/m 19,3 km/h (3 Bft) O-SO 112 1 min 0,000 mm 3,7 UV-I 786 W/m 9,3 C 17,9 C 30,6 km/h (5 Bft) 100,00 %
03.06.2023 14:50 17,9 C 57 % 1018,1 hPa 0,0 l/m 17,7 km/h (3 Bft) SO 135 1 min 0,000 mm 3,8 UV-I 789 W/m 9,3 C 17,9 C 29,0 km/h (5 Bft) 95,65 %
03.06.2023 14:49 17,9 C 57 % 1018,2 hPa 0,0 l/m 24,1 km/h (4 Bft) O-SO 112 1 min 0,000 mm 3,8 UV-I 789 W/m 9,3 C 17,9 C 35,4 km/h (5 Bft) 100,00 %
03.06.2023 14:48 17,9 C 58 % 1018,2 hPa 0,0 l/m 20,9 km/h (4 Bft) O-SO 112 1 min 0,000 mm 3,8 UV-I 791 W/m 9,5 C 17,9 C 27,4 km/h (4 Bft) 95,65 %
03.06.2023 14:47 18,0 C 59 % 1018,2 hPa 0,0 l/m 19,3 km/h (3 Bft) O-SO 112 1 min 0,000 mm 3,8 UV-I 791 W/m 9,9 C 18,0 C 25,7 km/h (4 Bft) 100,00 %
03.06.2023 14:46 18,0 C 58 % 1018,2 hPa 0,0 l/m 14,5 km/h (3 Bft) O-SO 112 1 min 0,000 mm 3,8 UV-I 793 W/m 9,6 C 18,0 C 19,3 km/h (3 Bft) 100,00 %
03.06.2023 14:45 18,0 C 57 % 1018,3 hPa 0,0 l/m 20,9 km/h (4 Bft) O-SO 112 1 min 0,000 mm 3,8 UV-I 791 W/m 9,4 C 18,0 C 29,0 km/h (5 Bft) 100,00 %
03.06.2023 14:44 18,1 C 57 % 1018,3 hPa 0,0 l/m 17,7 km/h (3 Bft) O-SO 112 1 min 0,000 mm 3,8 UV-I 793 W/m 9,4 C 18,1 C 25,7 km/h (4 Bft) 100,00 %
03.06.2023 14:43 18,1 C 58 % 1018,2 hPa 0,0 l/m 19,3 km/h (3 Bft) SO 135 1 min 0,000 mm 3,8 UV-I 795 W/m 9,7 C 18,1 C 29,0 km/h (5 Bft) 95,65 %
03.06.2023 14:42 18,0 C 57 % 1018,2 hPa 0,0 l/m 19,3 km/h (3 Bft) O-SO 112 1 min 0,000 mm 3,9 UV-I 795 W/m 9,4 C 18,0 C 24,1 km/h (4 Bft) 100,00 %
03.06.2023 14:41 18,0 C 59 % 1018,2 hPa 0,0 l/m 20,9 km/h (4 Bft) O 90 1 min 0,000 mm 3,9 UV-I 796 W/m 9,9 C 18,0 C 29,0 km/h (5 Bft) 100,00 %
03.06.2023 14:40 17,9 C 60 % 1018,1 hPa 0,0 l/m 16,1 km/h (3 Bft) O-SO 112 1 min 0,000 mm 3,9 UV-I 798 W/m 10,0 C 17,9 C 24,1 km/h (4 Bft) 100,00 %
03.06.2023 14:39 17,9 C 59 % 1018,2 hPa 0,0 l/m 16,1 km/h (3 Bft) SO 135 1 min 0,000 mm 3,9 UV-I 800 W/m 9,8 C 17,9 C 19,3 km/h (3 Bft) 100,00 %
03.06.2023 14:38 17,9 C 58 % 1018,3 hPa 0,0 l/m 14,5 km/h (3 Bft) O-SO 112 1 min 0,000 mm 3,9 UV-I 803 W/m 9,5 C 17,9 C 14,5 km/h (3 Bft) 8,70 %
03.06.2023 14:37 17,9 C 58 % 1018,2 hPa 0,0 l/m 20,9 km/h (4 Bft) O 90 1 min 0,000 mm 3,9 UV-I 803 W/m 9,5 C 17,9 C 22,5 km/h (4 Bft) 52,17 %
03.06.2023 14:36 17,9 C 58 % 1018,2 hPa 0,0 l/m 22,5 km/h (4 Bft) O-SO 112 1 min 0,000 mm 4,0 UV-I 803 W/m 9,5 C 17,9 C 33,8 km/h (5 Bft) 100,00 %
03.06.2023 14:35 17,9 C 59 % 1018,2 hPa 0,0 l/m 17,7 km/h (3 Bft) O-SO 112 1 min 0,000 mm 4,0 UV-I 805 W/m 9,8 C 17,9 C 25,7 km/h (4 Bft) 100,00 %
03.06.2023 14:34 17,9 C 60 % 1018,2 hPa 0,0 l/m 16,1 km/h (3 Bft) O-SO 112 1 min 0,000 mm 4,0 UV-I 805 W/m 10,0 C 17,9 C 19,3 km/h (3 Bft) 95,65 %
03.06.2023 14:33 17,8 C 60 % 1018,2 hPa 0,0 l/m 14,5 km/h (3 Bft) O-SO 112 1 min 0,000 mm 4,0 UV-I 805 W/m 9,9 C 17,8 C 24,1 km/h (4 Bft) 100,00 %
03.06.2023 14:32 17,8 C 59 % 1018,2 hPa 0,0 l/m 17,7 km/h (3 Bft) O-SO 112 1 min 0,000 mm 4,0 UV-I 807 W/m 9,7 C 17,8 C 22,5 km/h (4 Bft) 100,00 %
03.06.2023 14:31 17,7 C 59 % 1018,4 hPa 0,0 l/m 17,7 km/h (3 Bft) O-SO 112 1 min 0,000 mm 4,0 UV-I 809 W/m 9,6 C 17,7 C 22,5 km/h (4 Bft) 95,65 %
03.06.2023 14:30 17,7 C 59 % 1018,3 hPa 0,0 l/m 20,9 km/h (4 Bft) O-SO 112 1 min 0,000 mm 4,0 UV-I 807 W/m 9,6 C 17,7 C 29,0 km/h (5 Bft) 100,00 %
03.06.2023 14:29 17,7 C 59 % 1018,4 hPa 0,0 l/m 17,7 km/h (3 Bft) O-SO 112 1 min 0,000 mm 4,0 UV-I 807 W/m 9,6 C 17,7 C 25,7 km/h (4 Bft) 100,00 %
03.06.2023 14:28 17,7 C 59 % 1018,4 hPa 0,0 l/m 17,7 km/h (3 Bft) O-SO 112 1 min 0,000 mm 4,0 UV-I 809 W/m 9,6 C 17,7 C 30,6 km/h (5 Bft) 100,00 %
03.06.2023 14:27 17,7 C 59 % 1018,3 hPa 0,0 l/m 17,7 km/h (3 Bft) O-SO 112 1 min 0,000 mm 4,0 UV-I 812 W/m 9,6 C 17,7 C 25,7 km/h (4 Bft) 95,65 %
03.06.2023 14:26 17,6 C 60 % 1018,3 hPa 0,0 l/m 14,5 km/h (3 Bft) O-SO 112 1 min 0,000 mm 4,0 UV-I 812 W/m 9,7 C 17,6 C 22,5 km/h (4 Bft) 100,00 %
03.06.2023 14:25 17,6 C 60 % 1018,2 hPa 0,0 l/m 19,3 km/h (3 Bft) O-SO 112 1 min 0,000 mm 4,0 UV-I 812 W/m 9,7 C 17,6 C 29,0 km/h (5 Bft) 100,00 %
03.06.2023 14:24 17,6 C 60 % 1018,3 hPa 0,0 l/m 16,1 km/h (3 Bft) SO 135 1 min 0,000 mm 4,0 UV-I 812 W/m 9,7 C 17,6 C 27,4 km/h (4 Bft) 100,00 %
03.06.2023 14:23 17,6 C 59 % 1018,4 hPa 0,0 l/m 25,7 km/h (4 Bft) O-SO 112 1 min 0,000 mm 4,0 UV-I 814 W/m 9,5 C 17,6 C 38,6 km/h (5 Bft) 100,00 %
03.06.2023 14:22 17,5 C 61 % 1018,3 hPa 0,0 l/m 19,3 km/h (3 Bft) O-SO 112 1 min 0,000 mm 4,0 UV-I 814 W/m 9,9 C 17,5 C 30,6 km/h (5 Bft) 100,00 %
03.06.2023 14:21 17,5 C 59 % 1018,2 hPa 0,0 l/m 17,7 km/h (3 Bft) O-SO 112 1 min 0,000 mm 4,0 UV-I 812 W/m 9,4 C 17,5 C 22,5 km/h (4 Bft) 100,00 %
03.06.2023 14:20 17,5 C 59 % 1018,3 hPa 0,0 l/m 20,9 km/h (4 Bft) O-SO 112 1 min 0,000 mm 4,0 UV-I 814 W/m 9,4 C 17,5 C 30,6 km/h (5 Bft) 100,00 %
03.06.2023 14:19 17,5 C 58 % 1018,3 hPa 0,0 l/m 20,9 km/h (4 Bft) O 90 1 min 0,000 mm 4,1 UV-I 814 W/m 9,1 C 17,5 C 29,0 km/h (5 Bft) 100,00 %
03.06.2023 14:18 17,6 C 59 % 1018,4 hPa 0,0 l/m 24,1 km/h (4 Bft) O-SO 112 1 min 0,000 mm 4,1 UV-I 819 W/m 9,5 C 17,6 C 38,6 km/h (5 Bft) 100,00 %
03.06.2023 14:17 17,6 C 59 % 1018,4 hPa 0,0 l/m 24,1 km/h (4 Bft) SO 135 1 min 0,000 mm 4,1 UV-I 819 W/m 9,5 C 17,6 C 33,8 km/h (5 Bft) 95,65 %
03.06.2023 14:16 17,6 C 59 % 1018,3 hPa 0,0 l/m 19,3 km/h (3 Bft) SO 135 1 min 0,000 mm 4,1 UV-I 819 W/m 9,5 C 17,6 C 29,0 km/h (5 Bft) 100,00 %
03.06.2023 14:15 17,6 C 59 % 1018,3 hPa 0,0 l/m 20,9 km/h (4 Bft) SO 135 1 min 0,000 mm 4,1 UV-I 819 W/m 9,5 C 17,6 C 29,0 km/h (5 Bft) 95,65 %
03.06.2023 14:14 17,7 C 59 % 1018,4 hPa 0,0 l/m 22,5 km/h (4 Bft) O-SO 112 1 min 0,000 mm 4,1 UV-I 819 W/m 9,6 C 17,7 C 37,0 km/h (5 Bft) 100,00 %
03.06.2023 14:13 17,7 C 58 % 1018,4 hPa 0,0 l/m 20,9 km/h (4 Bft) O-SO 112 1 min 0,000 mm 4,1 UV-I 821 W/m 9,3 C 17,7 C 30,6 km/h (5 Bft) 100,00 %
03.06.2023 14:12 17,7 C 58 % 1018,3 hPa 0,0 l/m 27,4 km/h (4 Bft) O-SO 112 1 min 0,000 mm 4,1 UV-I 821 W/m 9,3 C 17,7 C 33,8 km/h (5 Bft) 100,00 %
03.06.2023 14:11 17,8 C 60 % 1018,4 hPa 0,0 l/m 24,1 km/h (4 Bft) O-SO 112 1 min 0,000 mm 4,2 UV-I 823 W/m 9,9 C 17,8 C 35,4 km/h (5 Bft) 100,00 %
03.06.2023 14:10 17,8 C 60 % 1018,3 hPa 0,0 l/m 20,9 km/h (4 Bft) O 90 1 min 0,000 mm 4,2 UV-I 821 W/m 9,9 C 17,8 C 27,4 km/h (4 Bft) 100,00 %
03.06.2023 14:09 17,7 C 60 % 1018,3 hPa 0,0 l/m 19,3 km/h (3 Bft) O-SO 112 1 min 0,000 mm 4,2 UV-I 823 W/m 9,8 C 17,7 C 32,2 km/h (5 Bft) 100,00 %
03.06.2023 14:08 17,7 C 63 % 1018,3 hPa 0,0 l/m 17,7 km/h (3 Bft) O-SO 112 1 min 0,000 mm 4,2 UV-I 821 W/m 10,6 C 17,7 C 29,0 km/h (5 Bft) 100,00 %
03.06.2023 14:07 17,6 C 59 % 1018,5 hPa 0,0 l/m 14,5 km/h (3 Bft) SO 135 1 min 0,000 mm 4,2 UV-I 824 W/m 9,5 C 17,6 C 20,9 km/h (4 Bft) 100,00 %
03.06.2023 14:06 17,6 C 61 % 1018,5 hPa 0,0 l/m 14,5 km/h (3 Bft) O-SO 112 1 min 0,000 mm 4,2 UV-I 828 W/m 10,0 C 17,6 C 25,7 km/h (4 Bft) 100,00 %
03.06.2023 14:05 17,4 C 60 % 1018,6 hPa 0,0 l/m 14,5 km/h (3 Bft) SO 135 1 min 0,000 mm 4,2 UV-I 830 W/m 9,6 C 17,4 C 19,3 km/h (3 Bft) 100,00 %
03.06.2023 14:04 17,4 C 60 % 1018,5 hPa 0,0 l/m 14,5 km/h (3 Bft) O 90 1 min 0,000 mm 4,2 UV-I 826 W/m 9,6 C 17,4 C 22,5 km/h (4 Bft) 100,00 %
03.06.2023 14:03 17,3 C 60 % 1018,6 hPa 0,0 l/m 14,5 km/h (3 Bft) O-SO 112 1 min 0,000 mm 4,2 UV-I 830 W/m 9,5 C 17,3 C 20,9 km/h (4 Bft) 100,00 %
03.06.2023 14:02 17,2 C 60 % 1018,5 hPa 0,0 l/m 16,1 km/h (3 Bft) O-SO 112 1 min 0,000 mm 4,2 UV-I 830 W/m 9,4 C 17,2 C 20,9 km/h (4 Bft) 100,00 %
03.06.2023 14:01 17,2 C 59 % 1018,5 hPa 0,0 l/m 19,3 km/h (3 Bft) O-SO 112 1 min 0,000 mm 4,2 UV-I 828 W/m 9,1 C 17,2 C 29,0 km/h (5 Bft) 100,00 %
03.06.2023 14:00 17,2 C 60 % 1018,4 hPa 0,0 l/m 22,5 km/h (4 Bft) O-SO 112 1 min 0,559 mm 4,2 UV-I 831 W/m 9,4 C 17,2 C 30,6 km/h (5 Bft) 100,00 %
03.06.2023 13:59 17,1 C 60 % 1018,6 hPa 0,0 l/m 16,1 km/h (3 Bft) O-SO 112 1 min 0,000 mm 4,2 UV-I 830 W/m 9,3 C 17,1 C 22,5 km/h (4 Bft) 100,00 %
03.06.2023 13:58 17,1 C 59 % 1018,5 hPa 0,0 l/m 17,7 km/h (3 Bft) O-SO 112 1 min 0,000 mm 4,2 UV-I 830 W/m 9,0 C 17,1 C 24,1 km/h (4 Bft) 95,65 %
03.06.2023 13:57 17,1 C 60 % 1018,5 hPa 0,0 l/m 24,1 km/h (4 Bft) O-SO 112 1 min 0,000 mm 4,2 UV-I 831 W/m 9,3 C 17,1 C 32,2 km/h (5 Bft) 95,65 %
03.06.2023 13:56 17,1 C 60 % 1018,5 hPa 0,0 l/m 22,5 km/h (4 Bft) O-SO 112 1 min 0,000 mm 4,2 UV-I 831 W/m 9,3 C 17,1 C 29,0 km/h (5 Bft) 100,00 %
03.06.2023 13:55 17,1 C 59 % 1018,5 hPa 0,0 l/m 22,5 km/h (4 Bft) O-SO 112 1 min 0,000 mm 4,2 UV-I 831 W/m 9,0 C 17,1 C 30,6 km/h (5 Bft) 100,00 %
03.06.2023 13:54 17,1 C 59 % 1018,5 hPa 0,0 l/m 24,1 km/h (4 Bft) O-SO 112 1 min 0,000 mm 4,2 UV-I 831 W/m 9,0 C 17,1 C 32,2 km/h (5 Bft) 100,00 %
03.06.2023 13:53 17,1 C 60 % 1018,5 hPa 0,0 l/m 22,5 km/h (4 Bft) O-SO 112 1 min 0,000 mm 4,2 UV-I 833 W/m 9,3 C 17,1 C 33,8 km/h (5 Bft) 100,00 %
03.06.2023 13:52 17,0 C 59 % 1018,5 hPa 0,0 l/m 25,7 km/h (4 Bft) O-SO 112 1 min 0,000 mm 4,3 UV-I 833 W/m 8,9 C 17,0 C 37,0 km/h (5 Bft) 95,65 %
03.06.2023 13:51 16,9 C 60 % 1018,5 hPa 0,0 l/m 24,1 km/h (4 Bft) O-SO 112 1 min 0,000 mm 4,3 UV-I 833 W/m 9,1 C 16,9 C 32,2 km/h (5 Bft) 100,00 %
03.06.2023 13:50 16,9 C 60 % 1018,5 hPa 0,0 l/m 22,5 km/h (4 Bft) O-SO 112 1 min 0,000 mm 4,3 UV-I 835 W/m 9,1 C 16,9 C 33,8 km/h (5 Bft) 100,00 %
03.06.2023 13:49 16,9 C 60 % 1018,5 hPa 0,0 l/m 25,7 km/h (4 Bft) O-SO 112 1 min 0,000 mm 4,3 UV-I 835 W/m 9,1 C 16,9 C 38,6 km/h (5 Bft) 100,00 %
03.06.2023 13:48 16,9 C 59 % 1018,6 hPa 0,0 l/m 24,1 km/h (4 Bft) O-SO 112 1 min 0,000 mm 4,3 UV-I 837 W/m 8,8 C 16,9 C 32,2 km/h (5 Bft) 100,00 %
03.06.2023 13:47 16,9 C 60 % 1018,5 hPa 0,0 l/m 25,7 km/h (4 Bft) SO 135 1 min 0,000 mm 4,3 UV-I 837 W/m 9,1 C 16,9 C 35,4 km/h (5 Bft) 100,00 %
03.06.2023 13:46 16,8 C 60 % 1018,6 hPa 0,0 l/m 22,5 km/h (4 Bft) O-SO 112 1 min 0,000 mm 4,3 UV-I 838 W/m 9,0 C 16,8 C 30,6 km/h (5 Bft) 100,00 %
03.06.2023 13:45 16,9 C 58 % 1018,6 hPa 0,0 l/m 25,7 km/h (4 Bft) O-SO 112 1 min 0,000 mm 4,3 UV-I 837 W/m 8,6 C 16,9 C 30,6 km/h (5 Bft) 100,00 %
03.06.2023 13:44 16,9 C 59 % 1018,6 hPa 0,0 l/m 25,7 km/h (4 Bft) O-SO 112 1 min 0,000 mm 4,3 UV-I 838 W/m 8,8 C 16,9 C 33,8 km/h (5 Bft) 100,00 %
03.06.2023 13:43 16,9 C 60 % 1018,6 hPa 0,0 l/m 24,1 km/h (4 Bft) O-SO 112 1 min 0,000 mm 4,3 UV-I 835 W/m 9,1 C 16,9 C 32,2 km/h (5 Bft) 100,00 %
03.06.2023 13:42 16,9 C 61 % 1018,6 hPa 0,0 l/m 22,5 km/h (4 Bft) O-SO 112 1 min 0,000 mm 4,3 UV-I 837 W/m 9,3 C 16,9 C 35,4 km/h (5 Bft) 100,00 %
03.06.2023 13:41 16,9 C 59 % 1018,6 hPa 0,0 l/m 22,5 km/h (4 Bft) O-SO 112 1 min 0,000 mm 4,3 UV-I 835 W/m 8,8 C 16,9 C 27,4 km/h (4 Bft) 95,65 %
03.06.2023 13:40 16,9 C 58 % 1018,6 hPa 0,0 l/m 24,1 km/h (4 Bft) O-SO 112 1 min 0,000 mm 4,3 UV-I 837 W/m 8,6 C 16,9 C 33,8 km/h (5 Bft) 100,00 %
03.06.2023 13:39 17,0 C 58 % 1018,6 hPa 0,0 l/m 24,1 km/h (4 Bft) O-SO 112 1 min 0,000 mm 4,3 UV-I 835 W/m 8,7 C 17,0 C 37,0 km/h (5 Bft) 100,00 %
03.06.2023 13:38 17,1 C 58 % 1018,6 hPa 0,0 l/m 27,4 km/h (4 Bft) O-SO 112 1 min 0,000 mm 4,3 UV-I 835 W/m 8,8 C 17,1 C 37,0 km/h (5 Bft) 100,00 %
03.06.2023 13:37 17,1 C 59 % 1018,6 hPa 0,0 l/m 25,7 km/h (4 Bft) O-SO 112 1 min 0,000 mm 4,3 UV-I 838 W/m 9,0 C 17,1 C 33,8 km/h (5 Bft) 100,00 %
03.06.2023 13:36 17,1 C 62 % 1018,6 hPa 0,0 l/m 20,9 km/h (4 Bft) O-SO 112 1 min 0,000 mm 4,3 UV-I 838 W/m 9,8 C 17,1 C 35,4 km/h (5 Bft) 100,00 %
03.06.2023 13:35 17,0 C 61 % 1018,7 hPa 0,0 l/m 17,7 km/h (3 Bft) SO 135 1 min 0,000 mm 4,3 UV-I 840 W/m 9,4 C 17,0 C 24,1 km/h (4 Bft) 100,00 %
03.06.2023 13:34 17,0 C 60 % 1018,7 hPa 0,0 l/m 20,9 km/h (4 Bft) O-SO 112 1 min 0,000 mm 4,3 UV-I 840 W/m 9,2 C 17,0 C 27,4 km/h (4 Bft) 100,00 %
03.06.2023 13:33 17,0 C 62 % 1018,7 hPa 0,0 l/m 17,7 km/h (3 Bft) O-SO 112 1 min 0,000 mm 4,3 UV-I 840 W/m 9,7 C 17,0 C 25,7 km/h (4 Bft) 100,00 %
03.06.2023 13:32 16,9 C 59 % 1018,6 hPa 0,0 l/m 20,9 km/h (4 Bft) O-SO 112 1 min 0,000 mm 4,4 UV-I 840 W/m 8,8 C 16,9 C 25,7 km/h (4 Bft) 100,00 %
03.06.2023 13:31 16,9 C 59 % 1018,7 hPa 0,0 l/m 25,7 km/h (4 Bft) O-SO 112 1 min 0,000 mm 4,4 UV-I 840 W/m 8,8 C 16,9 C 33,8 km/h (5 Bft) 100,00 %
03.06.2023 13:30 17,0 C 61 % 1018,7 hPa 0,0 l/m 22,5 km/h (4 Bft) O-SO 112 1 min 0,000 mm 4,4 UV-I 840 W/m 9,4 C 17,0 C 35,4 km/h (5 Bft) 100,00 %
03.06.2023 13:29 16,9 C 60 % 1018,7 hPa 0,0 l/m 20,9 km/h (4 Bft) SO 135 1 min 0,000 mm 4,4 UV-I 840 W/m 9,1 C 16,9 C 29,0 km/h (5 Bft) 95,65 %
03.06.2023 13:28 17,0 C 59 % 1018,7 hPa 0,0 l/m 25,7 km/h (4 Bft) O-SO 112 1 min 0,000 mm 4,4 UV-I 842 W/m 8,9 C 17,0 C 35,4 km/h (5 Bft) 95,65 %
03.06.2023 13:27 16,9 C 59 % 1018,7 hPa 0,0 l/m 20,9 km/h (4 Bft) O-SO 112 1 min 0,000 mm 4,4 UV-I 842 W/m 8,8 C 16,9 C 29,0 km/h (5 Bft) 100,00 %
03.06.2023 13:26 16,9 C 60 % 1018,7 hPa 0,0 l/m 24,1 km/h (4 Bft) SO 135 1 min 0,000 mm 4,4 UV-I 842 W/m 9,1 C 16,9 C 32,2 km/h (5 Bft) 95,65 %
03.06.2023 13:25 16,9 C 59 % 1018,8 hPa 0,0 l/m 20,9 km/h (4 Bft) O-SO 112 1 min 0,000 mm 4,4 UV-I 846 W/m 8,8 C 16,9 C 30,6 km/h (5 Bft) 100,00 %
03.06.2023 13:24 16,9 C 59 % 1018,8 hPa 0,0 l/m 22,5 km/h (4 Bft) O-SO 112 1 min 0,000 mm 4,4 UV-I 844 W/m 8,8 C 16,9 C 29,0 km/h (5 Bft) 91,30 %
03.06.2023 13:23 16,9 C 61 % 1018,8 hPa 0,0 l/m 14,5 km/h (3 Bft) O-SO 112 1 min 0,000 mm 4,4 UV-I 842 W/m 9,3 C 16,9 C 22,5 km/h (4 Bft) 100,00 %
03.06.2023 13:22 16,8 C 58 % 1018,7 hPa 0,0 l/m 17,7 km/h (3 Bft) O-SO 112 1 min 0,000 mm 4,4 UV-I 842 W/m 8,5 C 16,8 C 27,4 km/h (4 Bft) 100,00 %
03.06.2023 13:21 16,9 C 58 % 1018,7 hPa 0,0 l/m 19,3 km/h (3 Bft) SO 135 1 min 0,000 mm 4,4 UV-I 844 W/m 8,6 C 16,9 C 25,7 km/h (4 Bft) 95,65 %
03.06.2023 13:20 16,9 C 58 % 1018,7 hPa 0,0 l/m 27,4 km/h (4 Bft) O-SO 112 1 min 0,000 mm 4,4 UV-I 844 W/m 8,6 C 16,9 C 33,8 km/h (5 Bft) 100,00 %
03.06.2023 13:19 16,9 C 62 % 1018,7 hPa 0,0 l/m 20,9 km/h (4 Bft) O-SO 112 1 min 0,000 mm 4,4 UV-I 844 W/m 9,6 C 16,9 C 32,2 km/h (5 Bft) 95,65 %
03.06.2023 13:18 16,9 C 59 % 1018,8 hPa 0,0 l/m 24,1 km/h (4 Bft) SO 135 1 min 0,000 mm 4,4 UV-I 844 W/m 8,8 C 16,9 C 35,4 km/h (5 Bft) 100,00 %
03.06.2023 13:17 16,9 C 61 % 1018,8 hPa 0,0 l/m 19,3 km/h (3 Bft) O-SO 112 1 min 0,000 mm 4,4 UV-I 842 W/m 9,3 C 16,9 C 32,2 km/h (5 Bft) 100,00 %
03.06.2023 13:16 16,9 C 58 % 1018,9 hPa 0,0 l/m 24,1 km/h (4 Bft) O-SO 112 1 min 0,000 mm 4,4 UV-I 844 W/m 8,6 C 16,9 C 32,2 km/h (5 Bft) 100,00 %
03.06.2023 13:15 17,0 C 59 % 1018,8 hPa 0,0 l/m 24,1 km/h (4 Bft) O-SO 112 1 min 0,000 mm 4,4 UV-I 844 W/m 8,9 C 17,0 C 33,8 km/h (5 Bft) 100,00 %
03.06.2023 13:14 17,1 C 59 % 1018,7 hPa 0,0 l/m 17,7 km/h (3 Bft) O-SO 112 1 min 0,000 mm 4,4 UV-I 846 W/m 9,0 C 17,1 C 25,7 km/h (4 Bft) 95,65 %
03.06.2023 13:13 17,1 C 58 % 1018,7 hPa 0,0 l/m 19,3 km/h (3 Bft) O-SO 112 1 min 0,000 mm 4,4 UV-I 846 W/m 8,8 C 17,1 C 30,6 km/h (5 Bft) 100,00 %
03.06.2023 13:12 17,1 C 60 % 1018,8 hPa 0,0 l/m 16,1 km/h (3 Bft) O-SO 112 1 min 0,000 mm 4,4 UV-I 844 W/m 9,3 C 17,1 C 25,7 km/h (4 Bft) 100,00 %
03.06.2023 13:11 17,0 C 60 % 1018,9 hPa 0,0 l/m 16,1 km/h (3 Bft) SO 135 1 min 0,000 mm 4,4 UV-I 842 W/m 9,2 C 17,0 C 22,5 km/h (4 Bft) 100,00 %
03.06.2023 13:10 16,9 C 60 % 1018,9 hPa 0,0 l/m 22,5 km/h (4 Bft) O-SO 112 1 min 0,000 mm 4,4 UV-I 844 W/m 9,1 C 16,9 C 29,0 km/h (5 Bft) 95,65 %
03.06.2023 13:09 16,9 C 60 % 1018,8 hPa 0,0 l/m 20,9 km/h (4 Bft) O 90 1 min 0,000 mm 4,4 UV-I 846 W/m 9,1 C 16,9 C 32,2 km/h (5 Bft) 95,65 %
03.06.2023 13:08 16,9 C 61 % 1018,7 hPa 0,0 l/m 20,9 km/h (4 Bft) O-SO 112 1 min 0,000 mm 4,4 UV-I 842 W/m 9,3 C 16,9 C 33,8 km/h (5 Bft) 95,65 %
03.06.2023 13:07 16,8 C 60 % 1018,8 hPa 0,0 l/m 19,3 km/h (3 Bft) O-SO 112 1 min 0,000 mm 4,4 UV-I 844 W/m 9,0 C 16,8 C 30,6 km/h (5 Bft) 95,65 %
03.06.2023 13:06 16,7 C 60 % 1018,8 hPa 0,0 l/m 19,3 km/h (3 Bft) SO 135 1 min 0,000 mm 4,4 UV-I 844 W/m 8,9 C 16,7 C 29,0 km/h (5 Bft) 100,00 %
03.06.2023 13:05 16,7 C 60 % 1018,8 hPa 0,0 l/m 25,7 km/h (4 Bft) O-SO 112 1 min 0,000 mm 4,4 UV-I 842 W/m 8,9 C 16,7 C 38,6 km/h (5 Bft) 100,00 %
03.06.2023 13:04 16,7 C 59 % 1018,8 hPa 0,0 l/m 24,1 km/h (4 Bft) O-SO 112 1 min 0,000 mm 4,4 UV-I 842 W/m 8,6 C 16,7 C 38,6 km/h (5 Bft) 95,65 %
03.06.2023 13:03 16,7 C 59 % 1018,8 hPa 0,0 l/m 27,4 km/h (4 Bft) O-SO 112 1 min 0,000 mm 4,4 UV-I 842 W/m 8,6 C 16,7 C 37,0 km/h (5 Bft) 100,00 %
03.06.2023 13:02 16,6 C 62 % 1018,7 hPa 0,0 l/m 22,5 km/h (4 Bft) O-SO 112 1 min 0,000 mm 4,4 UV-I 842 W/m 9,3 C 16,6 C 38,6 km/h (5 Bft) 95,65 %
03.06.2023 13:01 16,5 C 60 % 1018,8 hPa 0,0 l/m 19,3 km/h (3 Bft) O-SO 112 1 min 0,000 mm 4,4 UV-I 840 W/m 8,7 C 16,5 C 24,1 km/h (4 Bft) 100,00 %
03.06.2023 13:00 16,4 C 61 % 1018,8 hPa 0,0 l/m 20,9 km/h (4 Bft) O-SO 112 1 min 0,559 mm 4,4 UV-I 840 W/m 8,9 C 16,4 C 29,0 km/h (5 Bft) 100,00 %
03.06.2023 12:59 16,4 C 60 % 1018,7 hPa 0,0 l/m 19,3 km/h (3 Bft) O-SO 112 1 min 0,000 mm 4,4 UV-I 844 W/m 8,6 C 16,4 C 30,6 km/h (5 Bft) 100,00 %
03.06.2023 12:58 16,4 C 60 % 1018,7 hPa 0,0 l/m 24,1 km/h (4 Bft) O 90 1 min 0,000 mm 4,4 UV-I 840 W/m 8,6 C 16,4 C 33,8 km/h (5 Bft) 100,00 %
03.06.2023 12:57 16,4 C 60 % 1018,8 hPa 0,0 l/m 24,1 km/h (4 Bft) O-SO 112 1 min 0,000 mm 4,4 UV-I 840 W/m 8,6 C 16,4 C 30,6 km/h (5 Bft) 95,65 %
03.06.2023 12:56 16,4 C 59 % 1018,7 hPa 0,0 l/m 24,1 km/h (4 Bft) O-SO 112 1 min 0,000 mm 4,4 UV-I 842 W/m 8,4 C 16,4 C 35,4 km/h (5 Bft) 100,00 %
03.06.2023 12:55 16,4 C 60 % 1018,7 hPa 0,0 l/m 27,4 km/h (4 Bft) O-SO 112 1 min 0,000 mm 4,3 UV-I 840 W/m 8,6 C 16,4 C 32,2 km/h (5 Bft) 95,65 %
03.06.2023 12:54 16,4 C 59 % 1018,8 hPa 0,0 l/m 27,4 km/h (4 Bft) O-SO 112 1 min 0,000 mm 4,4 UV-I 838 W/m 8,4 C 16,4 C 35,4 km/h (5 Bft) 100,00 %
03.06.2023 12:53 16,5 C 60 % 1018,7 hPa 0,0 l/m 20,9 km/h (4 Bft) O-SO 112 1 min 0,000 mm 4,4 UV-I 838 W/m 8,7 C 16,5 C 29,0 km/h (5 Bft) 100,00 %
03.06.2023 12:52 16,5 C 59 % 1018,8 hPa 0,0 l/m 20,9 km/h (4 Bft) SO 135 1 min 0,000 mm 4,3 UV-I 837 W/m 8,5 C 16,5 C 37,0 km/h (5 Bft) 100,00 %
03.06.2023 12:51 16,6 C 59 % 1018,7 hPa 0,0 l/m 27,4 km/h (4 Bft) O-SO 112 1 min 0,000 mm 4,3 UV-I 835 W/m 8,6 C 16,6 C 41,8 km/h (6 Bft) 100,00 %
03.06.2023 12:50 16,7 C 59 % 1018,7 hPa 0,0 l/m 29,0 km/h (5 Bft) O-SO 112 1 min 0,000 mm 4,4 UV-I 837 W/m 8,6 C 16,7 C 41,8 km/h (6 Bft) 95,65 %
03.06.2023 12:49 16,7 C 60 % 1018,7 hPa 0,0 l/m 20,9 km/h (4 Bft) O-SO 112 1 min 0,000 mm 4,4 UV-I 838 W/m 8,9 C 16,7 C 30,6 km/h (5 Bft) 100,00 %
03.06.2023 12:48 16,7 C 60 % 1018,7 hPa 0,0 l/m 17,7 km/h (3 Bft) O-SO 112 1 min 0,000 mm 4,4 UV-I 838 W/m 8,9 C 16,7 C 27,4 km/h (4 Bft) 100,00 %
03.06.2023 12:47 16,7 C 60 % 1018,8 hPa 0,0 l/m 25,7 km/h (4 Bft) O-SO 112 1 min 0,000 mm 4,3 UV-I 837 W/m 8,9 C 16,7 C 38,6 km/h (5 Bft) 100,00 %
03.06.2023 12:46 16,6 C 60 % 1018,8 hPa 0,0 l/m 24,1 km/h (4 Bft) O-SO 112 1 min 0,000 mm 4,3 UV-I 833 W/m 8,8 C 16,6 C 29,0 km/h (5 Bft) 100,00 %
03.06.2023 12:45 16,6 C 61 % 1018,8 hPa 0,0 l/m 22,5 km/h (4 Bft) O-SO 112 1 min 0,000 mm 4,3 UV-I 833 W/m 9,0 C 16,6 C 29,0 km/h (5 Bft) 95,65 %
03.06.2023 12:44 16,5 C 62 % 1018,7 hPa 0,0 l/m 20,9 km/h (4 Bft) O 90 1 min 0,000 mm 4,3 UV-I 838 W/m 9,2 C 16,5 C 29,0 km/h (5 Bft) 100,00 %
03.06.2023 12:43 16,4 C 61 % 1018,8 hPa 0,0 l/m 19,3 km/h (3 Bft) O-SO 112 1 min 0,000 mm 4,3 UV-I 830 W/m 8,9 C 16,4 C 25,7 km/h (4 Bft) 95,65 %
03.06.2023 12:42 16,4 C 62 % 1018,7 hPa 0,0 l/m 16,1 km/h (3 Bft) SO 135 1 min 0,000 mm 4,3 UV-I 833 W/m 9,1 C 16,4 C 22,5 km/h (4 Bft) 100,00 %
03.06.2023 12:41 16,3 C 59 % 1018,7 hPa 0,0 l/m 25,7 km/h (4 Bft) O-SO 112 1 min 0,000 mm 4,3 UV-I 831 W/m 8,3 C 16,3 C 37,0 km/h (5 Bft) 100,00 %
03.06.2023 12:40 16,4 C 59 % 1018,8 hPa 0,0 l/m 29,0 km/h (5 Bft) O-SO 112 1 min 0,000 mm 4,3 UV-I 835 W/m 8,4 C 16,4 C 43,5 km/h (6 Bft) 91,30 %
03.06.2023 12:39 16,6 C 61 % 1018,7 hPa 0,0 l/m 25,7 km/h (4 Bft) SO 135 1 min 0,000 mm 4,3 UV-I 830 W/m 9,0 C 16,6 C 37,0 km/h (5 Bft) 100,00 %
03.06.2023 12:38 16,6 C 61 % 1018,8 hPa 0,0 l/m 20,9 km/h (4 Bft) O-SO 112 1 min 0,000 mm 4,2 UV-I 824 W/m 9,0 C 16,6 C 29,0 km/h (5 Bft) 100,00 %
03.06.2023 12:37 16,5 C 59 % 1018,8 hPa 0,0 l/m 22,5 km/h (4 Bft) O-SO 112 1 min 0,000 mm 4,3 UV-I 826 W/m 8,5 C 16,5 C 30,6 km/h (5 Bft) 100,00 %
03.06.2023 12:36 16,6 C 60 % 1018,7 hPa 0,0 l/m 27,4 km/h (4 Bft) O-SO 112 1 min 0,000 mm 4,3 UV-I 828 W/m 8,8 C 16,6 C 41,8 km/h (6 Bft) 95,65 %
03.06.2023 12:35 16,5 C 61 % 1018,8 hPa 0,0 l/m 24,1 km/h (4 Bft) O-SO 112 1 min 0,000 mm 4,3 UV-I 828 W/m 9,0 C 16,5 C 38,6 km/h (5 Bft) 95,65 %
03.06.2023 12:34 16,3 C 61 % 1018,9 hPa 0,0 l/m 22,5 km/h (4 Bft) O-SO 112 1 min 0,000 mm 4,3 UV-I 828 W/m 8,8 C 16,3 C 30,6 km/h (5 Bft) 100,00 %
03.06.2023 12:33 16,3 C 63 % 1018,8 hPa 0,0 l/m 17,7 km/h (3 Bft) O-SO 112 1 min 0,000 mm 4,3 UV-I 830 W/m 9,2 C 16,3 C 25,7 km/h (4 Bft) 100,00 %
03.06.2023 12:32 16,2 C 61 % 1018,7 hPa 0,0 l/m 19,3 km/h (3 Bft) O 90 1 min 0,000 mm 4,3 UV-I 831 W/m 8,7 C 16,2 C 30,6 km/h (5 Bft) 100,00 %
03.06.2023 12:31 16,2 C 62 % 1018,7 hPa 0,0 l/m 16,1 km/h (3 Bft) O-SO 112 1 min 0,000 mm 4,3 UV-I 833 W/m 8,9 C 16,2 C 27,4 km/h (4 Bft) 100,00 %
03.06.2023 12:30 16,1 C 61 % 1018,8 hPa 0,0 l/m 24,1 km/h (4 Bft) O-SO 112 1 min 0,000 mm 4,3 UV-I 830 W/m 8,6 C 16,1 C 32,2 km/h (5 Bft) 100,00 %
03.06.2023 12:29 16,1 C 60 % 1018,9 hPa 0,0 l/m 20,9 km/h (4 Bft) O-SO 112 1 min 0,000 mm 4,2 UV-I 830 W/m 8,3 C 16,1 C 32,2 km/h (5 Bft) 100,00 %
03.06.2023 12:28 16,1 C 61 % 1018,8 hPa 0,0 l/m 25,7 km/h (4 Bft) O-SO 112 1 min 0,000 mm 4,3 UV-I 835 W/m 8,6 C 16,1 C 37,0 km/h (5 Bft) 100,00 %
03.06.2023 12:27 16,0 C 62 % 1018,9 hPa 0,0 l/m 17,7 km/h (3 Bft) SO 135 1 min 0,000 mm 4,3 UV-I 831 W/m 8,7 C 16,0 C 32,2 km/h (5 Bft) 100,00 %
03.06.2023 12:26 15,9 C 63 % 1018,9 hPa 0,0 l/m 14,5 km/h (3 Bft) SO 135 1 min 0,000 mm 4,2 UV-I 833 W/m 8,9 C 15,9 C 17,7 km/h (3 Bft) 100,00 %
03.06.2023 12:25 15,8 C 62 % 1018,8 hPa 0,0 l/m 19,3 km/h (3 Bft) O-SO 112 1 min 0,000 mm 4,2 UV-I 826 W/m 8,5 C 15,8 C 29,0 km/h (5 Bft) 100,00 %
03.06.2023 12:24 15,8 C 60 % 1018,8 hPa 0,0 l/m 27,4 km/h (4 Bft) O-SO 112 1 min 0,000 mm 4,2 UV-I 824 W/m 8,1 C 15,8 C 38,6 km/h (5 Bft) 100,00 %
03.06.2023 12:23 15,8 C 61 % 1018,8 hPa 0,0 l/m 25,7 km/h (4 Bft) O-SO 112 1 min 0,000 mm 4,2 UV-I 828 W/m 8,3 C 15,8 C 37,0 km/h (5 Bft) 100,00 %
03.06.2023 12:22 15,8 C 61 % 1018,9 hPa 0,0 l/m 20,9 km/h (4 Bft) SO 135 1 min 0,000 mm 4,2 UV-I 824 W/m 8,3 C 15,8 C 30,6 km/h (5 Bft) 100,00 %
03.06.2023 12:21 15,8 C 60 % 1018,9 hPa 0,0 l/m 24,1 km/h (4 Bft) O-SO 112 1 min 0,000 mm 4,2 UV-I 826 W/m 8,1 C 15,8 C 38,6 km/h (5 Bft) 95,65 %
03.06.2023 12:20 15,8 C 61 % 1018,9 hPa 0,0 l/m 25,7 km/h (4 Bft) O-SO 112 1 min 0,000 mm 4,2 UV-I 828 W/m 8,3 C 15,8 C 37,0 km/h (5 Bft) 95,65 %
03.06.2023 12:19 15,8 C 60 % 1018,8 hPa 0,0 l/m 27,4 km/h (4 Bft) O-SO 112 1 min 0,000 mm 4,2 UV-I 826 W/m 8,1 C 15,8 C 38,6 km/h (5 Bft) 95,65 %
03.06.2023 12:18 15,8 C 62 % 1018,8 hPa 0,0 l/m 24,1 km/h (4 Bft) O-SO 112 1 min 0,000 mm 4,2 UV-I 823 W/m 8,5 C 15,8 C 41,8 km/h (6 Bft) 100,00 %
03.06.2023 12:17 15,7 C 61 % 1018,8 hPa 0,0 l/m 24,1 km/h (4 Bft) O-SO 112 1 min 0,000 mm 4,2 UV-I 823 W/m 8,2 C 15,7 C 37,0 km/h (5 Bft) 100,00 %
03.06.2023 12:16 15,7 C 61 % 1018,9 hPa 0,0 l/m 29,0 km/h (5 Bft) O-SO 112 1 min 0,000 mm 4,2 UV-I 823 W/m 8,2 C 15,7 C 41,8 km/h (6 Bft) 100,00 %
03.06.2023 12:15 15,7 C 61 % 1018,9 hPa 0,0 l/m 24,1 km/h (4 Bft) O-SO 112 1 min 0,000 mm 4,2 UV-I 823 W/m 8,2 C 15,7 C 37,0 km/h (5 Bft) 100,00 %
03.06.2023 12:14 15,7 C 61 % 1018,9 hPa 0,0 l/m 27,4 km/h (4 Bft) O-SO 112 1 min 0,000 mm 4,2 UV-I 821 W/m 8,2 C 15,7 C 41,8 km/h (6 Bft) 95,65 %
03.06.2023 12:13 15,7 C 60 % 1018,8 hPa 0,0 l/m 30,6 km/h (5 Bft) O-SO 112 1 min 0,000 mm 4,2 UV-I 823 W/m 8,0 C 15,7 C 38,6 km/h (5 Bft) 100,00 %
03.06.2023 12:12 15,7 C 61 % 1018,8 hPa 0,0 l/m 20,9 km/h (4 Bft) O-SO 112 1 min 0,000 mm 4,2 UV-I 821 W/m 8,2 C 15,7 C 30,6 km/h (5 Bft) 100,00 %
03.06.2023 12:11 15,7 C 63 % 1018,9 hPa 0,0 l/m 22,5 km/h (4 Bft) O-SO 112 1 min 0,000 mm 4,2 UV-I 817 W/m 8,7 C 15,7 C 32,2 km/h (5 Bft) 100,00 %
03.06.2023 12:10 15,7 C 61 % 1018,9 hPa 0,0 l/m 24,1 km/h (4 Bft) O-SO 112 1 min 0,000 mm 4,2 UV-I 819 W/m 8,2 C 15,7 C 35,4 km/h (5 Bft) 100,00 %
03.06.2023 12:09 15,8 C 61 % 1018,9 hPa 0,0 l/m 29,0 km/h (5 Bft) O-SO 112 1 min 0,000 mm 4,2 UV-I 819 W/m 8,3 C 15,8 C 40,2 km/h (6 Bft) 95,65 %
03.06.2023 12:08 15,8 C 63 % 1018,9 hPa 0,0 l/m 20,9 km/h (4 Bft) SO 135 1 min 0,000 mm 4,2 UV-I 817 W/m 8,8 C 15,8 C 30,6 km/h (5 Bft) 100,00 %
03.06.2023 12:07 15,8 C 62 % 1018,9 hPa 0,0 l/m 24,1 km/h (4 Bft) O-SO 112 1 min 0,000 mm 4,1 UV-I 816 W/m 8,5 C 15,8 C 32,2 km/h (5 Bft) 100,00 %
03.06.2023 12:06 15,8 C 61 % 1018,9 hPa 0,0 l/m 20,9 km/h (4 Bft) O-SO 112 1 min 0,000 mm 4,1 UV-I 814 W/m 8,3 C 15,8 C 38,6 km/h (5 Bft) 100,00 %
03.06.2023 12:05 15,7 C 61 % 1019,0 hPa 0,0 l/m 20,9 km/h (4 Bft) O-SO 112 1 min 0,000 mm 4,1 UV-I 814 W/m 8,2 C 15,7 C 30,6 km/h (5 Bft) 100,00 %
03.06.2023 12:04 15,7 C 61 % 1018,9 hPa 0,0 l/m 24,1 km/h (4 Bft) O-SO 112 1 min 0,000 mm 4,1 UV-I 814 W/m 8,2 C 15,7 C 37,0 km/h (5 Bft) 100,00 %
03.06.2023 12:03 15,7 C 61 % 1018,9 hPa 0,0 l/m 24,1 km/h (4 Bft) O-SO 112 1 min 0,000 mm 4,1 UV-I 814 W/m 8,2 C 15,7 C 32,2 km/h (5 Bft) 100,00 %
03.06.2023 12:02 15,7 C 63 % 1018,9 hPa 0,0 l/m 17,7 km/h (3 Bft) O-SO 112 1 min 0,000 mm 4,1 UV-I 812 W/m 8,7 C 15,7 C 22,5 km/h (4 Bft) 100,00 %
03.06.2023 12:01 15,6 C 62 % 1018,9 hPa 0,0 l/m 22,5 km/h (4 Bft) O-SO 112 1 min 0,000 mm 4,1 UV-I 812 W/m 8,3 C 15,6 C 29,0 km/h (5 Bft) 100,00 %
03.06.2023 12:00 15,6 C 62 % 1018,9 hPa 0,0 l/m 22,5 km/h (4 Bft) O-SO 112 1 min 0,508 mm 4,1 UV-I 810 W/m 8,3 C 15,6 C 30,6 km/h (5 Bft) 95,65 %
03.06.2023 11:59 15,6 C 62 % 1018,9 hPa 0,0 l/m 22,5 km/h (4 Bft) SO 135 1 min 0,000 mm 4,1 UV-I 810 W/m 8,3 C 15,6 C 30,6 km/h (5 Bft) 91,30 %
03.06.2023 11:58 15,6 C 62 % 1018,8 hPa 0,0 l/m 24,1 km/h (4 Bft) O-SO 112 1 min 0,000 mm 4,1 UV-I 810 W/m 8,3 C 15,6 C 40,2 km/h (6 Bft) 100,00 %
03.06.2023 11:57 15,6 C 61 % 1018,9 hPa 0,0 l/m 24,1 km/h (4 Bft) O-SO 112 1 min 0,000 mm 4,0 UV-I 809 W/m 8,1 C 15,6 C 33,8 km/h (5 Bft) 100,00 %
03.06.2023 11:56 15,7 C 61 % 1018,9 hPa 0,0 l/m 29,0 km/h (5 Bft) O-SO 112 1 min 0,000 mm 4,0 UV-I 803 W/m 8,2 C 15,7 C 40,2 km/h (6 Bft) 100,00 %
03.06.2023 11:55 15,8 C 62 % 1018,9 hPa 0,0 l/m 22,5 km/h (4 Bft) O-SO 112 1 min 0,000 mm 4,0 UV-I 805 W/m 8,5 C 15,8 C 30,6 km/h (5 Bft) 100,00 %
03.06.2023 11:54 15,8 C 61 % 1018,9 hPa 0,0 l/m 24,1 km/h (4 Bft) O-SO 112 1 min 0,000 mm 4,0 UV-I 805 W/m 8,3 C 15,8 C 38,6 km/h (5 Bft) 100,00 %
03.06.2023 11:53 15,8 C 62 % 1018,9 hPa 0,0 l/m 22,5 km/h (4 Bft) O-SO 112 1 min 0,000 mm 4,0 UV-I 803 W/m 8,5 C 15,8 C 32,2 km/h (5 Bft) 100,00 %
03.06.2023 11:52 15,8 C 63 % 1018,8 hPa 0,0 l/m 24,1 km/h (4 Bft) O-SO 112 1 min 0,000 mm 4,0 UV-I 803 W/m 8,8 C 15,8 C 30,6 km/h (5 Bft) 91,30 %
03.06.2023 11:51 15,8 C 62 % 1018,9 hPa 0,0 l/m 22,5 km/h (4 Bft) O-SO 112 1 min 0,000 mm 4,0 UV-I 803 W/m 8,5 C 15,8 C 37,0 km/h (5 Bft) 100,00 %
03.06.2023 11:50 15,8 C 62 % 1018,8 hPa 0,0 l/m 22,5 km/h (4 Bft) O-SO 112 1 min 0,000 mm 4,0 UV-I 803 W/m 8,5 C 15,8 C 40,2 km/h (6 Bft) 100,00 %
03.06.2023 11:49 15,8 C 62 % 1018,8 hPa 0,0 l/m 19,3 km/h (3 Bft) O-SO 112 1 min 0,000 mm 4,0 UV-I 802 W/m 8,5 C 15,8 C 25,7 km/h (4 Bft) 100,00 %
03.06.2023 11:48 15,8 C 61 % 1018,8 hPa 0,0 l/m 16,1 km/h (3 Bft) O-SO 112 1 min 0,000 mm 4,0 UV-I 803 W/m 8,3 C 15,8 C 22,5 km/h (4 Bft) 100,00 %
03.06.2023 11:47 15,8 C 62 % 1018,8 hPa 0,0 l/m 19,3 km/h (3 Bft) O-SO 112 1 min 0,000 mm 4,0 UV-I 800 W/m 8,5 C 15,8 C 27,4 km/h (4 Bft) 100,00 %
03.06.2023 11:46 15,8 C 62 % 1018,8 hPa 0,0 l/m 24,1 km/h (4 Bft) O-SO 112 1 min 0,000 mm 4,0 UV-I 796 W/m 8,5 C 15,8 C 38,6 km/h (5 Bft) 100,00 %
03.06.2023 11:45 15,7 C 62 % 1018,8 hPa 0,0 l/m 24,1 km/h (4 Bft) O-SO 112 1 min 0,000 mm 4,0 UV-I 796 W/m 8,4 C 15,7 C 30,6 km/h (5 Bft) 100,00 %
03.06.2023 11:44 15,7 C 62 % 1018,8 hPa 0,0 l/m 25,7 km/h (4 Bft) O-SO 112 1 min 0,000 mm 4,0 UV-I 795 W/m 8,4 C 15,7 C 40,2 km/h (6 Bft) 100,00 %
03.06.2023 11:43 15,7 C 62 % 1018,9 hPa 0,0 l/m 20,9 km/h (4 Bft) O-SO 112 1 min 0,000 mm 4,0 UV-I 791 W/m 8,4 C 15,7 C 30,6 km/h (5 Bft) 95,65 %
03.06.2023 11:42 15,6 C 65 % 1018,9 hPa 0,0 l/m 9,7 km/h (2 Bft) O-SO 112 1 min 0,000 mm 3,9 UV-I 791 W/m 9,0 C 15,6 C 16,1 km/h (3 Bft) 100,00 %
03.06.2023 11:41 15,4 C 64 % 1018,9 hPa 0,0 l/m 16,1 km/h (3 Bft) SO 135 1 min 0,000 mm 3,9 UV-I 793 W/m 8,6 C 15,4 C 24,1 km/h (4 Bft) 100,00 %
03.06.2023 11:40 15,3 C 64 % 1018,9 hPa 0,0 l/m 17,7 km/h (3 Bft) O-SO 112 1 min 0,000 mm 3,9 UV-I 791 W/m 8,5 C 15,3 C 25,7 km/h (4 Bft) 100,00 %
03.06.2023 11:39 15,3 C 64 % 1018,9 hPa 0,0 l/m 14,5 km/h (3 Bft) O-SO 112 1 min 0,000 mm 3,9 UV-I 789 W/m 8,5 C 15,3 C 27,4 km/h (4 Bft) 95,65 %
03.06.2023 11:38 15,2 C 64 % 1018,9 hPa 0,0 l/m 24,1 km/h (4 Bft) O-SO 112 1 min 0,000 mm 3,9 UV-I 788 W/m 8,4 C 15,2 C 30,6 km/h (5 Bft) 100,00 %
03.06.2023 11:37 15,2 C 65 % 1018,9 hPa 0,0 l/m 14,5 km/h (3 Bft) O-SO 112 1 min 0,000 mm 3,9 UV-I 788 W/m 8,7 C 15,2 C 22,5 km/h (4 Bft) 100,00 %
03.06.2023 11:36 15,1 C 63 % 1018,9 hPa 0,0 l/m 19,3 km/h (3 Bft) O 90 1 min 0,000 mm 3,9 UV-I 788 W/m 8,1 C 15,1 C 25,7 km/h (4 Bft) 100,00 %
03.06.2023 11:35 15,1 C 64 % 1018,9 hPa 0,0 l/m 22,5 km/h (4 Bft) SO 135 1 min 0,000 mm 3,9 UV-I 786 W/m 8,3 C 15,1 C 35,4 km/h (5 Bft) 100,00 %
03.06.2023 11:34 15,0 C 64 % 1018,9 hPa 0,0 l/m 16,1 km/h (3 Bft) O-SO 112 1 min 0,000 mm 3,8 UV-I 782 W/m 8,2 C 15,0 C 24,1 km/h (4 Bft) 100,00 %
03.06.2023 11:33 14,9 C 62 % 1018,9 hPa 0,0 l/m 22,5 km/h (4 Bft) O-SO 112 1 min 0,000 mm 3,8 UV-I 779 W/m 7,7 C 14,9 C 30,6 km/h (5 Bft) 100,00 %
03.06.2023 11:32 14,9 C 64 % 1018,9 hPa 0,0 l/m 19,3 km/h (3 Bft) O-SO 112 1 min 0,000 mm 3,8 UV-I 779 W/m 8,2 C 14,9 C 30,6 km/h (5 Bft) 100,00 %
03.06.2023 11:31 14,9 C 63 % 1018,8 hPa 0,0 l/m 22,5 km/h (4 Bft) O-SO 112 1 min 0,000 mm 3,8 UV-I 780 W/m 7,9 C 14,9 C 35,4 km/h (5 Bft) 91,30 %
03.06.2023 11:30 15,0 C 62 % 1018,8 hPa 0,0 l/m 25,7 km/h (4 Bft) O-SO 112 1 min 0,000 mm 3,8 UV-I 777 W/m 7,8 C 15,0 C 37,0 km/h (5 Bft) 95,65 %
03.06.2023 11:29 15,0 C 62 % 1018,9 hPa 0,0 l/m 24,1 km/h (4 Bft) O-SO 112 1 min 0,000 mm 3,8 UV-I 779 W/m 7,8 C 15,0 C 32,2 km/h (5 Bft) 100,00 %
03.06.2023 11:28 15,1 C 62 % 1018,8 hPa 0,0 l/m 27,4 km/h (4 Bft) O-SO 112 1 min 0,000 mm 3,8 UV-I 775 W/m 7,9 C 15,1 C 40,2 km/h (6 Bft) 95,65 %
03.06.2023 11:27 15,2 C 62 % 1018,7 hPa 0,0 l/m 25,7 km/h (4 Bft) O-SO 112 1 min 0,000 mm 3,8 UV-I 773 W/m 8,0 C 15,2 C 38,6 km/h (5 Bft) 100,00 %
03.06.2023 11:26 15,2 C 63 % 1018,8 hPa 0,0 l/m 24,1 km/h (4 Bft) O-SO 112 1 min 0,000 mm 3,8 UV-I 775 W/m 8,2 C 15,2 C 38,6 km/h (5 Bft) 100,00 %
03.06.2023 11:25 15,1 C 62 % 1018,7 hPa 0,0 l/m 25,7 km/h (4 Bft) O-SO 112 1 min 0,000 mm 3,8 UV-I 773 W/m 7,9 C 15,1 C 35,4 km/h (5 Bft) 100,00 %
03.06.2023 11:24 15,1 C 62 % 1018,8 hPa 0,0 l/m 24,1 km/h (4 Bft) O-SO 112 1 min 0,000 mm 3,7 UV-I 770 W/m 7,9 C 15,1 C 35,4 km/h (5 Bft) 100,00 %
03.06.2023 11:23 15,1 C 63 % 1018,7 hPa 0,0 l/m 24,1 km/h (4 Bft) O-SO 112 1 min 0,000 mm 3,7 UV-I 768 W/m 8,1 C 15,1 C 37,0 km/h (5 Bft) 100,00 %
03.06.2023 11:22 15,2 C 62 % 1018,7 hPa 0,0 l/m 27,4 km/h (4 Bft) O-SO 112 1 min 0,000 mm 3,7 UV-I 768 W/m 8,0 C 15,2 C 33,8 km/h (5 Bft) 100,00 %
03.06.2023 11:21 15,2 C 62 % 1018,8 hPa 0,0 l/m 24,1 km/h (4 Bft) SO 135 1 min 0,000 mm 3,7 UV-I 766 W/m 8,0 C 15,2 C 30,6 km/h (5 Bft) 91,30 %
03.06.2023 11:20 15,2 C 63 % 1018,7 hPa 0,0 l/m 24,1 km/h (4 Bft) O-SO 112 1 min 0,000 mm 3,7 UV-I 766 W/m 8,2 C 15,2 C 38,6 km/h (5 Bft) 100,00 %
03.06.2023 11:19 15,2 C 64 % 1018,7 hPa 0,0 l/m 24,1 km/h (4 Bft) SO 135 1 min 0,000 mm 3,7 UV-I 765 W/m 8,4 C 15,2 C 30,6 km/h (5 Bft) 100,00 %
03.06.2023 11:18 15,2 C 64 % 1018,8 hPa 0,0 l/m 22,5 km/h (4 Bft) O-SO 112 1 min 0,000 mm 3,7 UV-I 763 W/m 8,4 C 15,2 C 30,6 km/h (5 Bft) 95,65 %
03.06.2023 11:17 15,1 C 63 % 1018,7 hPa 0,0 l/m 29,0 km/h (5 Bft) O-SO 112 1 min 0,000 mm 3,7 UV-I 763 W/m 8,1 C 15,1 C 38,6 km/h (5 Bft) 100,00 %
03.06.2023 11:16 15,2 C 62 % 1018,8 hPa 0,0 l/m 30,6 km/h (5 Bft) O-SO 112 1 min 0,000 mm 3,6 UV-I 761 W/m 8,0 C 15,2 C 41,8 km/h (6 Bft) 100,00 %
03.06.2023 11:15 15,2 C 63 % 1018,7 hPa 0,0 l/m 19,3 km/h (3 Bft) O-SO 112 1 min 0,000 mm 3,6 UV-I 761 W/m 8,2 C 15,2 C 25,7 km/h (4 Bft) 100,00 %
03.06.2023 11:14 15,2 C 62 % 1018,7 hPa 0,0 l/m 24,1 km/h (4 Bft) SO 135 1 min 0,000 mm 3,6 UV-I 759 W/m 8,0 C 15,2 C 33,8 km/h (5 Bft) 100,00 %
03.06.2023 11:13 15,2 C 62 % 1018,7 hPa 0,0 l/m 24,1 km/h (4 Bft) O-SO 112 1 min 0,000 mm 3,6 UV-I 756 W/m 8,0 C 15,2 C 32,2 km/h (5 Bft) 100,00 %
03.06.2023 11:12 15,2 C 64 % 1018,8 hPa 0,0 l/m 25,7 km/h (4 Bft) SO 135 1 min 0,000 mm 3,6 UV-I 754 W/m 8,4 C 15,2 C 38,6 km/h (5 Bft) 100,00 %
03.06.2023 11:11 15,2 C 64 % 1018,8 hPa 0,0 l/m 22,5 km/h (4 Bft) O-SO 112 1 min 0,000 mm 3,6 UV-I 756 W/m 8,4 C 15,2 C 32,2 km/h (5 Bft) 100,00 %
03.06.2023 11:10 15,2 C 64 % 1018,7 hPa 0,0 l/m 17,7 km/h (3 Bft) SO 135 1 min 0,000 mm 3,6 UV-I 756 W/m 8,4 C 15,2 C 27,4 km/h (4 Bft) 100,00 %
03.06.2023 11:09 15,2 C 63 % 1018,7 hPa 0,0 l/m 19,3 km/h (3 Bft) O-SO 112 1 min 0,000 mm 3,6 UV-I 751 W/m 8,2 C 15,2 C 25,7 km/h (4 Bft) 100,00 %
03.06.2023 11:08 15,1 C 62 % 1018,8 hPa 0,0 l/m 22,5 km/h (4 Bft) O-SO 112 1 min 0,000 mm 3,6 UV-I 749 W/m 7,9 C 15,1 C 32,2 km/h (5 Bft) 100,00 %
03.06.2023 11:07 15,1 C 62 % 1018,8 hPa 0,0 l/m 19,3 km/h (3 Bft) SO 135 1 min 0,000 mm 3,5 UV-I 749 W/m 7,9 C 15,1 C 27,4 km/h (4 Bft) 95,65 %
03.06.2023 11:06 15,1 C 63 % 1018,8 hPa 0,0 l/m 22,5 km/h (4 Bft) O-SO 112 1 min 0,000 mm 3,5 UV-I 749 W/m 8,1 C 15,1 C 29,0 km/h (5 Bft) 100,00 %
03.06.2023 11:05 15,1 C 63 % 1018,7 hPa 0,0 l/m 19,3 km/h (3 Bft) O-SO 112 1 min 0,000 mm 3,5 UV-I 747 W/m 8,1 C 15,1 C 24,1 km/h (4 Bft) 100,00 %
03.06.2023 11:04 15,0 C 63 % 1018,8 hPa 0,0 l/m 16,1 km/h (3 Bft) O-SO 112 1 min 0,000 mm 3,5 UV-I 747 W/m 8,0 C 15,0 C 24,1 km/h (4 Bft) 95,65 %
03.06.2023 11:03 15,0 C 63 % 1018,7 hPa 0,0 l/m 16,1 km/h (3 Bft) O-SO 112 1 min 0,000 mm 3,5 UV-I 745 W/m 8,0 C 15,0 C 22,5 km/h (4 Bft) 100,00 %
03.06.2023 11:02 14,9 C 62 % 1018,7 hPa 0,0 l/m 20,9 km/h (4 Bft) O-SO 112 1 min 0,000 mm 3,5 UV-I 740 W/m 7,7 C 14,9 C 30,6 km/h (5 Bft) 100,00 %
03.06.2023 11:01 14,9 C 62 % 1018,7 hPa 0,0 l/m 24,1 km/h (4 Bft) O-SO 112 1 min 0,000 mm 3,5 UV-I 738 W/m 7,7 C 14,9 C 37,0 km/h (5 Bft) 100,00 %
03.06.2023 11:00 14,9 C 62 % 1018,7 hPa 0,0 l/m 27,4 km/h (4 Bft) O-SO 112 1 min 0,457 mm 3,4 UV-I 738 W/m 7,7 C 14,9 C 32,2 km/h (5 Bft) 100,00 %
03.06.2023 10:59 14,9 C 64 % 1018,7 hPa 0,0 l/m 29,0 km/h (5 Bft) O-SO 112 1 min 0,000 mm 3,4 UV-I 735 W/m 8,2 C 14,9 C 45,1 km/h (6 Bft) 95,65 %
03.06.2023 10:58 14,9 C 63 % 1018,6 hPa 0,0 l/m 17,7 km/h (3 Bft) O-SO 112 1 min 0,000 mm 3,4 UV-I 737 W/m 7,9 C 14,9 C 25,7 km/h (4 Bft) 100,00 %
03.06.2023 10:57 14,8 C 63 % 1018,7 hPa 0,0 l/m 29,0 km/h (5 Bft) O-SO 112 1 min 0,000 mm 3,4 UV-I 737 W/m 7,8 C 14,8 C 41,8 km/h (6 Bft) 100,00 %
03.06.2023 10:56 14,8 C 64 % 1018,7 hPa 0,0 l/m 20,9 km/h (4 Bft) O-SO 112 1 min 0,000 mm 3,4 UV-I 733 W/m 8,1 C 14,8 C 30,6 km/h (5 Bft) 100,00 %
03.06.2023 10:55 14,8 C 63 % 1018,7 hPa 0,0 l/m 19,3 km/h (3 Bft) O-SO 112 1 min 0,000 mm 3,4 UV-I 729 W/m 7,8 C 14,8 C 25,7 km/h (4 Bft) 100,00 %
03.06.2023 10:54 14,7 C 64 % 1018,7 hPa 0,0 l/m 27,4 km/h (4 Bft) O-SO 112 1 min 0,000 mm 3,4 UV-I 729 W/m 8,0 C 14,7 C 38,6 km/h (5 Bft) 100,00 %
03.06.2023 10:53 14,7 C 62 % 1018,6 hPa 0,0 l/m 24,1 km/h (4 Bft) O-SO 112 1 min 0,000 mm 3,3 UV-I 731 W/m 7,5 C 14,7 C 33,8 km/h (5 Bft) 100,00 %
03.06.2023 10:52 14,8 C 63 % 1018,6 hPa 0,0 l/m 29,0 km/h (5 Bft) O-SO 112 1 min 0,000 mm 3,3 UV-I 729 W/m 7,8 C 14,8 C 43,5 km/h (6 Bft) 100,00 %
03.06.2023 10:51 14,7 C 64 % 1018,7 hPa 0,0 l/m 25,7 km/h (4 Bft) O-SO 112 1 min 0,000 mm 3,3 UV-I 729 W/m 8,0 C 14,7 C 33,8 km/h (5 Bft) 100,00 %
03.06.2023 10:50 14,7 C 63 % 1018,7 hPa 0,0 l/m 27,4 km/h (4 Bft) O-SO 112 1 min 0,000 mm 3,3 UV-I 724 W/m 7,7 C 14,7 C 38,6 km/h (5 Bft) 100,00 %
03.06.2023 10:49 14,8 C 63 % 1018,7 hPa 0,0 l/m 29,0 km/h (5 Bft) O-SO 112 1 min 0,000 mm 3,3 UV-I 724 W/m 7,8 C 14,8 C 37,0 km/h (5 Bft) 100,00 %
03.06.2023 10:48 14,7 C 62 % 1018,7 hPa 0,0 l/m 25,7 km/h (4 Bft) O-SO 112 1 min 0,000 mm 3,3 UV-I 722 W/m 7,5 C 14,7 C 37,0 km/h (5 Bft) 100,00 %
03.06.2023 10:47 14,8 C 62 % 1018,8 hPa 0,0 l/m 25,7 km/h (4 Bft) O-SO 112 1 min 0,000 mm 3,3 UV-I 722 W/m 7,6 C 14,8 C 37,0 km/h (5 Bft) 100,00 %
03.06.2023 10:46 14,8 C 62 % 1018,8 hPa 0,0 l/m 27,4 km/h (4 Bft) O-SO 112 1 min 0,000 mm 3,3 UV-I 717 W/m 7,6 C 14,8 C 40,2 km/h (6 Bft) 100,00 %
03.06.2023 10:45 14,8 C 64 % 1018,8 hPa 0,0 l/m 22,5 km/h (4 Bft) O-SO 112 1 min 0,000 mm 3,2 UV-I 714 W/m 8,1 C 14,8 C 35,4 km/h (5 Bft) 100,00 %
03.06.2023 10:44 14,7 C 62 % 1018,7 hPa 0,0 l/m 29,0 km/h (5 Bft) O-SO 112 1 min 0,000 mm 3,2 UV-I 715 W/m 7,5 C 14,7 C 38,6 km/h (5 Bft) 100,00 %
03.06.2023 10:43 14,7 C 64 % 1018,7 hPa 0,0 l/m 22,5 km/h (4 Bft) O-SO 112 1 min 0,000 mm 3,2 UV-I 710 W/m 8,0 C 14,7 C 27,4 km/h (4 Bft) 95,65 %
03.06.2023 10:42 14,6 C 65 % 1018,8 hPa 0,0 l/m 19,3 km/h (3 Bft) O-SO 112 1 min 0,000 mm 3,2 UV-I 712 W/m 8,1 C 14,6 C 27,4 km/h (4 Bft) 100,00 %
03.06.2023 10:41 14,6 C 64 % 1018,8 hPa 0,0 l/m 19,3 km/h (3 Bft) O-SO 112 1 min 0,000 mm 3,2 UV-I 710 W/m 7,9 C 14,6 C 32,2 km/h (5 Bft) 100,00 %
03.06.2023 10:40 14,4 C 64 % 1018,7 hPa 0,0 l/m 20,9 km/h (4 Bft) O-SO 112 1 min 0,000 mm 3,2 UV-I 707 W/m 7,7 C 14,4 C 35,4 km/h (5 Bft) 100,00 %
03.06.2023 10:39 14,4 C 63 % 1018,7 hPa 0,0 l/m 24,1 km/h (4 Bft) O-SO 112 1 min 0,000 mm 3,2 UV-I 710 W/m 7,4 C 14,4 C 37,0 km/h (5 Bft) 100,00 %
03.06.2023 10:38 14,3 C 64 % 1018,8 hPa 0,0 l/m 27,4 km/h (4 Bft) SO 135 1 min 0,000 mm 3,1 UV-I 707 W/m 7,6 C 14,3 C 40,2 km/h (6 Bft) 100,00 %
03.06.2023 10:37 14,3 C 64 % 1018,7 hPa 0,0 l/m 25,7 km/h (4 Bft) O-SO 112 1 min 0,000 mm 3,1 UV-I 703 W/m 7,6 C 14,3 C 30,6 km/h (5 Bft) 100,00 %
03.06.2023 10:36 14,3 C 64 % 1018,7 hPa 0,0 l/m 24,1 km/h (4 Bft) O-SO 112 1 min 0,000 mm 3,1 UV-I 701 W/m 7,6 C 14,3 C 32,2 km/h (5 Bft) 100,00 %
03.06.2023 10:35 14,3 C 64 % 1018,7 hPa 0,0 l/m 25,7 km/h (4 Bft) O-SO 112 1 min 0,000 mm 3,1 UV-I 701 W/m 7,6 C 14,3 C 33,8 km/h (5 Bft) 100,00 %
03.06.2023 10:34 14,2 C 64 % 1018,7 hPa 0,0 l/m 24,1 km/h (4 Bft) SO 135 1 min 0,000 mm 3,1 UV-I 698 W/m 7,5 C 14,2 C 32,2 km/h (5 Bft) 100,00 %
03.06.2023 10:33 14,1 C 64 % 1018,6 hPa 0,0 l/m 25,7 km/h (4 Bft) O-SO 112 1 min 0,000 mm 3,1 UV-I 696 W/m 7,4 C 14,1 C 33,8 km/h (5 Bft) 100,00 %
03.06.2023 10:32 14,2 C 64 % 1018,8 hPa 0,0 l/m 29,0 km/h (5 Bft) O-SO 112 1 min 0,000 mm 3,1 UV-I 694 W/m 7,5 C 14,2 C 38,6 km/h (5 Bft) 100,00 %
03.06.2023 10:31 14,1 C 63 % 1018,7 hPa 0,0 l/m 24,1 km/h (4 Bft) O-SO 112 1 min 0,000 mm 3,1 UV-I 693 W/m 7,2 C 14,1 C 35,4 km/h (5 Bft) 100,00 %
03.06.2023 10:30 14,1 C 64 % 1018,7 hPa 0,0 l/m 27,4 km/h (4 Bft) O-SO 112 1 min 0,000 mm 3,1 UV-I 694 W/m 7,4 C 14,1 C 38,6 km/h (5 Bft) 100,00 %
03.06.2023 10:29 14,1 C 63 % 1018,7 hPa 0,0 l/m 25,7 km/h (4 Bft) O-SO 112 1 min 0,000 mm 3,0 UV-I 689 W/m 7,2 C 14,1 C 40,2 km/h (6 Bft) 100,00 %
03.06.2023 10:28 14,1 C 64 % 1018,6 hPa 0,0 l/m 32,2 km/h (5 Bft) O-SO 112 1 min 0,000 mm 3,0 UV-I 686 W/m 7,4 C 14,1 C 43,5 km/h (6 Bft) 100,00 %
03.06.2023 10:27 14,1 C 65 % 1018,7 hPa 0,0 l/m 22,5 km/h (4 Bft) O-SO 112 1 min 0,000 mm 3,0 UV-I 686 W/m 7,6 C 14,1 C 38,6 km/h (5 Bft) 100,00 %
03.06.2023 10:26 14,1 C 65 % 1018,6 hPa 0,0 l/m 29,0 km/h (5 Bft) O-SO 112 1 min 0,000 mm 3,0 UV-I 684 W/m 7,6 C 14,1 C 41,8 km/h (6 Bft) 100,00 %
03.06.2023 10:25 14,1 C 66 % 1018,7 hPa 0,0 l/m 27,4 km/h (4 Bft) O-SO 112 1 min 0,000 mm 3,0 UV-I 686 W/m 7,8 C 14,1 C 37,0 km/h (5 Bft) 100,00 %
03.06.2023 10:24 14,0 C 65 % 1018,6 hPa 0,0 l/m 22,5 km/h (4 Bft) O-SO 112 1 min 0,000 mm 3,0 UV-I 680 W/m 7,5 C 14,0 C 27,4 km/h (4 Bft) 100,00 %
03.06.2023 10:23 13,9 C 64 % 1018,7 hPa 0,0 l/m 24,1 km/h (4 Bft) O-SO 112 1 min 0,000 mm 2,9 UV-I 679 W/m 7,2 C 13,9 C 35,4 km/h (5 Bft) 91,30 %
03.06.2023 10:22 13,9 C 63 % 1018,7 hPa 0,0 l/m 25,7 km/h (4 Bft) O-SO 112 1 min 0,000 mm 2,9 UV-I 675 W/m 7,0 C 13,9 C 38,6 km/h (5 Bft) 100,00 %
03.06.2023 10:21 14,0 C 64 % 1018,6 hPa 0,0 l/m 30,6 km/h (5 Bft) O-SO 112 1 min 0,000 mm 2,9 UV-I 670 W/m 7,3 C 14,0 C 41,8 km/h (6 Bft) 95,65 %
03.06.2023 10:20 14,0 C 64 % 1018,7 hPa 0,0 l/m 27,4 km/h (4 Bft) O-SO 112 1 min 0,000 mm 2,9 UV-I 673 W/m 7,3 C 14,0 C 46,7 km/h (6 Bft) 100,00 %
03.06.2023 10:19 14,0 C 66 % 1018,7 hPa 0,0 l/m 27,4 km/h (4 Bft) O-SO 112 1 min 0,000 mm 2,9 UV-I 671 W/m 7,7 C 14,0 C 38,6 km/h (5 Bft) 95,65 %
03.06.2023 10:18 13,9 C 64 % 1018,6 hPa 0,0 l/m 20,9 km/h (4 Bft) O-SO 112 1 min 0,000 mm 2,9 UV-I 670 W/m 7,2 C 13,9 C 33,8 km/h (5 Bft) 100,00 %
03.06.2023 10:17 14,0 C 65 % 1018,7 hPa 0,0 l/m 30,6 km/h (5 Bft) O-SO 112 1 min 0,000 mm 2,8 UV-I 668 W/m 7,5 C 14,0 C 43,5 km/h (6 Bft) 100,00 %
03.06.2023 10:16 13,9 C 64 % 1018,7 hPa 0,0 l/m 24,1 km/h (4 Bft) O-SO 112 1 min 0,000 mm 2,8 UV-I 661 W/m 7,2 C 13,9 C 38,6 km/h (5 Bft) 100,00 %
03.06.2023 10:15 14,0 C 64 % 1018,6 hPa 0,0 l/m 25,7 km/h (4 Bft) O-SO 112 1 min 0,000 mm 2,8 UV-I 657 W/m 7,3 C 14,0 C 41,8 km/h (6 Bft) 100,00 %
03.06.2023 10:14 14,1 C 65 % 1018,6 hPa 0,0 l/m 25,7 km/h (4 Bft) O-SO 112 1 min 0,000 mm 2,8 UV-I 659 W/m 7,6 C 14,1 C 40,2 km/h (6 Bft) 100,00 %
03.06.2023 10:13 14,1 C 64 % 1018,7 hPa 0,0 l/m 24,1 km/h (4 Bft) O-SO 112 1 min 0,000 mm 2,8 UV-I 657 W/m 7,4 C 14,1 C 32,2 km/h (5 Bft) 100,00 %
03.06.2023 10:12 14,1 C 64 % 1018,7 hPa 0,0 l/m 27,4 km/h (4 Bft) O-SO 112 1 min 0,000 mm 2,7 UV-I 654 W/m 7,4 C 14,1 C 40,2 km/h (6 Bft) 100,00 %
03.06.2023 10:11 14,2 C 64 % 1018,7 hPa 0,0 l/m 27,4 km/h (4 Bft) O-SO 112 1 min 0,000 mm 2,7 UV-I 645 W/m 7,5 C 14,2 C 40,2 km/h (6 Bft) 100,00 %
03.06.2023 10:10 14,3 C 64 % 1018,7 hPa 0,0 l/m 29,0 km/h (5 Bft) O-SO 112 1 min 0,000 mm 2,7 UV-I 650 W/m 7,6 C 14,3 C 38,6 km/h (5 Bft) 100,00 %
03.06.2023 10:09 14,3 C 65 % 1018,7 hPa 0,0 l/m 25,7 km/h (4 Bft) O-SO 112 1 min 0,000 mm 2,7 UV-I 645 W/m 7,8 C 14,3 C 33,8 km/h (5 Bft) 95,65 %
03.06.2023 10:08 14,3 C 66 % 1018,7 hPa 0,0 l/m 22,5 km/h (4 Bft) SO 135 1 min 0,000 mm 2,7 UV-I 645 W/m 8,0 C 14,3 C 30,6 km/h (5 Bft) 100,00 %
03.06.2023 10:07 14,3 C 67 % 1018,8 hPa 0,0 l/m 16,1 km/h (3 Bft) O-SO 112 1 min 0,000 mm 2,7 UV-I 640 W/m 8,3 C 14,3 C 24,1 km/h (4 Bft) 91,30 %
03.06.2023 10:06 14,3 C 66 % 1018,6 hPa 0,0 l/m 16,1 km/h (3 Bft) SO 135 1 min 0,000 mm 2,6 UV-I 640 W/m 8,0 C 14,3 C 24,1 km/h (4 Bft) 100,00 %
03.06.2023 10:05 14,2 C 66 % 1018,8 hPa 0,0 l/m 17,7 km/h (3 Bft) O-SO 112 1 min 0,000 mm 2,6 UV-I 636 W/m 7,9 C 14,2 C 30,6 km/h (5 Bft) 100,00 %
03.06.2023 10:04 14,2 C 66 % 1018,6 hPa 0,0 l/m 22,5 km/h (4 Bft) O-SO 112 1 min 0,000 mm 2,6 UV-I 635 W/m 7,9 C 14,2 C 29,0 km/h (5 Bft) 95,65 %
03.06.2023 10:03 14,2 C 66 % 1018,7 hPa 0,0 l/m 24,1 km/h (4 Bft) SO 135 1 min 0,000 mm 2,6 UV-I 629 W/m 7,9 C 14,2 C 33,8 km/h (5 Bft) 100,00 %
03.06.2023 10:02 14,1 C 68 % 1018,6 hPa 0,0 l/m 20,9 km/h (4 Bft) O-SO 112 1 min 0,000 mm 2,6 UV-I 629 W/m 8,3 C 14,1 C 27,4 km/h (4 Bft) 100,00 %
03.06.2023 10:01 14,1 C 68 % 1018,7 hPa 0,0 l/m 19,3 km/h (3 Bft) O-SO 112 1 min 0,000 mm 2,6 UV-I 626 W/m 8,3 C 14,1 C 30,6 km/h (5 Bft) 95,65 %
03.06.2023 10:00 14,0 C 68 % 1018,7 hPa 0,0 l/m 20,9 km/h (4 Bft) O-SO 112 1 min 0,356 mm 2,5 UV-I 624 W/m 8,2 C 14,0 C 30,6 km/h (5 Bft) 100,00 %
03.06.2023 09:59 13,9 C 68 % 1018,7 hPa 0,0 l/m 22,5 km/h (4 Bft) O-SO 112 1 min 0,000 mm 2,5 UV-I 621 W/m 8,1 C 13,9 C 33,8 km/h (5 Bft) 100,00 %
03.06.2023 09:58 13,9 C 68 % 1018,6 hPa 0,0 l/m 19,3 km/h (3 Bft) O-SO 112 1 min 0,000 mm 2,5 UV-I 619 W/m 8,1 C 13,9 C 32,2 km/h (5 Bft) 100,00 %
03.06.2023 09:57 13,8 C 68 % 1018,7 hPa 0,0 l/m 20,9 km/h (4 Bft) O-SO 112 1 min 0,000 mm 2,5 UV-I 615 W/m 8,0 C 13,8 C 25,7 km/h (4 Bft) 100,00 %
03.06.2023 09:56 13,8 C 67 % 1018,7 hPa 0,0 l/m 20,9 km/h (4 Bft) O-SO 112 1 min 0,000 mm 2,5 UV-I 613 W/m 7,8 C 13,8 C 27,4 km/h (4 Bft) 100,00 %
03.06.2023 09:55 13,8 C 68 % 1018,7 hPa 0,0 l/m 25,7 km/h (4 Bft) O-SO 112 1 min 0,000 mm 2,5 UV-I 613 W/m 8,0 C 13,8 C 38,6 km/h (5 Bft) 100,00 %
03.06.2023 09:54 13,8 C 68 % 1018,6 hPa 0,0 l/m 19,3 km/h (3 Bft) SO 135 1 min 0,000 mm 2,4 UV-I 613 W/m 8,0 C 13,8 C 29,0 km/h (5 Bft) 100,00 %
03.06.2023 09:53 13,8 C 68 % 1018,7 hPa 0,0 l/m 25,7 km/h (4 Bft) O-SO 112 1 min 0,000 mm 2,4 UV-I 608 W/m 8,0 C 13,8 C 37,0 km/h (5 Bft) 100,00 %
03.06.2023 09:52 13,7 C 70 % 1018,7 hPa 0,0 l/m 20,9 km/h (4 Bft) O-SO 112 1 min 0,000 mm 2,4 UV-I 605 W/m 8,3 C 13,7 C 32,2 km/h (5 Bft) 95,65 %
03.06.2023 09:51 13,6 C 70 % 1018,6 hPa 0,0 l/m 22,5 km/h (4 Bft) O-SO 112 1 min 0,000 mm 2,4 UV-I 605 W/m 8,2 C 13,6 C 32,2 km/h (5 Bft) 100,00 %
03.06.2023 09:50 13,5 C 71 % 1018,7 hPa 0,0 l/m 19,3 km/h (3 Bft) O-SO 112 1 min 0,000 mm 2,4 UV-I 601 W/m 8,3 C 13,5 C 29,0 km/h (5 Bft) 95,65 %
03.06.2023 09:49 13,4 C 71 % 1018,6 hPa 0,0 l/m 17,7 km/h (3 Bft) O-SO 112 1 min 0,000 mm 2,4 UV-I 601 W/m 8,3 C 13,4 C 25,7 km/h (4 Bft) 100,00 %
03.06.2023 09:48 13,3 C 70 % 1018,6 hPa 0,0 l/m 16,1 km/h (3 Bft) O-SO 112 1 min 0,000 mm 2,3 UV-I 599 W/m 7,9 C 13,3 C 20,9 km/h (4 Bft) 100,00 %
03.06.2023 09:47 13,2 C 69 % 1018,6 hPa 0,0 l/m 22,5 km/h (4 Bft) O-SO 112 1 min 0,000 mm 2,3 UV-I 596 W/m 7,6 C 13,2 C 32,2 km/h (5 Bft) 100,00 %
03.06.2023 09:46 13,3 C 69 % 1018,6 hPa 0,0 l/m 22,5 km/h (4 Bft) O-SO 112 1 min 0,000 mm 2,3 UV-I 592 W/m 7,7 C 13,3 C 30,6 km/h (5 Bft) 100,00 %
03.06.2023 09:45 13,2 C 70 % 1018,7 hPa 0,0 l/m 22,5 km/h (4 Bft) O-SO 112 1 min 0,000 mm 2,3 UV-I 591 W/m 7,9 C 13,2 C 30,6 km/h (5 Bft) 95,65 %
03.06.2023 09:44 13,2 C 70 % 1018,7 hPa 0,0 l/m 25,7 km/h (4 Bft) O-SO 112 1 min 0,000 mm 2,3 UV-I 589 W/m 7,9 C 13,2 C 32,2 km/h (5 Bft) 100,00 %
03.06.2023 09:43 13,2 C 69 % 1018,6 hPa 0,0 l/m 25,7 km/h (4 Bft) O-SO 112 1 min 0,000 mm 2,3 UV-I 587 W/m 7,6 C 13,2 C 33,8 km/h (5 Bft) 100,00 %
03.06.2023 09:42 13,2 C 70 % 1018,5 hPa 0,0 l/m 25,7 km/h (4 Bft) O 90 1 min 0,000 mm 2,2 UV-I 585 W/m 7,9 C 13,2 C 37,0 km/h (5 Bft) 95,65 %
03.06.2023 09:41 13,2 C 70 % 1018,5 hPa 0,0 l/m 27,4 km/h (4 Bft) O-SO 112 1 min 0,000 mm 2,2 UV-I 584 W/m 7,9 C 13,2 C 37,0 km/h (5 Bft) 100,00 %
03.06.2023 09:40 13,2 C 70 % 1018,6 hPa 0,0 l/m 29,0 km/h (5 Bft) O-SO 112 1 min 0,000 mm 2,2 UV-I 580 W/m 7,9 C 13,2 C 40,2 km/h (6 Bft) 95,65 %
03.06.2023 09:39 13,2 C 70 % 1018,5 hPa 0,0 l/m 24,1 km/h (4 Bft) O-SO 112 1 min 0,000 mm 2,2 UV-I 580 W/m 7,9 C 13,2 C 35,4 km/h (5 Bft) 100,00 %
03.06.2023 09:38 13,2 C 69 % 1018,5 hPa 0,0 l/m 25,7 km/h (4 Bft) O-SO 112 1 min 0,000 mm 2,2 UV-I 578 W/m 7,6 C 13,2 C 37,0 km/h (5 Bft) 95,65 %
03.06.2023 09:37 13,2 C 69 % 1018,6 hPa 0,0 l/m 29,0 km/h (5 Bft) O-SO 112 1 min 0,000 mm 2,2 UV-I 575 W/m 7,6 C 13,2 C 41,8 km/h (6 Bft) 100,00 %
03.06.2023 09:36 13,3 C 70 % 1018,6 hPa 0,0 l/m 24,1 km/h (4 Bft) O-SO 112 1 min 0,000 mm 2,2 UV-I 571 W/m 7,9 C 13,3 C 32,2 km/h (5 Bft) 100,00 %
03.06.2023 09:35 13,2 C 70 % 1018,5 hPa 0,0 l/m 27,4 km/h (4 Bft) O-SO 112 1 min 0,000 mm 2,2 UV-I 566 W/m 7,9 C 13,2 C 33,8 km/h (5 Bft) 95,65 %
03.06.2023 09:34 13,2 C 71 % 1018,6 hPa 0,0 l/m 20,9 km/h (4 Bft) O-SO 112 1 min 0,000 mm 2,1 UV-I 564 W/m 8,1 C 13,2 C 32,2 km/h (5 Bft) 100,00 %
03.06.2023 09:33 13,2 C 71 % 1018,5 hPa 0,0 l/m 24,1 km/h (4 Bft) O-SO 112 1 min 0,000 mm 2,1 UV-I 563 W/m 8,1 C 13,2 C 37,0 km/h (5 Bft) 100,00 %
03.06.2023 09:32 13,2 C 72 % 1018,5 hPa 0,0 l/m 22,5 km/h (4 Bft) O-SO 112 1 min 0,000 mm 2,1 UV-I 559 W/m 8,3 C 13,2 C 30,6 km/h (5 Bft) 95,65 %
03.06.2023 09:31 13,2 C 71 % 1018,7 hPa 0,0 l/m 24,1 km/h (4 Bft) SO 135 1 min 0,000 mm 2,1 UV-I 559 W/m 8,1 C 13,2 C 29,0 km/h (5 Bft) 100,00 %
03.06.2023 09:30 13,2 C 72 % 1018,6 hPa 0,0 l/m 25,7 km/h (4 Bft) O-SO 112 1 min 0,000 mm 2,1 UV-I 557 W/m 8,3 C 13,2 C 33,8 km/h (5 Bft) 100,00 %
03.06.2023 09:29 13,1 C 71 % 1018,6 hPa 0,0 l/m 24,1 km/h (4 Bft) SO 135 1 min 0,000 mm 2,1 UV-I 554 W/m 8,0 C 13,1 C 30,6 km/h (5 Bft) 100,00 %
03.06.2023 09:28 13,2 C 71 % 1018,5 hPa 0,0 l/m 24,1 km/h (4 Bft) O-SO 112 1 min 0,000 mm 2,1 UV-I 550 W/m 8,1 C 13,2 C 35,4 km/h (5 Bft) 95,65 %
03.06.2023 09:27 13,2 C 72 % 1018,6 hPa 0,0 l/m 27,4 km/h (4 Bft) SO 135 1 min 0,000 mm 2,0 UV-I 548 W/m 8,3 C 13,2 C 41,8 km/h (6 Bft) 100,00 %
03.06.2023 09:26 13,2 C 71 % 1018,5 hPa 0,0 l/m 20,9 km/h (4 Bft) O-SO 112 1 min 0,000 mm 2,0 UV-I 547 W/m 8,1 C 13,2 C 27,4 km/h (4 Bft) 100,00 %
03.06.2023 09:25 13,1 C 71 % 1018,5 hPa 0,0 l/m 22,5 km/h (4 Bft) O-SO 112 1 min 0,000 mm 2,0 UV-I 545 W/m 8,0 C 13,1 C 30,6 km/h (5 Bft) 100,00 %
03.06.2023 09:24 13,1 C 70 % 1018,6 hPa 0,0 l/m 24,1 km/h (4 Bft) O-SO 112 1 min 0,000 mm 2,0 UV-I 538 W/m 7,8 C 13,1 C 32,2 km/h (5 Bft) 100,00 %
03.06.2023 09:23 13,2 C 71 % 1018,5 hPa 0,0 l/m 22,5 km/h (4 Bft) O-SO 112 1 min 0,000 mm 2,0 UV-I 536 W/m 8,1 C 13,2 C 33,8 km/h (5 Bft) 100,00 %
03.06.2023 09:22 13,2 C 71 % 1018,6 hPa 0,0 l/m 22,5 km/h (4 Bft) O-SO 112 1 min 0,000 mm 2,0 UV-I 534 W/m 8,1 C 13,2 C 30,6 km/h (5 Bft) 100,00 %
03.06.2023 09:21 13,2 C 71 % 1018,6 hPa 0,0 l/m 25,7 km/h (4 Bft) O-SO 112 1 min 0,000 mm 1,9 UV-I 533 W/m 8,1 C 13,2 C 35,4 km/h (5 Bft) 95,65 %
03.06.2023 09:20 13,1 C 72 % 1018,6 hPa 0,0 l/m 20,9 km/h (4 Bft) SO 135 1 min 0,000 mm 1,9 UV-I 531 W/m 8,2 C 13,1 C 32,2 km/h (5 Bft) 100,00 %
03.06.2023 09:19 13,1 C 74 % 1018,6 hPa 0,0 l/m 19,3 km/h (3 Bft) O-SO 112 1 min 0,000 mm 1,9 UV-I 529 W/m 8,6 C 13,1 C 33,8 km/h (5 Bft) 100,00 %
03.06.2023 09:18 12,9 C 73 % 1018,6 hPa 0,0 l/m 17,7 km/h (3 Bft) O-SO 112 1 min 0,000 mm 1,9 UV-I 524 W/m 8,2 C 12,9 C 27,4 km/h (4 Bft) 100,00 %
03.06.2023 09:17 12,9 C 73 % 1018,6 hPa 0,0 l/m 20,9 km/h (4 Bft) O-SO 112 1 min 0,000 mm 1,9 UV-I 520 W/m 8,2 C 12,9 C 27,4 km/h (4 Bft) 100,00 %
03.06.2023 09:16 12,8 C 72 % 1018,6 hPa 0,0 l/m 17,7 km/h (3 Bft) O-SO 112 1 min 0,000 mm 1,9 UV-I 517 W/m 7,9 C 12,8 C 30,6 km/h (5 Bft) 91,30 %
03.06.2023 09:15 12,8 C 72 % 1018,6 hPa 0,0 l/m 24,1 km/h (4 Bft) O-SO 112 1 min 0,000 mm 1,8 UV-I 515 W/m 7,9 C 12,8 C 37,0 km/h (5 Bft) 100,00 %
03.06.2023 09:14 12,8 C 72 % 1018,6 hPa 0,0 l/m 29,0 km/h (5 Bft) O-SO 112 1 min 0,000 mm 1,8 UV-I 513 W/m 7,9 C 12,8 C 40,2 km/h (6 Bft) 100,00 %
03.06.2023 09:13 12,8 C 73 % 1018,6 hPa 0,0 l/m 20,9 km/h (4 Bft) O-SO 112 1 min 0,000 mm 1,8 UV-I 510 W/m 8,1 C 12,8 C 35,4 km/h (5 Bft) 100,00 %
03.06.2023 09:12 12,7 C 73 % 1018,5 hPa 0,0 l/m 22,5 km/h (4 Bft) O 90 1 min 0,000 mm 1,8 UV-I 508 W/m 8,0 C 12,7 C 37,0 km/h (5 Bft) 100,00 %
03.06.2023 09:11 12,7 C 72 % 1018,5 hPa 0,0 l/m 22,5 km/h (4 Bft) O-SO 112 1 min 0,000 mm 1,8 UV-I 506 W/m 7,8 C 12,7 C 29,0 km/h (5 Bft) 100,00 %
03.06.2023 09:10 12,6 C 73 % 1018,7 hPa 0,0 l/m 20,9 km/h (4 Bft) O-SO 112 1 min 0,000 mm 1,8 UV-I 501 W/m 7,9 C 12,6 C 27,4 km/h (4 Bft) 100,00 %
03.06.2023 09:09 12,6 C 72 % 1018,6 hPa 0,0 l/m 24,1 km/h (4 Bft) O-SO 112 1 min 0,000 mm 1,8 UV-I 501 W/m 7,7 C 12,6 C 35,4 km/h (5 Bft) 100,00 %
03.06.2023 09:08 12,7 C 72 % 1018,6 hPa 0,0 l/m 29,0 km/h (5 Bft) SO 135 1 min 0,000 mm 1,7 UV-I 499 W/m 7,8 C 12,7 C 35,4 km/h (5 Bft) 95,65 %
03.06.2023 09:07 12,6 C 73 % 1018,6 hPa 0,0 l/m 20,9 km/h (4 Bft) O-SO 112 1 min 0,000 mm 1,7 UV-I 497 W/m 7,9 C 12,6 C 29,0 km/h (5 Bft) 100,00 %
03.06.2023 09:06 12,6 C 73 % 1018,5 hPa 0,0 l/m 25,7 km/h (4 Bft) O-SO 112 1 min 0,000 mm 1,7 UV-I 492 W/m 7,9 C 12,6 C 32,2 km/h (5 Bft) 100,00 %
03.06.2023 09:05 12,6 C 73 % 1018,5 hPa 0,0 l/m 24,1 km/h (4 Bft) O-SO 112 1 min 0,000 mm 1,7 UV-I 492 W/m 7,9 C 12,6 C 29,0 km/h (5 Bft) 100,00 %
03.06.2023 09:04 12,6 C 73 % 1018,5 hPa 0,0 l/m 27,4 km/h (4 Bft) O-SO 112 1 min 0,000 mm 1,7 UV-I 490 W/m 7,9 C 12,6 C 37,0 km/h (5 Bft) 91,30 %
03.06.2023 09:03 12,5 C 73 % 1018,5 hPa 0,0 l/m 20,9 km/h (4 Bft) O-SO 112 1 min 0,000 mm 1,7 UV-I 487 W/m 7,8 C 12,5 C 27,4 km/h (4 Bft) 100,00 %
03.06.2023 09:02 12,5 C 73 % 1018,6 hPa 0,0 l/m 29,0 km/h (5 Bft) O-SO 112 1 min 0,000 mm 1,6 UV-I 483 W/m 7,8 C 12,5 C 33,8 km/h (5 Bft) 95,65 %
03.06.2023 09:01 12,4 C 74 % 1018,6 hPa 0,0 l/m 22,5 km/h (4 Bft) O-SO 112 1 min 0,000 mm 1,6 UV-I 482 W/m 7,9 C 12,4 C 29,0 km/h (5 Bft) 100,00 %
03.06.2023 09:00 12,4 C 73 % 1018,4 hPa 0,0 l/m 24,1 km/h (4 Bft) O-SO 112 1 min 0,229 mm 1,6 UV-I 475 W/m 7,7 C 12,4 C 35,4 km/h (5 Bft) 100,00 %
03.06.2023 08:59 12,4 C 75 % 1018,6 hPa 0,0 l/m 19,3 km/h (3 Bft) O-SO 112 1 min 0,000 mm 1,6 UV-I 476 W/m 8,1 C 12,4 C 25,7 km/h (4 Bft) 95,65 %
03.06.2023 08:58 12,3 C 73 % 1018,5 hPa 0,0 l/m 22,5 km/h (4 Bft) O-SO 112 1 min 0,000 mm 1,6 UV-I 476 W/m 7,6 C 12,3 C 30,6 km/h (5 Bft) 100,00 %
03.06.2023 08:57 12,3 C 74 % 1018,5 hPa 0,0 l/m 25,7 km/h (4 Bft) SO 135 1 min 0,000 mm 1,6 UV-I 471 W/m 7,8 C 12,3 C 32,2 km/h (5 Bft) 95,65 %
03.06.2023 08:56 12,3 C 73 % 1018,5 hPa 0,0 l/m 25,7 km/h (4 Bft) O-SO 112 1 min 0,000 mm 1,6 UV-I 471 W/m 7,6 C 12,3 C 38,6 km/h (5 Bft) 95,65 %
03.06.2023 08:55 12,4 C 73 % 1018,4 hPa 0,0 l/m 27,4 km/h (4 Bft) O-SO 112 1 min 0,000 mm 1,6 UV-I 469 W/m 7,7 C 12,4 C 37,0 km/h (5 Bft) 100,00 %
03.06.2023 08:54 12,3 C 73 % 1018,5 hPa 0,0 l/m 20,9 km/h (4 Bft) SO 135 1 min 0,000 mm 1,5 UV-I 466 W/m 7,6 C 12,3 C 27,4 km/h (4 Bft) 95,65 %
03.06.2023 08:53 12,3 C 73 % 1018,6 hPa 0,0 l/m 24,1 km/h (4 Bft) O-SO 112 1 min 0,000 mm 1,5 UV-I 462 W/m 7,6 C 12,3 C 32,2 km/h (5 Bft) 100,00 %
03.06.2023 08:52 12,4 C 74 % 1018,4 hPa 0,0 l/m 24,1 km/h (4 Bft) O-SO 112 1 min 0,000 mm 1,5 UV-I 461 W/m 7,9 C 12,4 C 35,4 km/h (5 Bft) 95,65 %
03.06.2023 08:51 12,3 C 74 % 1018,5 hPa 0,0 l/m 19,3 km/h (3 Bft) O-SO 112 1 min 0,000 mm 1,5 UV-I 455 W/m 7,8 C 12,3 C 25,7 km/h (4 Bft) 100,00 %
03.06.2023 08:50 12,3 C 73 % 1018,5 hPa 0,0 l/m 22,5 km/h (4 Bft) O-SO 112 1 min 0,000 mm 1,5 UV-I 452 W/m 7,6 C 12,3 C 35,4 km/h (5 Bft) 100,00 %
03.06.2023 08:49 12,3 C 74 % 1018,5 hPa 0,0 l/m 24,1 km/h (4 Bft) O-SO 112 1 min 0,000 mm 1,5 UV-I 446 W/m 7,8 C 12,3 C 32,2 km/h (5 Bft) 95,65 %
03.06.2023 08:48 12,3 C 74 % 1018,5 hPa 0,0 l/m 22,5 km/h (4 Bft) O-SO 112 1 min 0,000 mm 1,5 UV-I 446 W/m 7,8 C 12,3 C 35,4 km/h (5 Bft) 100,00 %
03.06.2023 08:47 12,2 C 75 % 1018,5 hPa 0,0 l/m 22,5 km/h (4 Bft) O-SO 112 1 min 0,000 mm 1,4 UV-I 445 W/m 7,9 C 12,2 C 33,8 km/h (5 Bft) 100,00 %
03.06.2023 08:46 12,2 C 74 % 1018,4 hPa 0,0 l/m 24,1 km/h (4 Bft) O-SO 112 1 min 0,000 mm 1,4 UV-I 438 W/m 7,7 C 12,2 C 33,8 km/h (5 Bft) 100,00 %
03.06.2023 08:45 12,2 C 74 % 1018,3 hPa 0,0 l/m 24,1 km/h (4 Bft) O-SO 112 1 min 0,000 mm 1,4 UV-I 436 W/m 7,7 C 12,2 C 29,0 km/h (5 Bft) 100,00 %
03.06.2023 08:44 12,2 C 75 % 1018,5 hPa 0,0 l/m 20,9 km/h (4 Bft) O-SO 112 1 min 0,000 mm 1,4 UV-I 434 W/m 7,9 C 12,2 C 30,6 km/h (5 Bft) 100,00 %
03.06.2023 08:43 12,1 C 76 % 1018,5 hPa 0,0 l/m 19,3 km/h (3 Bft) O-SO 112 1 min 0,000 mm 1,4 UV-I 429 W/m 8,0 C 12,1 C 30,6 km/h (5 Bft) 100,00 %
03.06.2023 08:42 12,1 C 75 % 1018,4 hPa 0,0 l/m 22,5 km/h (4 Bft) O-SO 112 1 min 0,000 mm 1,4 UV-I 427 W/m 7,8 C 12,1 C 29,0 km/h (5 Bft) 100,00 %
03.06.2023 08:41 12,1 C 74 % 1018,5 hPa 0,0 l/m 22,5 km/h (4 Bft) O-SO 112 1 min 0,000 mm 1,3 UV-I 418 W/m 7,6 C 12,1 C 33,8 km/h (5 Bft) 100,00 %
03.06.2023 08:40 12,1 C 75 % 1018,5 hPa 0,0 l/m 24,1 km/h (4 Bft) O-SO 112 1 min 0,000 mm 1,3 UV-I 417 W/m 7,8 C 12,1 C 32,2 km/h (5 Bft) 100,00 %
03.06.2023 08:39 12,1 C 75 % 1018,4 hPa 0,0 l/m 22,5 km/h (4 Bft) SO 135 1 min 0,000 mm 1,3 UV-I 411 W/m 7,8 C 12,1 C 35,4 km/h (5 Bft) 100,00 %
03.06.2023 08:38 12,0 C 75 % 1018,4 hPa 0,0 l/m 25,7 km/h (4 Bft) O-SO 112 1 min 0,000 mm 1,3 UV-I 404 W/m 7,7 C 12,0 C 33,8 km/h (5 Bft) 100,00 %
03.06.2023 08:37 12,0 C 76 % 1018,4 hPa 0,0 l/m 22,5 km/h (4 Bft) O-SO 112 1 min 0,000 mm 1,3 UV-I 390 W/m 7,9 C 12,0 C 33,8 km/h (5 Bft) 100,00 %
03.06.2023 08:36 12,0 C 75 % 1018,5 hPa 0,0 l/m 24,1 km/h (4 Bft) O-SO 112 1 min 0,000 mm 1,3 UV-I 385 W/m 7,7 C 12,0 C 33,8 km/h (5 Bft) 100,00 %
03.06.2023 08:35 11,9 C 75 % 1018,4 hPa 0,0 l/m 24,1 km/h (4 Bft) O-SO 112 1 min 0,000 mm 1,3 UV-I 374 W/m 7,6 C 11,9 C 32,2 km/h (5 Bft) 100,00 %
03.06.2023 08:34 11,9 C 74 % 1018,4 hPa 0,0 l/m 22,5 km/h (4 Bft) O-SO 112 1 min 0,000 mm 1,3 UV-I 348 W/m 7,4 C 11,9 C 29,0 km/h (5 Bft) 100,00 %
03.06.2023 08:33 12,0 C 74 % 1018,4 hPa 0,0 l/m 24,1 km/h (4 Bft) O-SO 112 1 min 0,000 mm 1,3 UV-I 348 W/m 7,5 C 12,0 C 30,6 km/h (5 Bft) 91,30 %
03.06.2023 08:32 12,0 C 75 % 1018,4 hPa 0,0 l/m 25,7 km/h (4 Bft) O-SO 112 1 min 0,000 mm 1,2 UV-I 345 W/m 7,7 C 12,0 C 33,8 km/h (5 Bft) 100,00 %
03.06.2023 08:31 12,0 C 75 % 1018,3 hPa 0,0 l/m 24,1 km/h (4 Bft) O-SO 112 1 min 0,000 mm 1,2 UV-I 332 W/m 7,7 C 12,0 C 30,6 km/h (5 Bft) 100,00 %
03.06.2023 08:30 12,1 C 76 % 1018,4 hPa 0,0 l/m 25,7 km/h (4 Bft) O-SO 112 1 min 0,000 mm 1,2 UV-I 339 W/m 8,0 C 12,1 C 32,2 km/h (5 Bft) 100,00 %
03.06.2023 08:29 12,0 C 76 % 1018,3 hPa 0,0 l/m 24,1 km/h (4 Bft) O-SO 112 1 min 0,000 mm 1,2 UV-I 325 W/m 7,9 C 12,0 C 37,0 km/h (5 Bft) 95,65 %
03.06.2023 08:28 12,0 C 75 % 1018,4 hPa 0,0 l/m 19,3 km/h (3 Bft) SO 135 1 min 0,000 mm 1,2 UV-I 325 W/m 7,7 C 12,0 C 29,0 km/h (5 Bft) 100,00 %
03.06.2023 08:27 12,0 C 76 % 1018,3 hPa 0,0 l/m 20,9 km/h (4 Bft) O-SO 112 1 min 0,000 mm 1,2 UV-I 264 W/m 7,9 C 12,0 C 29,0 km/h (5 Bft) 100,00 %
03.06.2023 08:26 11,9 C 75 % 1018,4 hPa 0,0 l/m 20,9 km/h (4 Bft) O-SO 112 1 min 0,000 mm 1,2 UV-I 308 W/m 7,6 C 11,9 C 30,6 km/h (5 Bft) 100,00 %
03.06.2023 08:25 12,0 C 75 % 1018,4 hPa 0,0 l/m 22,5 km/h (4 Bft) O-SO 112 1 min 0,000 mm 1,1 UV-I 287 W/m 7,7 C 12,0 C 32,2 km/h (5 Bft) 100,00 %
03.06.2023 08:24 12,1 C 76 % 1018,3 hPa 0,0 l/m 20,9 km/h (4 Bft) O-SO 112 1 min 0,000 mm 1,1 UV-I 287 W/m 8,0 C 12,1 C 30,6 km/h (5 Bft) 100,00 %
03.06.2023 08:23 12,1 C 76 % 1018,4 hPa 0,0 l/m 27,4 km/h (4 Bft) O-SO 112 1 min 0,000 mm 1,1 UV-I 279 W/m 8,0 C 12,1 C 40,2 km/h (6 Bft) 95,65 %
03.06.2023 08:22 12,1 C 77 % 1018,3 hPa 0,0 l/m 19,3 km/h (3 Bft) O-SO 112 1 min 0,000 mm 1,1 UV-I 276 W/m 8,2 C 12,1 C 29,0 km/h (5 Bft) 100,00 %
03.06.2023 08:21 12,1 C 77 % 1018,3 hPa 0,0 l/m 24,1 km/h (4 Bft) O-SO 112 1 min 0,000 mm 1,1 UV-I 274 W/m 8,2 C 12,1 C 33,8 km/h (5 Bft) 100,00 %
03.06.2023 08:20 12,0 C 76 % 1018,4 hPa 0,0 l/m 17,7 km/h (3 Bft) O-SO 112 1 min 0,000 mm 1,1 UV-I 278 W/m 7,9 C 12,0 C 22,5 km/h (4 Bft) 100,00 %
03.06.2023 08:19 12,0 C 77 % 1018,3 hPa 0,0 l/m 17,7 km/h (3 Bft) O-SO 112 1 min 0,000 mm 1,1 UV-I 271 W/m 8,1 C 12,0 C 25,7 km/h (4 Bft) 100,00 %
03.06.2023 08:18 11,9 C 76 % 1018,3 hPa 0,0 l/m 22,5 km/h (4 Bft) O-SO 112 1 min 0,000 mm 1,1 UV-I 267 W/m 7,8 C 11,9 C 33,8 km/h (5 Bft) 100,00 %
03.06.2023 08:17 11,9 C 76 % 1018,3 hPa 0,0 l/m 22,5 km/h (4 Bft) O-SO 112 1 min 0,000 mm 1,1 UV-I 264 W/m 7,8 C 11,9 C 30,6 km/h (5 Bft) 100,00 %
03.06.2023 08:16 11,9 C 76 % 1018,3 hPa 0,0 l/m 22,5 km/h (4 Bft) O-SO 112 1 min 0,000 mm 1,1 UV-I 262 W/m 7,8 C 11,9 C 33,8 km/h (5 Bft) 100,00 %
03.06.2023 08:15 11,9 C 77 % 1018,3 hPa 0,0 l/m 17,7 km/h (3 Bft) O-SO 112 1 min 0,000 mm 1,0 UV-I 262 W/m 8,0 C 11,9 C 24,1 km/h (4 Bft) 100,00 %
03.06.2023 08:14 11,8 C 77 % 1018,3 hPa 0,0 l/m 19,3 km/h (3 Bft) O-SO 112 1 min 0,000 mm 1,0 UV-I 258 W/m 7,9 C 11,8 C 25,7 km/h (4 Bft) 100,00 %
03.06.2023 08:13 11,8 C 76 % 1018,3 hPa 0,0 l/m 20,9 km/h (4 Bft) O-SO 112 1 min 0,000 mm 1,0 UV-I 258 W/m 7,7 C 11,8 C 29,0 km/h (5 Bft) 95,65 %
03.06.2023 08:12 11,8 C 78 % 1018,3 hPa 0,0 l/m 19,3 km/h (3 Bft) SO 135 1 min 0,000 mm 1,0 UV-I 258 W/m 8,1 C 11,8 C 24,1 km/h (4 Bft) 100,00 %
03.06.2023 08:11 11,7 C 78 % 1018,2 hPa 0,0 l/m 16,1 km/h (3 Bft) O-SO 112 1 min 0,000 mm 1,0 UV-I 258 W/m 8,0 C 11,7 C 20,9 km/h (4 Bft) 95,65 %
03.06.2023 08:10 11,7 C 77 % 1018,3 hPa 0,0 l/m 19,3 km/h (3 Bft) O-SO 112 1 min 0,000 mm 1,0 UV-I 258 W/m 7,8 C 11,7 C 25,7 km/h (4 Bft) 100,00 %
03.06.2023 08:09 11,6 C 77 % 1018,3 hPa 0,0 l/m 20,9 km/h (4 Bft) O-SO 112 1 min 0,000 mm 1,0 UV-I 262 W/m 7,7 C 11,6 C 32,2 km/h (5 Bft) 100,00 %
03.06.2023 08:08 11,6 C 77 % 1018,2 hPa 0,0 l/m 17,7 km/h (3 Bft) SO 135 1 min 0,000 mm 1,0 UV-I 262 W/m 7,7 C 11,6 C 24,1 km/h (4 Bft) 95,65 %
03.06.2023 08:07 11,6 C 77 % 1018,2 hPa 0,0 l/m 20,9 km/h (4 Bft) SO 135 1 min 0,000 mm 0,9 UV-I 260 W/m 7,7 C 11,6 C 25,7 km/h (4 Bft) 100,00 %
03.06.2023 08:06 11,5 C 78 % 1018,2 hPa 0,0 l/m 17,7 km/h (3 Bft) O-SO 112 1 min 0,000 mm 0,9 UV-I 260 W/m 7,8 C 11,5 C 27,4 km/h (4 Bft) 100,00 %
03.06.2023 08:05 11,4 C 77 % 1018,2 hPa 0,0 l/m 20,9 km/h (4 Bft) O-SO 112 1 min 0,000 mm 0,9 UV-I 262 W/m 7,5 C 11,4 C 29,0 km/h (5 Bft) 100,00 %
03.06.2023 08:04 11,4 C 77 % 1018,1 hPa 0,0 l/m 25,7 km/h (4 Bft) O-SO 112 1 min 0,000 mm 0,9 UV-I 260 W/m 7,5 C 11,4 C 32,2 km/h (5 Bft) 91,30 %
03.06.2023 08:03 11,4 C 77 % 1018,1 hPa 0,0 l/m 20,9 km/h (4 Bft) O-SO 112 1 min 0,000 mm 0,9 UV-I 264 W/m 7,5 C 11,4 C 30,6 km/h (5 Bft) 100,00 %
03.06.2023 08:02 11,4 C 78 % 1018,1 hPa 0,0 l/m 20,9 km/h (4 Bft) O-SO 112 1 min 0,000 mm 0,9 UV-I 262 W/m 7,7 C 11,4 C 29,0 km/h (5 Bft) 100,00 %
03.06.2023 08:01 11,3 C 77 % 1018,0 hPa 0,0 l/m 22,5 km/h (4 Bft) O-SO 112 1 min 0,000 mm 0,9 UV-I 262 W/m 7,4 C 11,3 C 29,0 km/h (5 Bft) 91,30 %
03.06.2023 08:00 11,3 C 77 % 1018,0 hPa 0,0 l/m 24,1 km/h (4 Bft) O-SO 112 1 min 0,152 mm 0,9 UV-I 264 W/m 7,4 C 11,3 C 32,2 km/h (5 Bft) 100,00 %
03.06.2023 07:59 11,3 C 78 % 1018,2 hPa 0,0 l/m 19,3 km/h (3 Bft) O-SO 112 1 min 0,000 mm 0,9 UV-I 260 W/m 7,6 C 11,3 C 27,4 km/h (4 Bft) 100,00 %
03.06.2023 07:58 11,3 C 77 % 1018,0 hPa 0,0 l/m 19,3 km/h (3 Bft) O-SO 112 1 min 0,000 mm 0,9 UV-I 255 W/m 7,4 C 11,3 C 24,1 km/h (4 Bft) 100,00 %
03.06.2023 07:57 11,3 C 77 % 1018,0 hPa 0,0 l/m 22,5 km/h (4 Bft) O-SO 112 1 min 0,000 mm 0,8 UV-I 257 W/m 7,4 C 11,3 C 30,6 km/h (5 Bft) 100,00 %
03.06.2023 07:56 11,2 C 77 % 1018,0 hPa 0,0 l/m 22,5 km/h (4 Bft) O-SO 112 1 min 0,000 mm 0,8 UV-I 253 W/m 7,3 C 11,2 C 27,4 km/h (4 Bft) 100,00 %
03.06.2023 07:55 11,2 C 78 % 1018,0 hPa 0,0 l/m 22,5 km/h (4 Bft) O-SO 112 1 min 0,000 mm 0,8 UV-I 250 W/m 7,5 C 11,2 C 30,6 km/h (5 Bft) 100,00 %
03.06.2023 07:54 11,2 C 78 % 1018,0 hPa 0,0 l/m 19,3 km/h (3 Bft) O-SO 112 1 min 0,000 mm 0,8 UV-I 244 W/m 7,5 C 11,2 C 25,7 km/h (4 Bft) 100,00 %
03.06.2023 07:53 11,2 C 78 % 1018,0 hPa 0,0 l/m 19,3 km/h (3 Bft) O-SO 112 1 min 0,000 mm 0,8 UV-I 239 W/m 7,5 C 11,2 C 22,5 km/h (4 Bft) 100,00 %
03.06.2023 07:52 11,1 C 78 % 1018,0 hPa 0,0 l/m 20,9 km/h (4 Bft) O-SO 112 1 min 0,000 mm 0,8 UV-I 234 W/m 7,4 C 11,1 C 25,7 km/h (4 Bft) 95,65 %
03.06.2023 07:51 11,1 C 78 % 1018,0 hPa 0,0 l/m 24,1 km/h (4 Bft) O-SO 112 1 min 0,000 mm 0,8 UV-I 227 W/m 7,4 C 11,1 C 30,6 km/h (5 Bft) 100,00 %
03.06.2023 07:50 11,1 C 78 % 1018,0 hPa 0,0 l/m 24,1 km/h (4 Bft) O-SO 112 1 min 0,000 mm 0,8 UV-I 214 W/m 7,4 C 11,1 C 32,2 km/h (5 Bft) 100,00 %
03.06.2023 07:49 11,1 C 78 % 1018,0 hPa 0,0 l/m 22,5 km/h (4 Bft) O-SO 112 1 min 0,000 mm 0,8 UV-I 213 W/m 7,4 C 11,1 C 27,4 km/h (4 Bft) 95,65 %
03.06.2023 07:48 11,1 C 78 % 1018,0 hPa 0,0 l/m 22,5 km/h (4 Bft) O-SO 112 1 min 0,000 mm 0,7 UV-I 209 W/m 7,4 C 11,1 C 27,4 km/h (4 Bft) 100,00 %
03.06.2023 07:47 11,0 C 78 % 1018,0 hPa 0,0 l/m 25,7 km/h (4 Bft) O-SO 112 1 min 0,000 mm 0,7 UV-I 207 W/m 7,3 C 11,0 C 32,2 km/h (5 Bft) 100,00 %
03.06.2023 07:46 11,0 C 78 % 1018,0 hPa 0,0 l/m 24,1 km/h (4 Bft) O-SO 112 1 min 0,000 mm 0,7 UV-I 206 W/m 7,3 C 11,0 C 32,2 km/h (5 Bft) 100,00 %
03.06.2023 07:45 10,9 C 78 % 1018,0 hPa 0,0 l/m 25,7 km/h (4 Bft) O-SO 112 1 min 0,000 mm 0,7 UV-I 204 W/m 7,2 C 10,9 C 32,2 km/h (5 Bft) 100,00 %
03.06.2023 07:44 10,9 C 78 % 1017,8 hPa 0,0 l/m 20,9 km/h (4 Bft) O-SO 112 1 min 0,000 mm 0,7 UV-I 200 W/m 7,2 C 10,9 C 30,6 km/h (5 Bft) 100,00 %
03.06.2023 07:43 10,9 C 78 % 1017,8 hPa 0,0 l/m 27,4 km/h (4 Bft) O-SO 112 1 min 0,000 mm 0,7 UV-I 202 W/m 7,2 C 10,9 C 38,6 km/h (5 Bft) 100,00 %
03.06.2023 07:42 10,9 C 78 % 1018,0 hPa 0,0 l/m 22,5 km/h (4 Bft) O-SO 112 1 min 0,000 mm 0,7 UV-I 202 W/m 7,2 C 10,9 C 33,8 km/h (5 Bft) 95,65 %
03.06.2023 07:41 10,9 C 78 % 1018,0 hPa 0,0 l/m 25,7 km/h (4 Bft) O-SO 112 1 min 0,000 mm 0,7 UV-I 214 W/m 7,2 C 10,9 C 37,0 km/h (5 Bft) 100,00 %
03.06.2023 07:40 10,9 C 79 % 1018,0 hPa 0,0 l/m 24,1 km/h (4 Bft) O-SO 112 1 min 0,000 mm 0,7 UV-I 211 W/m 7,4 C 10,9 C 41,8 km/h (6 Bft) 100,00 %
03.06.2023 07:39 10,9 C 78 % 1018,0 hPa 0,0 l/m 19,3 km/h (3 Bft) O-SO 112 1 min 0,000 mm 0,7 UV-I 209 W/m 7,2 C 10,9 C 30,6 km/h (5 Bft) 100,00 %
03.06.2023 07:38 10,9 C 78 % 1018,0 hPa 0,0 l/m 22,5 km/h (4 Bft) O-SO 112 1 min 0,000 mm 0,6 UV-I 214 W/m 7,2 C 10,9 C 29,0 km/h (5 Bft) 100,00 %
03.06.2023 07:37 10,9 C 78 % 1018,1 hPa 0,0 l/m 29,0 km/h (5 Bft) O-SO 112 1 min 0,000 mm 0,6 UV-I 225 W/m 7,2 C 10,9 C 41,8 km/h (6 Bft) 95,65 %
03.06.2023 07:36 10,8 C 78 % 1018,1 hPa 0,0 l/m 22,5 km/h (4 Bft) O-SO 112 1 min 0,000 mm 0,6 UV-I 221 W/m 7,1 C 10,8 C 27,4 km/h (4 Bft) 100,00 %
03.06.2023 07:35 10,8 C 78 % 1018,0 hPa 0,0 l/m 22,5 km/h (4 Bft) O-SO 112 1 min 0,000 mm 0,6 UV-I 225 W/m 7,1 C 10,8 C 33,8 km/h (5 Bft) 100,00 %
03.06.2023 07:34 10,8 C 79 % 1018,0 hPa 0,0 l/m 22,5 km/h (4 Bft) O-SO 112 1 min 0,000 mm 0,6 UV-I 230 W/m 7,3 C 10,8 C 33,8 km/h (5 Bft) 100,00 %
03.06.2023 07:33 10,8 C 79 % 1018,0 hPa 0,0 l/m 20,9 km/h (4 Bft) O-SO 112 1 min 0,000 mm 0,6 UV-I 234 W/m 7,3 C 10,8 C 29,0 km/h (5 Bft) 100,00 %
03.06.2023 07:32 10,8 C 79 % 1018,0 hPa 0,0 l/m 24,1 km/h (4 Bft) O-SO 112 1 min 0,000 mm 0,6 UV-I 236 W/m 7,3 C 10,8 C 33,8 km/h (5 Bft) 95,65 %
03.06.2023 07:31 10,8 C 79 % 1018,0 hPa 0,0 l/m 22,5 km/h (4 Bft) O-SO 112 1 min 0,000 mm 0,6 UV-I 227 W/m 7,3 C 10,8 C 29,0 km/h (5 Bft) 100,00 %
03.06.2023 07:30 10,7 C 79 % 1018,1 hPa 0,0 l/m 25,7 km/h (4 Bft) O-SO 112 1 min 0,000 mm 0,6 UV-I 227 W/m 7,2 C 10,7 C 32,2 km/h (5 Bft) 100,00 %
03.06.2023 07:29 10,7 C 78 % 1018,0 hPa 0,0 l/m 20,9 km/h (4 Bft) O-SO 112 1 min 0,000 mm 0,6 UV-I 206 W/m 7,0 C 10,7 C 30,6 km/h (5 Bft) 100,00 %
03.06.2023 07:28 10,7 C 78 % 1018,0 hPa 0,0 l/m 25,7 km/h (4 Bft) O-SO 112 1 min 0,000 mm 0,5 UV-I 223 W/m 7,0 C 10,7 C 30,6 km/h (5 Bft) 100,00 %
03.06.2023 07:27 10,7 C 79 % 1018,1 hPa 0,0 l/m 20,9 km/h (4 Bft) O-SO 112 1 min 0,000 mm 0,5 UV-I 223 W/m 7,2 C 10,7 C 30,6 km/h (5 Bft) 100,00 %
03.06.2023 07:26 10,7 C 79 % 1018,1 hPa 0,0 l/m 22,5 km/h (4 Bft) O-SO 112 1 min 0,000 mm 0,5 UV-I 221 W/m 7,2 C 10,7 C 30,6 km/h (5 Bft) 100,00 %
03.06.2023 07:25 10,7 C 79 % 1018,1 hPa 0,0 l/m 24,1 km/h (4 Bft) O-SO 112 1 min 0,000 mm 0,5 UV-I 223 W/m 7,2 C 10,7 C 30,6 km/h (5 Bft) 100,00 %
03.06.2023 07:24 10,7 C 78 % 1018,1 hPa 0,0 l/m 22,5 km/h (4 Bft) O-SO 112 1 min 0,000 mm 0,5 UV-I 220 W/m 7,0 C 10,7 C 32,2 km/h (5 Bft) 100,00 %
03.06.2023 07:23 10,7 C 79 % 1018,2 hPa 0,0 l/m 27,4 km/h (4 Bft) O-SO 112 1 min 0,000 mm 0,5 UV-I 220 W/m 7,2 C 10,7 C 38,6 km/h (5 Bft) 100,00 %
03.06.2023 07:22 10,7 C 78 % 1018,0 hPa 0,0 l/m 24,1 km/h (4 Bft) O-SO 112 1 min 0,000 mm 0,5 UV-I 218 W/m 7,0 C 10,7 C 32,2 km/h (5 Bft) 100,00 %
03.06.2023 07:21 10,7 C 78 % 1018,0 hPa 0,0 l/m 24,1 km/h (4 Bft) O-SO 112 1 min 0,000 mm 0,5 UV-I 214 W/m 7,0 C 10,7 C 33,8 km/h (5 Bft) 100,00 %
03.06.2023 07:20 10,7 C 78 % 1018,0 hPa 0,0 l/m 29,0 km/h (5 Bft) O-SO 112 1 min 0,000 mm 0,5 UV-I 213 W/m 7,0 C 10,7 C 40,2 km/h (6 Bft) 95,65 %
03.06.2023 07:19 10,7 C 78 % 1018,2 hPa 0,0 l/m 25,7 km/h (4 Bft) O-SO 112 1 min 0,000 mm 0,5 UV-I 213 W/m 7,0 C 10,7 C 35,4 km/h (5 Bft) 100,00 %
03.06.2023 07:18 10,7 C 79 % 1018,0 hPa 0,0 l/m 25,7 km/h (4 Bft) O-SO 112 1 min 0,000 mm 0,5 UV-I 211 W/m 7,2 C 10,7 C 38,6 km/h (5 Bft) 100,00 %
03.06.2023 07:17 10,7 C 79 % 1018,1 hPa 0,0 l/m 24,1 km/h (4 Bft) SO 135 1 min 0,000 mm 0,5 UV-I 209 W/m 7,2 C 10,7 C 32,2 km/h (5 Bft) 100,00 %
03.06.2023 07:16 10,7 C 79 % 1018,1 hPa 0,0 l/m 24,1 km/h (4 Bft) O-SO 112 1 min 0,000 mm 0,5 UV-I 207 W/m 7,2 C 10,7 C 35,4 km/h (5 Bft) 91,30 %
03.06.2023 07:15 10,6 C 79 % 1018,0 hPa 0,0 l/m 20,9 km/h (4 Bft) O-SO 112 1 min 0,000 mm 0,5 UV-I 204 W/m 7,1 C 10,6 C 29,0 km/h (5 Bft) 100,00 %
03.06.2023 07:14 10,6 C 79 % 1018,0 hPa 0,0 l/m 19,3 km/h (3 Bft) O-SO 112 1 min 0,000 mm 0,0 UV-I 202 W/m 7,1 C 10,6 C 25,7 km/h (4 Bft) 100,00 %
03.06.2023 07:13 10,6 C 79 % 1018,1 hPa 0,0 l/m 22,5 km/h (4 Bft) O-SO 112 1 min 0,000 mm 0,0 UV-I 199 W/m 7,1 C 10,6 C 37,0 km/h (5 Bft) 100,00 %
03.06.2023 07:12 10,6 C 78 % 1018,2 hPa 0,0 l/m 22,5 km/h (4 Bft) O-SO 112 1 min 0,000 mm 0,0 UV-I 197 W/m 6,9 C 10,6 C 27,4 km/h (4 Bft) 100,00 %
03.06.2023 07:11 10,6 C 79 % 1018,2 hPa 0,0 l/m 27,4 km/h (4 Bft) O-SO 112 1 min 0,000 mm 0,0 UV-I 195 W/m 7,1 C 10,6 C 45,1 km/h (6 Bft) 100,00 %
03.06.2023 07:10 10,5 C 79 % 1018,2 hPa 0,0 l/m 20,9 km/h (4 Bft) O-SO 112 1 min 0,000 mm 0,0 UV-I 193 W/m 7,0 C 10,5 C 30,6 km/h (5 Bft) 95,65 %
03.06.2023 07:09 10,5 C 79 % 1018,1 hPa 0,0 l/m 20,9 km/h (4 Bft) O-SO 112 1 min 0,000 mm 0,0 UV-I 190 W/m 7,0 C 10,5 C 32,2 km/h (5 Bft) 100,00 %
03.06.2023 07:08 10,4 C 79 % 1018,1 hPa 0,0 l/m 25,7 km/h (4 Bft) O-SO 112 1 min 0,000 mm 0,0 UV-I 188 W/m 6,9 C 10,4 C 33,8 km/h (5 Bft) 100,00 %
03.06.2023 07:07 10,4 C 79 % 1018,1 hPa 0,0 l/m 22,5 km/h (4 Bft) O-SO 112 1 min 0,000 mm 0,0 UV-I 186 W/m 6,9 C 10,4 C 32,2 km/h (5 Bft) 100,00 %
03.06.2023 07:06 10,4 C 79 % 1018,1 hPa 0,0 l/m 22,5 km/h (4 Bft) O-SO 112 1 min 0,000 mm 0,0 UV-I 183 W/m 6,9 C 10,4 C 29,0 km/h (5 Bft) 100,00 %
03.06.2023 07:05 10,4 C 79 % 1018,1 hPa 0,0 l/m 29,0 km/h (5 Bft) O-SO 112 1 min 0,000 mm 0,0 UV-I 179 W/m 6,9 C 10,4 C 41,8 km/h (6 Bft) 100,00 %
03.06.2023 07:04 10,4 C 79 % 1018,0 hPa 0,0 l/m 24,1 km/h (4 Bft) O-SO 112 1 min 0,000 mm 0,0 UV-I 178 W/m 6,9 C 10,4 C 41,8 km/h (6 Bft) 100,00 %
03.06.2023 07:03 10,4 C 79 % 1018,1 hPa 0,0 l/m 27,4 km/h (4 Bft) O-SO 112 1 min 0,000 mm 0,0 UV-I 172 W/m 6,9 C 10,4 C 38,6 km/h (5 Bft) 100,00 %
03.06.2023 07:02 10,4 C 79 % 1018,0 hPa 0,0 l/m 20,9 km/h (4 Bft) O-SO 112 1 min 0,000 mm 0,0 UV-I 169 W/m 6,9 C 10,4 C 27,4 km/h (4 Bft) 100,00 %
03.06.2023 07:01 10,4 C 79 % 1018,0 hPa 0,0 l/m 22,5 km/h (4 Bft) O-SO 112 1 min 0,000 mm 0,0 UV-I 167 W/m 6,9 C 10,4 C 33,8 km/h (5 Bft) 100,00 %
03.06.2023 07:00 10,3 C 79 % 1018,0 hPa 0,0 l/m 25,7 km/h (4 Bft) O-SO 112 1 min 0,076 mm 0,0 UV-I 163 W/m 6,8 C 10,3 C 37,0 km/h (5 Bft) 95,65 %
03.06.2023 06:59 10,3 C 79 % 1018,0 hPa 0,0 l/m 22,5 km/h (4 Bft) O-SO 112 1 min 0,000 mm 0,0 UV-I 158 W/m 6,8 C 10,3 C 29,0 km/h (5 Bft) 100,00 %
03.06.2023 06:58 10,3 C 79 % 1018,1 hPa 0,0 l/m 22,5 km/h (4 Bft) O-SO 112 1 min 0,000 mm 0,0 UV-I 156 W/m 6,8 C 10,3 C 33,8 km/h (5 Bft) 100,00 %
03.06.2023 06:57 10,3 C 79 % 1018,2 hPa 0,0 l/m 22,5 km/h (4 Bft) O-SO 112 0 min 0,000 mm 0,0 UV-I 148 W/m 6,8 C 10,3 C 29,0 km/h (5 Bft) 100,00 %
03.06.2023 06:56 10,2 C 79 % 1018,1 hPa 0,0 l/m 24,1 km/h (4 Bft) O-SO 112 0 min 0,000 mm 0,0 UV-I 142 W/m 6,7 C 10,2 C 32,2 km/h (5 Bft) 95,65 %
03.06.2023 06:55 10,2 C 79 % 1018,0 hPa 0,0 l/m 25,7 km/h (4 Bft) O-SO 112 0 min 0,000 mm 0,0 UV-I 141 W/m 6,7 C 10,2 C 33,8 km/h (5 Bft) 100,00 %
03.06.2023 06:54 10,2 C 79 % 1018,1 hPa 0,0 l/m 22,5 km/h (4 Bft) O-SO 112 0 min 0,000 mm 0,0 UV-I 139 W/m 6,7 C 10,2 C 33,8 km/h (5 Bft) 100,00 %
03.06.2023 06:53 10,2 C 79 % 1018,2 hPa 0,0 l/m 22,5 km/h (4 Bft) O-SO 112 0 min 0,000 mm 0,0 UV-I 135 W/m 6,7 C 10,2 C 30,6 km/h (5 Bft) 95,65 %
03.06.2023 06:52 10,2 C 79 % 1018,1 hPa 0,0 l/m 22,5 km/h (4 Bft) O-SO 112 0 min 0,000 mm 0,0 UV-I 132 W/m 6,7 C 10,2 C 30,6 km/h (5 Bft) 100,00 %
03.06.2023 06:51 10,2 C 79 % 1018,1 hPa 0,0 l/m 20,9 km/h (4 Bft) O-SO 112 0 min 0,000 mm 0,0 UV-I 102 W/m 6,7 C 10,2 C 27,4 km/h (4 Bft) 100,00 %
03.06.2023 06:50 10,2 C 80 % 1018,1 hPa 0,0 l/m 17,7 km/h (3 Bft) O-SO 112 0 min 0,000 mm 0,0 UV-I 93 W/m 6,9 C 10,2 C 22,5 km/h (4 Bft) 100,00 %
03.06.2023 06:49 10,2 C 79 % 1018,0 hPa 0,0 l/m 20,9 km/h (4 Bft) O-SO 112 0 min 0,000 mm 0,0 UV-I 107 W/m 6,7 C 10,2 C 24,1 km/h (4 Bft) 95,65 %
03.06.2023 06:48 10,1 C 80 % 1018,0 hPa 0,0 l/m 22,5 km/h (4 Bft) O-SO 112 0 min 0,000 mm 0,0 UV-I 113 W/m 6,8 C 10,1 C 30,6 km/h (5 Bft) 100,00 %
03.06.2023 06:47 10,1 C 80 % 1018,1 hPa 0,0 l/m 17,7 km/h (3 Bft) O-SO 112 0 min 0,000 mm 0,0 UV-I 109 W/m 6,8 C 10,1 C 24,1 km/h (4 Bft) 100,00 %
03.06.2023 06:46 10,1 C 79 % 1018,1 hPa 0,0 l/m 22,5 km/h (4 Bft) O-SO 112 0 min 0,000 mm 0,0 UV-I 102 W/m 6,6 C 10,1 C 27,4 km/h (4 Bft) 100,00 %
03.06.2023 06:45 10,1 C 79 % 1018,1 hPa 0,0 l/m 22,5 km/h (4 Bft) O-SO 112 0 min 0,000 mm 0,0 UV-I 88 W/m 6,6 C 10,1 C 32,2 km/h (5 Bft) 100,00 %
03.06.2023 06:44 10,1 C 79 % 1018,1 hPa 0,0 l/m 19,3 km/h (3 Bft) O-SO 112 0 min 0,000 mm 0,0 UV-I 76 W/m 6,6 C 10,1 C 33,8 km/h (5 Bft) 100,00 %
03.06.2023 06:43 10,1 C 79 % 1018,0 hPa 0,0 l/m 20,9 km/h (4 Bft) O-SO 112 0 min 0,000 mm 0,0 UV-I 65 W/m 6,6 C 10,1 C 30,6 km/h (5 Bft) 100,00 %
03.06.2023 06:42 10,1 C 80 % 1018,1 hPa 0,0 l/m 22,5 km/h (4 Bft) O-SO 112 0 min 0,000 mm 0,0 UV-I 58 W/m 6,8 C 10,1 C 30,6 km/h (5 Bft) 95,65 %
03.06.2023 06:41 10,0 C 80 % 1018,0 hPa 0,0 l/m 19,3 km/h (3 Bft) O-SO 112 0 min 0,000 mm 0,0 UV-I 67 W/m 6,7 C 7,4 C 22,5 km/h (4 Bft) 95,65 %
03.06.2023 06:40 10,0 C 80 % 1018,0 hPa 0,0 l/m 19,3 km/h (3 Bft) O-SO 112 0 min 0,000 mm 0,0 UV-I 67 W/m 6,7 C 7,4 C 25,7 km/h (4 Bft) 100,00 %
03.06.2023 06:39 10,0 C 80 % 1018,0 hPa 0,0 l/m 20,9 km/h (4 Bft) O-SO 112 0 min 0,000 mm 0,0 UV-I 56 W/m 6,7 C 7,3 C 30,6 km/h (5 Bft) 100,00 %
03.06.2023 06:38 10,0 C 79 % 1017,9 hPa 0,0 l/m 20,9 km/h (4 Bft) O-SO 112 0 min 0,000 mm 0,0 UV-I 58 W/m 6,5 C 7,3 C 30,6 km/h (5 Bft) 100,00 %
03.06.2023 06:37 9,9 C 80 % 1018,0 hPa 0,0 l/m 20,9 km/h (4 Bft) O-SO 112 0 min 0,000 mm 0,0 UV-I 58 W/m 6,6 C 7,2 C 30,6 km/h (5 Bft) 100,00 %
03.06.2023 06:36 9,9 C 79 % 1018,0 hPa 0,0 l/m 20,9 km/h (4 Bft) O-SO 112 0 min 0,000 mm 0,0 UV-I 60 W/m 6,4 C 7,2 C 27,4 km/h (4 Bft) 100,00 %
03.06.2023 06:35 9,9 C 80 % 1018,0 hPa 0,0 l/m 24,1 km/h (4 Bft) O-SO 112 0 min 0,000 mm 0,0 UV-I 67 W/m 6,6 C 6,9 C 32,2 km/h (5 Bft) 100,00 %
03.06.2023 06:34 9,9 C 79 % 1017,9 hPa 0,0 l/m 22,5 km/h (4 Bft) O-SO 112 0 min 0,000 mm 0,0 UV-I 53 W/m 6,4 C 7,0 C 29,0 km/h (5 Bft) 100,00 %
03.06.2023 06:33 9,9 C 79 % 1017,9 hPa 0,0 l/m 27,4 km/h (4 Bft) O-SO 112 0 min 0,000 mm 0,0 UV-I 53 W/m 6,4 C 6,6 C 41,8 km/h (6 Bft) 100,00 %
03.06.2023 06:32 9,9 C 79 % 1018,0 hPa 0,0 l/m 22,5 km/h (4 Bft) O-SO 112 0 min 0,000 mm 0,0 UV-I 56 W/m 6,4 C 7,0 C 29,0 km/h (5 Bft) 100,00 %
03.06.2023 06:31 9,9 C 79 % 1017,9 hPa 0,0 l/m 22,5 km/h (4 Bft) O-SO 112 0 min 0,000 mm 0,0 UV-I 56 W/m 6,4 C 7,0 C 27,4 km/h (4 Bft) 100,00 %
03.06.2023 06:30 9,9 C 79 % 1018,0 hPa 0,0 l/m 22,5 km/h (4 Bft) O-SO 112 0 min 0,000 mm 0,0 UV-I 51 W/m 6,4 C 7,0 C 29,0 km/h (5 Bft) 100,00 %
03.06.2023 06:29 9,9 C 79 % 1017,9 hPa 0,0 l/m 25,7 km/h (4 Bft) O-SO 112 0 min 0,000 mm 0,0 UV-I 46 W/m 6,4 C 6,8 C 37,0 km/h (5 Bft) 100,00 %
03.06.2023 06:28 9,9 C 80 % 1017,9 hPa 0,0 l/m 22,5 km/h (4 Bft) O-SO 112 0 min 0,000 mm 0,0 UV-I 46 W/m 6,6 C 7,0 C 30,6 km/h (5 Bft) 100,00 %
03.06.2023 06:27 9,8 C 79 % 1017,9 hPa 0,0 l/m 25,7 km/h (4 Bft) O-SO 112 0 min 0,000 mm 0,0 UV-I 46 W/m 6,3 C 6,6 C 37,0 km/h (5 Bft) 100,00 %
03.06.2023 06:26 9,8 C 79 % 1017,9 hPa 0,0 l/m 20,9 km/h (4 Bft) O-SO 112 0 min 0,000 mm 0,0 UV-I 44 W/m 6,3 C 7,0 C 38,6 km/h (5 Bft) 100,00 %
03.06.2023 06:25 9,8 C 79 % 1017,9 hPa 0,0 l/m 25,7 km/h (4 Bft) O-SO 112 0 min 0,000 mm 0,0 UV-I 46 W/m 6,3 C 6,6 C 32,2 km/h (5 Bft) 100,00 %
03.06.2023 06:24 9,8 C 79 % 1017,8 hPa 0,0 l/m 25,7 km/h (4 Bft) O-SO 112 0 min 0,000 mm 0,0 UV-I 44 W/m 6,3 C 6,6 C 35,4 km/h (5 Bft) 100,00 %
03.06.2023 06:23 9,8 C 80 % 1017,8 hPa 0,0 l/m 20,9 km/h (4 Bft) O-SO 112 0 min 0,000 mm 0,0 UV-I 47 W/m 6,5 C 7,0 C 30,6 km/h (5 Bft) 95,65 %
03.06.2023 06:22 9,8 C 79 % 1017,8 hPa 0,0 l/m 20,9 km/h (4 Bft) O-SO 112 0 min 0,000 mm 0,0 UV-I 46 W/m 6,3 C 7,0 C 29,0 km/h (5 Bft) 95,65 %
03.06.2023 06:21 9,8 C 79 % 1017,8 hPa 0,0 l/m 22,5 km/h (4 Bft) O-SO 112 0 min 0,000 mm 0,0 UV-I 44 W/m 6,3 C 6,9 C 33,8 km/h (5 Bft) 100,00 %
03.06.2023 06:20 9,9 C 79 % 1017,9 hPa 0,0 l/m 25,7 km/h (4 Bft) O-SO 112 0 min 0,000 mm 0,0 UV-I 42 W/m 6,4 C 6,8 C 33,8 km/h (5 Bft) 100,00 %
03.06.2023 06:19 9,8 C 79 % 1017,9 hPa 0,0 l/m 24,1 km/h (4 Bft) O-SO 112 0 min 0,000 mm 0,0 UV-I 40 W/m 6,3 C 6,8 C 30,6 km/h (5 Bft) 100,00 %
03.06.2023 06:18 9,8 C 79 % 1017,8 hPa 0,0 l/m 24,1 km/h (4 Bft) O-SO 112 0 min 0,000 mm 0,0 UV-I 39 W/m 6,3 C 6,8 C 33,8 km/h (5 Bft) 100,00 %
03.06.2023 06:17 9,8 C 79 % 1017,9 hPa 0,0 l/m 27,4 km/h (4 Bft) O-SO 112 0 min 0,000 mm 0,0 UV-I 39 W/m 6,3 C 6,5 C 37,0 km/h (5 Bft) 100,00 %
03.06.2023 06:16 9,8 C 79 % 1017,8 hPa 0,0 l/m 24,1 km/h (4 Bft) O-SO 112 0 min 0,000 mm 0,0 UV-I 39 W/m 6,3 C 6,8 C 30,6 km/h (5 Bft) 100,00 %
03.06.2023 06:15 9,8 C 79 % 1017,9 hPa 0,0 l/m 27,4 km/h (4 Bft) O-SO 112 0 min 0,000 mm 0,0 UV-I 37 W/m 6,3 C 6,5 C 49,9 km/h (6 Bft) 95,65 %
03.06.2023 06:14 9,8 C 79 % 1017,9 hPa 0,0 l/m 27,4 km/h (4 Bft) O-SO 112 0 min 0,000 mm 0,0 UV-I 37 W/m 6,3 C 6,5 C 49,9 km/h (6 Bft) 100,00 %
03.06.2023 06:13 9,8 C 79 % 1017,7 hPa 0,0 l/m 22,5 km/h (4 Bft) O-SO 112 0 min 0,000 mm 0,0 UV-I 37 W/m 6,3 C 6,9 C 29,0 km/h (5 Bft) 100,00 %
03.06.2023 06:12 9,8 C 79 % 1017,7 hPa 0,0 l/m 22,5 km/h (4 Bft) O-SO 112 0 min 0,000 mm 0,0 UV-I 37 W/m 6,3 C 6,9 C 38,6 km/h (5 Bft) 100,00 %
03.06.2023 06:11 9,8 C 79 % 1017,8 hPa 0,0 l/m 22,5 km/h (4 Bft) O-SO 112 0 min 0,000 mm 0,0 UV-I 35 W/m 6,3 C 6,9 C 30,6 km/h (5 Bft) 95,65 %
03.06.2023 06:10 9,8 C 79 % 1017,6 hPa 0,0 l/m 24,1 km/h (4 Bft) SO 135 0 min 0,000 mm 0,0 UV-I 35 W/m 6,3 C 6,8 C 35,4 km/h (5 Bft) 100,00 %
03.06.2023 06:09 9,8 C 79 % 1017,7 hPa 0,0 l/m 20,9 km/h (4 Bft) O-SO 112 0 min 0,000 mm 0,0 UV-I 35 W/m 6,3 C 7,0 C 27,4 km/h (4 Bft) 100,00 %
03.06.2023 06:08 9,8 C 79 % 1017,6 hPa 0,0 l/m 24,1 km/h (4 Bft) O-SO 112 0 min 0,000 mm 0,0 UV-I 35 W/m 6,3 C 6,8 C 33,8 km/h (5 Bft) 95,65 %
03.06.2023 06:07 9,8 C 79 % 1017,6 hPa 0,0 l/m 24,1 km/h (4 Bft) O-SO 112 0 min 0,000 mm 0,0 UV-I 35 W/m 6,3 C 6,8 C 46,7 km/h (6 Bft) 100,00 %
03.06.2023 06:06 9,8 C 79 % 1017,6 hPa 0,0 l/m 32,2 km/h (5 Bft) O-SO 112 0 min 0,000 mm 0,0 UV-I 33 W/m 6,3 C 6,2 C 46,7 km/h (6 Bft) 100,00 %
03.06.2023 06:05 9,8 C 79 % 1017,6 hPa 0,0 l/m 27,4 km/h (4 Bft) O-SO 112 0 min 0,000 mm 0,0 UV-I 33 W/m 6,3 C 6,5 C 38,6 km/h (5 Bft) 100,00 %
03.06.2023 06:04 9,8 C 79 % 1017,7 hPa 0,0 l/m 24,1 km/h (4 Bft) O-SO 112 0 min 0,000 mm 0,0 UV-I 33 W/m 6,3 C 6,8 C 35,4 km/h (5 Bft) 100,00 %
03.06.2023 06:03 9,8 C 79 % 1017,6 hPa 0,0 l/m 22,5 km/h (4 Bft) O-SO 112 0 min 0,000 mm 0,0 UV-I 33 W/m 6,3 C 6,9 C 29,0 km/h (5 Bft) 95,65 %
03.06.2023 06:02 9,8 C 79 % 1017,7 hPa 0,0 l/m 24,1 km/h (4 Bft) O-SO 112 0 min 0,000 mm 0,0 UV-I 33 W/m 6,3 C 6,8 C 32,2 km/h (5 Bft) 100,00 %
03.06.2023 06:01 9,8 C 79 % 1017,6 hPa 0,0 l/m 22,5 km/h (4 Bft) O-SO 112 0 min 0,000 mm 0,0 UV-I 33 W/m 6,3 C 6,9 C 30,6 km/h (5 Bft) 100,00 %
03.06.2023 06:00 9,8 C 79 % 1017,6 hPa 0,0 l/m 19,3 km/h (3 Bft) O-SO 112 0 min 0,051 mm 0,0 UV-I 33 W/m 6,3 C 7,2 C 27,4 km/h (4 Bft) 100,00 %
03.06.2023 05:59 9,8 C 79 % 1017,6 hPa 0,0 l/m 20,9 km/h (4 Bft) O-SO 112 0 min 0,000 mm 0,0 UV-I 32 W/m 6,3 C 7,0 C 24,1 km/h (4 Bft) 100,00 %
03.06.2023 05:58 9,8 C 79 % 1017,6 hPa 0,0 l/m 24,1 km/h (4 Bft) O-SO 112 0 min 0,000 mm 0,0 UV-I 32 W/m 6,3 C 6,8 C 45,1 km/h (6 Bft) 100,00 %
03.06.2023 05:57 9,8 C 79 % 1017,7 hPa 0,0 l/m 25,7 km/h (4 Bft) O-SO 112 0 min 0,000 mm 0,0 UV-I 30 W/m 6,3 C 6,6 C 45,1 km/h (6 Bft) 100,00 %
03.06.2023 05:56 9,8 C 79 % 1017,6 hPa 0,0 l/m 20,9 km/h (4 Bft) O-SO 112 0 min 0,000 mm 0,0 UV-I 30 W/m 6,3 C 7,0 C 33,8 km/h (5 Bft) 100,00 %
03.06.2023 05:55 9,8 C 79 % 1017,5 hPa 0,0 l/m 22,5 km/h (4 Bft) O-SO 112 0 min 0,000 mm 0,0 UV-I 28 W/m 6,3 C 6,9 C 27,4 km/h (4 Bft) 100,00 %
03.06.2023 05:54 9,8 C 79 % 1017,5 hPa 0,0 l/m 20,9 km/h (4 Bft) O-SO 112 0 min 0,000 mm 0,0 UV-I 28 W/m 6,3 C 7,0 C 29,0 km/h (5 Bft) 100,00 %
03.06.2023 05:53 9,8 C 79 % 1017,5 hPa 0,0 l/m 24,1 km/h (4 Bft) O-SO 112 0 min 0,000 mm 0,0 UV-I 28 W/m 6,3 C 6,8 C 30,6 km/h (5 Bft) 95,65 %
03.06.2023 05:52 9,8 C 79 % 1017,5 hPa 0,0 l/m 24,1 km/h (4 Bft) O-SO 112 0 min 0,000 mm 0,0 UV-I 26 W/m 6,3 C 6,8 C 30,6 km/h (5 Bft) 100,00 %
03.06.2023 05:51 9,8 C 79 % 1017,5 hPa 0,0 l/m 30,6 km/h (5 Bft) O-SO 112 0 min 0,000 mm 0,0 UV-I 26 W/m 6,3 C 6,3 C 40,2 km/h (6 Bft) 95,65 %
03.06.2023 05:50 9,8 C 79 % 1017,5 hPa 0,0 l/m 24,1 km/h (4 Bft) SO 135 0 min 0,000 mm 0,0 UV-I 26 W/m 6,3 C 6,8 C 35,4 km/h (5 Bft) 100,00 %
03.06.2023 05:49 9,8 C 79 % 1017,5 hPa 0,0 l/m 24,1 km/h (4 Bft) O-SO 112 0 min 0,000 mm 0,0 UV-I 26 W/m 6,3 C 6,8 C 35,4 km/h (5 Bft) 100,00 %
03.06.2023 05:48 9,8 C 79 % 1017,5 hPa 0,0 l/m 24,1 km/h (4 Bft) O-SO 112 0 min 0,000 mm 0,0 UV-I 26 W/m 6,3 C 6,8 C 43,5 km/h (6 Bft) 91,30 %
03.06.2023 05:47 9,8 C 79 % 1017,5 hPa 0,0 l/m 25,7 km/h (4 Bft) SO 135 0 min 0,000 mm 0,0 UV-I 25 W/m 6,3 C 6,6 C 40,2 km/h (6 Bft) 100,00 %
03.06.2023 05:46 9,9 C 79 % 1017,6 hPa 0,0 l/m 24,1 km/h (4 Bft) O-SO 112 0 min 0,000 mm 0,0 UV-I 25 W/m 6,4 C 6,9 C 37,0 km/h (5 Bft) 95,65 %
03.06.2023 05:45 9,8 C 79 % 1017,6 hPa 0,0 l/m 24,1 km/h (4 Bft) O-SO 112 0 min 0,000 mm 0,0 UV-I 25 W/m 6,3 C 6,8 C 32,2 km/h (5 Bft) 100,00 %
03.06.2023 05:44 9,8 C 79 % 1017,5 hPa 0,0 l/m 25,7 km/h (4 Bft) O-SO 112 0 min 0,000 mm 0,0 UV-I 23 W/m 6,3 C 6,6 C 33,8 km/h (5 Bft) 100,00 %
03.06.2023 05:43 9,9 C 79 % 1017,5 hPa 0,0 l/m 25,7 km/h (4 Bft) O-SO 112 0 min 0,000 mm 0,0 UV-I 23 W/m 6,4 C 6,8 C 32,2 km/h (5 Bft) 100,00 %
03.06.2023 05:42 9,9 C 79 % 1017,5 hPa 0,0 l/m 25,7 km/h (4 Bft) O-SO 112 0 min 0,000 mm 0,0 UV-I 23 W/m 6,4 C 6,8 C 30,6 km/h (5 Bft) 100,00 %
03.06.2023 05:41 9,9 C 79 % 1017,4 hPa 0,0 l/m 20,9 km/h (4 Bft) O-SO 112 0 min 0,000 mm 0,0 UV-I 21 W/m 6,4 C 7,2 C 29,0 km/h (5 Bft) 100,00 %
03.06.2023 05:40 9,9 C 79 % 1017,4 hPa 0,0 l/m 19,3 km/h (3 Bft) O-SO 112 0 min 0,000 mm 0,0 UV-I 21 W/m 6,4 C 7,3 C 29,0 km/h (5 Bft) 100,00 %
03.06.2023 05:39 9,9 C 79 % 1017,4 hPa 0,0 l/m 24,1 km/h (4 Bft) O-SO 112 0 min 0,000 mm 0,0 UV-I 21 W/m 6,4 C 6,9 C 40,2 km/h (6 Bft) 95,65 %
03.06.2023 05:38 9,9 C 80 % 1017,5 hPa 0,0 l/m 24,1 km/h (4 Bft) O-SO 112 0 min 0,000 mm 0,0 UV-I 19 W/m 6,6 C 6,9 C 37,0 km/h (5 Bft) 100,00 %
03.06.2023 05:37 9,9 C 80 % 1017,5 hPa 0,0 l/m 20,9 km/h (4 Bft) SO 135 0 min 0,000 mm 0,0 UV-I 19 W/m 6,6 C 7,2 C 29,0 km/h (5 Bft) 95,65 %
03.06.2023 05:36 9,9 C 80 % 1017,5 hPa 0,0 l/m 22,5 km/h (4 Bft) O-SO 112 0 min 0,000 mm 0,0 UV-I 19 W/m 6,6 C 7,0 C 37,0 km/h (5 Bft) 100,00 %
03.06.2023 05:35 9,9 C 80 % 1017,5 hPa 0,0 l/m 24,1 km/h (4 Bft) O-SO 112 0 min 0,000 mm 0,0 UV-I 18 W/m 6,6 C 6,9 C 35,4 km/h (5 Bft) 100,00 %
03.06.2023 05:34 9,9 C 80 % 1017,5 hPa 0,0 l/m 22,5 km/h (4 Bft) O-SO 112 0 min 0,000 mm 0,0 UV-I 18 W/m 6,6 C 7,0 C 33,8 km/h (5 Bft) 100,00 %
03.06.2023 05:33 9,9 C 80 % 1017,4 hPa 0,0 l/m 27,4 km/h (4 Bft) O-SO 112 0 min 0,000 mm 0,0 UV-I 18 W/m 6,6 C 6,6 C 40,2 km/h (6 Bft) 100,00 %
03.06.2023 05:32 9,9 C 80 % 1017,5 hPa 0,0 l/m 25,7 km/h (4 Bft) O-SO 112 0 min 0,000 mm 0,0 UV-I 18 W/m 6,6 C 6,8 C 32,2 km/h (5 Bft) 100,00 %
03.06.2023 05:31 10,0 C 80 % 1017,5 hPa 0,0 l/m 22,5 km/h (4 Bft) O-SO 112 0 min 0,000 mm 0,0 UV-I 16 W/m 6,7 C 7,1 C 40,2 km/h (6 Bft) 100,00 %
03.06.2023 05:30 10,0 C 80 % 1017,4 hPa 0,0 l/m 24,1 km/h (4 Bft) O-SO 112 0 min 0,000 mm 0,0 UV-I 16 W/m 6,7 C 7,0 C 30,6 km/h (5 Bft) 100,00 %
03.06.2023 05:29 10,0 C 80 % 1017,4 hPa 0,0 l/m 22,5 km/h (4 Bft) O-SO 112 0 min 0,000 mm 0,0 UV-I 16 W/m 6,7 C 7,1 C 30,6 km/h (5 Bft) 95,65 %
03.06.2023 05:28 10,0 C 80 % 1017,4 hPa 0,0 l/m 20,9 km/h (4 Bft) O-SO 112 0 min 0,000 mm 0,0 UV-I 14 W/m 6,7 C 7,3 C 30,6 km/h (5 Bft) 100,00 %
03.06.2023 05:27 10,0 C 80 % 1017,4 hPa 0,0 l/m 27,4 km/h (4 Bft) O-SO 112 0 min 0,000 mm 0,0 UV-I 14 W/m 6,7 C 6,8 C 35,4 km/h (5 Bft) 100,00 %
03.06.2023 05:26 10,0 C 80 % 1017,4 hPa 0,0 l/m 20,9 km/h (4 Bft) O-SO 112 0 min 0,000 mm 0,0 UV-I 14 W/m 6,7 C 7,3 C 32,2 km/h (5 Bft) 100,00 %
03.06.2023 05:25 10,0 C 80 % 1017,4 hPa 0,0 l/m 24,1 km/h (4 Bft) O-SO 112 0 min 0,000 mm 0,0 UV-I 14 W/m 6,7 C 7,0 C 30,6 km/h (5 Bft) 95,65 %
03.06.2023 05:24 10,1 C 80 % 1017,4 hPa 0,0 l/m 22,5 km/h (4 Bft) O-SO 112 0 min 0,000 mm 0,0 UV-I 12 W/m 6,8 C 10,1 C 30,6 km/h (5 Bft) 95,65 %
03.06.2023 05:23 10,1 C 80 % 1017,4 hPa 0,0 l/m 22,5 km/h (4 Bft) O-SO 112 0 min 0,000 mm 0,0 UV-I 12 W/m 6,8 C 10,1 C 27,4 km/h (4 Bft) 100,00 %
03.06.2023 05:22 10,1 C 80 % 1017,5 hPa 0,0 l/m 24,1 km/h (4 Bft) O-SO 112 0 min 0,000 mm 0,0 UV-I 12 W/m 6,8 C 10,1 C 30,6 km/h (5 Bft) 100,00 %
03.06.2023 05:21 10,1 C 80 % 1017,4 hPa 0,0 l/m 22,5 km/h (4 Bft) O-SO 112 0 min 0,000 mm 0,0 UV-I 11 W/m 6,8 C 10,1 C 33,8 km/h (5 Bft) 100,00 %
03.06.2023 05:20 10,1 C 81 % 1017,5 hPa 0,0 l/m 22,5 km/h (4 Bft) O-SO 112 0 min 0,000 mm 0,0 UV-I 11 W/m 7,0 C 10,1 C 30,6 km/h (5 Bft) 100,00 %
03.06.2023 05:19 10,1 C 81 % 1017,5 hPa 0,0 l/m 20,9 km/h (4 Bft) SO 135 0 min 0,000 mm 0,0 UV-I 11 W/m 7,0 C 10,1 C 29,0 km/h (5 Bft) 95,65 %
03.06.2023 05:18 10,1 C 81 % 1017,4 hPa 0,0 l/m 20,9 km/h (4 Bft) O-SO 112 0 min 0,000 mm 0,0 UV-I 9 W/m 7,0 C 10,1 C 29,0 km/h (5 Bft) 100,00 %
03.06.2023 05:17 10,1 C 81 % 1017,4 hPa 0,0 l/m 20,9 km/h (4 Bft) O-SO 112 0 min 0,000 mm 0,0 UV-I 9 W/m 7,0 C 10,1 C 32,2 km/h (5 Bft) 100,00 %
03.06.2023 05:16 10,1 C 81 % 1017,4 hPa 0,0 l/m 20,9 km/h (4 Bft) O-SO 112 0 min 0,000 mm 0,0 UV-I 9 W/m 7,0 C 10,1 C 25,7 km/h (4 Bft) 100,00 %
03.06.2023 05:15 10,1 C 81 % 1017,4 hPa 0,0 l/m 20,9 km/h (4 Bft) O-SO 112 0 min 0,000 mm 0,0 UV-I 9 W/m 7,0 C 10,1 C 30,6 km/h (5 Bft) 91,30 %
03.06.2023 05:14 10,2 C 81 % 1017,4 hPa 0,0 l/m 20,9 km/h (4 Bft) O-SO 112 0 min 0,000 mm 0,0 UV-I 7 W/m 7,1 C 10,2 C 30,6 km/h (5 Bft) 100,00 %
03.06.2023 05:13 10,2 C 81 % 1017,4 hPa 0,0 l/m 19,3 km/h (3 Bft) O-SO 112 0 min 0,000 mm 0,0 UV-I 7 W/m 7,1 C 10,2 C 25,7 km/h (4 Bft) 100,00 %
03.06.2023 05:12 10,2 C 81 % 1017,3 hPa 0,0 l/m 25,7 km/h (4 Bft) O-SO 112 0 min 0,000 mm 0,0 UV-I 7 W/m 7,1 C 10,2 C 40,2 km/h (6 Bft) 100,00 %
03.06.2023 05:11 10,2 C 81 % 1017,3 hPa 0,0 l/m 24,1 km/h (4 Bft) O-SO 112 0 min 0,000 mm 0,0 UV-I 7 W/m 7,1 C 10,2 C 30,6 km/h (5 Bft) 100,00 %
03.06.2023 05:10 10,2 C 81 % 1017,4 hPa 0,0 l/m 19,3 km/h (3 Bft) O-SO 112 0 min 0,000 mm 0,0 UV-I 5 W/m 7,1 C 10,2 C 29,0 km/h (5 Bft) 95,65 %
03.06.2023 05:09 10,2 C 81 % 1017,3 hPa 0,0 l/m 20,9 km/h (4 Bft) O-SO 112 0 min 0,000 mm 0,0 UV-I 5 W/m 7,1 C 10,2 C 30,6 km/h (5 Bft) 95,65 %
03.06.2023 05:08 10,2 C 81 % 1017,3 hPa 0,0 l/m 27,4 km/h (4 Bft) O-SO 112 0 min 0,000 mm 0,0 UV-I 5 W/m 7,1 C 10,2 C 40,2 km/h (6 Bft) 100,00 %
03.06.2023 05:07 10,2 C 81 % 1017,3 hPa 0,0 l/m 25,7 km/h (4 Bft) O-SO 112 0 min 0,000 mm 0,0 UV-I 5 W/m 7,1 C 10,2 C 37,0 km/h (5 Bft) 100,00 %
03.06.2023 05:06 10,3 C 81 % 1017,3 hPa 0,0 l/m 22,5 km/h (4 Bft) O-SO 112 0 min 0,000 mm 0,0 UV-I 0 W/m 7,2 C 10,3 C 40,2 km/h (6 Bft) 100,00 %
03.06.2023 05:05 10,3 C 81 % 1017,3 hPa 0,0 l/m 19,3 km/h (3 Bft) O-SO 112 0 min 0,000 mm 0,0 UV-I 0 W/m 7,2 C 10,3 C 30,6 km/h (5 Bft) 100,00 %
03.06.2023 05:04 10,3 C 81 % 1017,3 hPa 0,0 l/m 20,9 km/h (4 Bft) O-SO 112 0 min 0,000 mm 0,0 UV-I 0 W/m 7,2 C 10,3 C 27,4 km/h (4 Bft) 100,00 %
03.06.2023 05:03 10,3 C 81 % 1017,2 hPa 0,0 l/m 22,5 km/h (4 Bft) O-SO 112 0 min 0,000 mm 0,0 UV-I 0 W/m 7,2 C 10,3 C 25,7 km/h (4 Bft) 100,00 %
03.06.2023 05:02 10,3 C 81 % 1017,2 hPa 0,0 l/m 22,5 km/h (4 Bft) O-SO 112 0 min 0,000 mm 0,0 UV-I 0 W/m 7,2 C 10,3 C 35,4 km/h (5 Bft) 100,00 %
03.06.2023 05:01 10,3 C 81 % 1017,2 hPa 0,0 l/m 20,9 km/h (4 Bft) O-SO 112 0 min 0,000 mm 0,0 UV-I 0 W/m 7,2 C 10,3 C 30,6 km/h (5 Bft) 91,30 %
03.06.2023 05:00 10,3 C 81 % 1017,2 hPa 0,0 l/m 24,1 km/h (4 Bft) O-SO 112 0 min 0,051 mm 0,0 UV-I 0 W/m 7,2 C 10,3 C 30,6 km/h (5 Bft) 100,00 %
03.06.2023 04:59 10,4 C 81 % 1017,2 hPa 0,0 l/m 20,9 km/h (4 Bft) O-SO 112 0 min 0,000 mm 0,0 UV-I 0 W/m 7,3 C 10,4 C 29,0 km/h (5 Bft) 100,00 %
03.06.2023 04:58 10,4 C 81 % 1017,2 hPa 0,0 l/m 22,5 km/h (4 Bft) O-SO 112 0 min 0,000 mm 0,0 UV-I 0 W/m 7,3 C 10,4 C 33,8 km/h (5 Bft) 100,00 %
03.06.2023 04:57 10,4 C 81 % 1017,2 hPa 0,0 l/m 22,5 km/h (4 Bft) SO 135 0 min 0,000 mm 0,0 UV-I 0 W/m 7,3 C 10,4 C 33,8 km/h (5 Bft) 100,00 %
03.06.2023 04:56 10,4 C 81 % 1017,3 hPa 0,0 l/m 20,9 km/h (4 Bft) O-SO 112 0 min 0,000 mm 0,0 UV-I 0 W/m 7,3 C 10,4 C 29,0 km/h (5 Bft) 95,65 %
03.06.2023 04:55 10,4 C 81 % 1017,2 hPa 0,0 l/m 25,7 km/h (4 Bft) O-SO 112 0 min 0,000 mm 0,0 UV-I 0 W/m 7,3 C 10,4 C 40,2 km/h (6 Bft) 100,00 %
03.06.2023 04:54 10,4 C 81 % 1017,2 hPa 0,0 l/m 19,3 km/h (3 Bft) O-SO 112 0 min 0,000 mm 0,0 UV-I 0 W/m 7,3 C 10,4 C 25,7 km/h (4 Bft) 100,00 %
03.06.2023 04:53 10,4 C 81 % 1017,1 hPa 0,0 l/m 22,5 km/h (4 Bft) O-SO 112 0 min 0,000 mm 0,0 UV-I 0 W/m 7,3 C 10,4 C 29,0 km/h (5 Bft) 100,00 %
03.06.2023 04:52 10,4 C 81 % 1017,3 hPa 0,0 l/m 22,5 km/h (4 Bft) O-SO 112 0 min 0,000 mm 0,0 UV-I 0 W/m 7,3 C 10,4 C 27,4 km/h (4 Bft) 100,00 %
03.06.2023 04:51 10,4 C 81 % 1017,2 hPa 0,0 l/m 22,5 km/h (4 Bft) O-SO 112 0 min 0,000 mm 0,0 UV-I 0 W/m 7,3 C 10,4 C 30,6 km/h (5 Bft) 100,00 %
03.06.2023 04:50 10,5 C 81 % 1017,1 hPa 0,0 l/m 22,5 km/h (4 Bft) O-SO 112 0 min 0,000 mm 0,0 UV-I 0 W/m 7,4 C 10,5 C 33,8 km/h (5 Bft) 100,00 %
03.06.2023 04:49 10,4 C 81 % 1017,1 hPa 0,0 l/m 19,3 km/h (3 Bft) O-SO 112 0 min 0,000 mm 0,0 UV-I 0 W/m 7,3 C 10,4 C 24,1 km/h (4 Bft) 100,00 %
03.06.2023 04:48 10,5 C 81 % 1017,1 hPa 0,0 l/m 22,5 km/h (4 Bft) O-SO 112 0 min 0,000 mm 0,0 UV-I 0 W/m 7,4 C 10,5 C 29,0 km/h (5 Bft) 95,65 %
03.06.2023 04:47 10,5 C 81 % 1017,0 hPa 0,0 l/m 20,9 km/h (4 Bft) O-SO 112 0 min 0,000 mm 0,0 UV-I 0 W/m 7,4 C 10,5 C 25,7 km/h (4 Bft) 100,00 %
03.06.2023 04:46 10,5 C 81 % 1017,1 hPa 0,0 l/m 22,5 km/h (4 Bft) O-SO 112 0 min 0,000 mm 0,0 UV-I 0 W/m 7,4 C 10,5 C 38,6 km/h (5 Bft) 95,65 %
03.06.2023 04:45 10,6 C 81 % 1017,1 hPa 0,0 l/m 20,9 km/h (4 Bft) O-SO 112 0 min 0,000 mm 0,0 UV-I 0 W/m 7,5 C 10,6 C 27,4 km/h (4 Bft) 100,00 %
03.06.2023 04:44 10,6 C 81 % 1017,0 hPa 0,0 l/m 24,1 km/h (4 Bft) O-SO 112 0 min 0,000 mm 0,0 UV-I 0 W/m 7,5 C 10,6 C 30,6 km/h (5 Bft) 100,00 %
03.06.2023 04:43 10,6 C 80 % 1016,9 hPa 0,0 l/m 20,9 km/h (4 Bft) O-SO 112 0 min 0,000 mm 0,0 UV-I 0 W/m 7,3 C 10,6 C 25,7 km/h (4 Bft) 100,00 %
03.06.2023 04:42 10,6 C 81 % 1016,8 hPa 0,0 l/m 20,9 km/h (4 Bft) O 90 0 min 0,000 mm 0,0 UV-I 0 W/m 7,5 C 10,6 C 37,0 km/h (5 Bft) 100,00 %
03.06.2023 04:41 10,7 C 81 % 1016,9 hPa 0,0 l/m 22,5 km/h (4 Bft) O-SO 112 0 min 0,000 mm 0,0 UV-I 0 W/m 7,6 C 10,7 C 33,8 km/h (5 Bft) 100,00 %
03.06.2023 04:40 10,7 C 80 % 1017,0 hPa 0,0 l/m 24,1 km/h (4 Bft) O-SO 112 0 min 0,000 mm 0,0 UV-I 0 W/m 7,4 C 10,7 C 35,4 km/h (5 Bft) 100,00 %
03.06.2023 04:39 10,7 C 80 % 1017,0 hPa 0,0 l/m 17,7 km/h (3 Bft) O-SO 112 0 min 0,000 mm 0,0 UV-I 0 W/m 7,4 C 10,7 C 22,5 km/h (4 Bft) 100,00 %
03.06.2023 04:38 10,7 C 80 % 1017,0 hPa 0,0 l/m 24,1 km/h (4 Bft) O-SO 112 0 min 0,000 mm 0,0 UV-I 0 W/m 7,4 C 10,7 C 29,0 km/h (5 Bft) 100,00 %
03.06.2023 04:37 10,7 C 80 % 1016,8 hPa 0,0 l/m 22,5 km/h (4 Bft) O-SO 112 0 min 0,000 mm 0,0 UV-I 0 W/m 7,4 C 10,7 C 32,2 km/h (5 Bft) 95,65 %
03.06.2023 04:36 10,7 C 80 % 1016,8 hPa 0,0 l/m 19,3 km/h (3 Bft) O-SO 112 0 min 0,000 mm 0,0 UV-I 0 W/m 7,4 C 10,7 C 24,1 km/h (4 Bft) 100,00 %
03.06.2023 04:35 10,7 C 80 % 1016,8 hPa 0,0 l/m 19,3 km/h (3 Bft) O-SO 112 0 min 0,000 mm 0,0 UV-I 0 W/m 7,4 C 10,7 C 24,1 km/h (4 Bft) 100,00 %
03.06.2023 04:34 10,7 C 80 % 1016,9 hPa 0,0 l/m 22,5 km/h (4 Bft) O-SO 112 0 min 0,000 mm 0,0 UV-I 0 W/m 7,4 C 10,7 C 30,6 km/h (5 Bft) 95,65 %
03.06.2023 04:33 10,7 C 80 % 1016,8 hPa 0,0 l/m 17,7 km/h (3 Bft) O-SO 112 0 min 0,000 mm 0,0 UV-I 0 W/m 7,4 C 10,7 C 22,5 km/h (4 Bft) 100,00 %
03.06.2023 04:32 10,8 C 80 % 1016,9 hPa 0,0 l/m 20,9 km/h (4 Bft) O-SO 112 0 min 0,000 mm 0,0 UV-I 0 W/m 7,5 C 10,8 C 30,6 km/h (5 Bft) 100,00 %
03.06.2023 04:31 10,8 C 80 % 1017,0 hPa 0,0 l/m 19,3 km/h (3 Bft) O-SO 112 0 min 0,000 mm 0,0 UV-I 0 W/m 7,5 C 10,8 C 25,7 km/h (4 Bft) 95,65 %
03.06.2023 04:30 10,8 C 80 % 1017,0 hPa 0,0 l/m 20,9 km/h (4 Bft) O-SO 112 0 min 0,000 mm 0,0 UV-I 0 W/m 7,5 C 10,8 C 29,0 km/h (5 Bft) 100,00 %
03.06.2023 04:29 10,8 C 80 % 1016,8 hPa 0,0 l/m 24,1 km/h (4 Bft) O-SO 112 0 min 0,000 mm 0,0 UV-I 0 W/m 7,5 C 10,8 C 33,8 km/h (5 Bft) 100,00 %
03.06.2023 04:28 10,8 C 80 % 1016,8 hPa 0,0 l/m 17,7 km/h (3 Bft) O-SO 112 0 min 0,000 mm 0,0 UV-I 0 W/m 7,5 C 10,8 C 25,7 km/h (4 Bft) 86,96 %
03.06.2023 04:27 10,9 C 80 % 1016,8 hPa 0,0 l/m 20,9 km/h (4 Bft) O-SO 112 0 min 0,000 mm 0,0 UV-I 0 W/m 7,6 C 10,9 C 30,6 km/h (5 Bft) 100,00 %
03.06.2023 04:26 10,8 C 80 % 1016,8 hPa 0,0 l/m 24,1 km/h (4 Bft) O-SO 112 0 min 0,000 mm 0,0 UV-I 0 W/m 7,5 C 10,8 C 30,6 km/h (5 Bft) 100,00 %
03.06.2023 04:25 10,9 C 80 % 1016,8 hPa 0,0 l/m 20,9 km/h (4 Bft) O-SO 112 0 min 0,000 mm 0,0 UV-I 0 W/m 7,6 C 10,9 C 29,0 km/h (5 Bft) 95,65 %
03.06.2023 04:24 10,9 C 80 % 1016,8 hPa 0,0 l/m 19,3 km/h (3 Bft) O-SO 112 0 min 0,000 mm 0,0 UV-I 0 W/m 7,6 C 10,9 C 33,8 km/h (5 Bft) 100,00 %
03.06.2023 04:23 10,9 C 79 % 1016,8 hPa 0,0 l/m 20,9 km/h (4 Bft) O-SO 112 0 min 0,000 mm 0,0 UV-I 0 W/m 7,4 C 10,9 C 25,7 km/h (4 Bft) 100,00 %
03.06.2023 04:22 10,9 C 79 % 1016,8 hPa 0,0 l/m 20,9 km/h (4 Bft) O-SO 112 0 min 0,000 mm 0,0 UV-I 0 W/m 7,4 C 10,9 C 29,0 km/h (5 Bft) 95,65 %
03.06.2023 04:21 10,9 C 79 % 1016,7 hPa 0,0 l/m 19,3 km/h (3 Bft) O-SO 112 0 min 0,000 mm 0,0 UV-I 0 W/m 7,4 C 10,9 C 29,0 km/h (5 Bft) 100,00 %
03.06.2023 04:20 10,9 C 79 % 1016,7 hPa 0,0 l/m 24,1 km/h (4 Bft) O-SO 112 0 min 0,000 mm 0,0 UV-I 0 W/m 7,4 C 10,9 C 33,8 km/h (5 Bft) 100,00 %
03.06.2023 04:19 11,0 C 79 % 1016,8 hPa 0,0 l/m 19,3 km/h (3 Bft) O-SO 112 0 min 0,000 mm 0,0 UV-I 0 W/m 7,5 C 11,0 C 27,4 km/h (4 Bft) 100,00 %
03.06.2023 04:18 11,0 C 79 % 1016,8 hPa 0,0 l/m 20,9 km/h (4 Bft) O-SO 112 0 min 0,000 mm 0,0 UV-I 0 W/m 7,5 C 11,0 C 27,4 km/h (4 Bft) 100,00 %
03.06.2023 04:17 11,0 C 79 % 1016,8 hPa 0,0 l/m 25,7 km/h (4 Bft) O-SO 112 0 min 0,000 mm 0,0 UV-I 0 W/m 7,5 C 11,0 C 43,5 km/h (6 Bft) 91,30 %
03.06.2023 04:16 11,0 C 79 % 1016,7 hPa 0,0 l/m 27,4 km/h (4 Bft) O-SO 112 0 min 0,000 mm 0,0 UV-I 0 W/m 7,5 C 11,0 C 43,5 km/h (6 Bft) 100,00 %
03.06.2023 04:15 11,0 C 79 % 1016,7 hPa 0,0 l/m 20,9 km/h (4 Bft) SO 135 0 min 0,000 mm 0,0 UV-I 0 W/m 7,5 C 11,0 C 27,4 km/h (4 Bft) 100,00 %
03.06.2023 04:14 11,1 C 79 % 1016,7 hPa 0,0 l/m 19,3 km/h (3 Bft) O-SO 112 0 min 0,000 mm 0,0 UV-I 0 W/m 7,6 C 11,1 C 25,7 km/h (4 Bft) 95,65 %
03.06.2023 04:13 11,1 C 79 % 1016,8 hPa 0,0 l/m 24,1 km/h (4 Bft) O-SO 112 0 min 0,000 mm 0,0 UV-I 0 W/m 7,6 C 11,1 C 30,6 km/h (5 Bft) 100,00 %
03.06.2023 04:12 11,1 C 79 % 1016,8 hPa 0,0 l/m 17,7 km/h (3 Bft) O-SO 112 0 min 0,000 mm 0,0 UV-I 0 W/m 7,6 C 11,1 C 25,7 km/h (4 Bft) 100,00 %
03.06.2023 04:11 11,1 C 79 % 1016,8 hPa 0,0 l/m 20,9 km/h (4 Bft) O-SO 112 0 min 0,000 mm 0,0 UV-I 0 W/m 7,6 C 11,1 C 27,4 km/h (4 Bft) 100,00 %
03.06.2023 04:10 11,1 C 79 % 1016,8 hPa 0,0 l/m 22,5 km/h (4 Bft) O-SO 112 0 min 0,000 mm 0,0 UV-I 0 W/m 7,6 C 11,1 C 30,6 km/h (5 Bft) 100,00 %
03.06.2023 04:09 11,1 C 79 % 1016,8 hPa 0,0 l/m 20,9 km/h (4 Bft) O-SO 112 0 min 0,000 mm 0,0 UV-I 0 W/m 7,6 C 11,1 C 32,2 km/h (5 Bft) 100,00 %
03.06.2023 04:08 11,1 C 79 % 1016,8 hPa 0,0 l/m 19,3 km/h (3 Bft) O-SO 112 0 min 0,000 mm 0,0 UV-I 0 W/m 7,6 C 11,1 C 22,5 km/h (4 Bft) 95,65 %
03.06.2023 04:07 11,1 C 79 % 1016,8 hPa 0,0 l/m 22,5 km/h (4 Bft) O-SO 112 0 min 0,000 mm 0,0 UV-I 0 W/m 7,6 C 11,1 C 33,8 km/h (5 Bft) 100,00 %
03.06.2023 04:06 11,1 C 79 % 1016,8 hPa 0,0 l/m 17,7 km/h (3 Bft) O-SO 112 0 min 0,000 mm 0,0 UV-I 0 W/m 7,6 C 11,1 C 29,0 km/h (5 Bft) 100,00 %
03.06.2023 04:05 11,1 C 79 % 1016,8 hPa 0,0 l/m 17,7 km/h (3 Bft) O-SO 112 0 min 0,000 mm 0,0 UV-I 0 W/m 7,6 C 11,1 C 24,1 km/h (4 Bft) 100,00 %
03.06.2023 04:04 11,1 C 79 % 1016,8 hPa 0,0 l/m 19,3 km/h (3 Bft) O-SO 112 0 min 0,000 mm 0,0 UV-I 0 W/m 7,6 C 11,1 C 27,4 km/h (4 Bft) 100,00 %
03.06.2023 04:03 11,1 C 79 % 1016,9 hPa 0,0 l/m 22,5 km/h (4 Bft) O-SO 112 0 min 0,000 mm 0,0 UV-I 0 W/m 7,6 C 11,1 C 29,0 km/h (5 Bft) 91,30 %
03.06.2023 04:02 11,2 C 79 % 1016,9 hPa 0,0 l/m 17,7 km/h (3 Bft) SO 135 0 min 0,000 mm 0,0 UV-I 0 W/m 7,7 C 11,2 C 22,5 km/h (4 Bft) 100,00 %
03.06.2023 04:01 11,1 C 79 % 1016,7 hPa 0,0 l/m 24,1 km/h (4 Bft) O-SO 112 0 min 0,000 mm 0,0 UV-I 0 W/m 7,6 C 11,1 C 32,2 km/h (5 Bft) 100,00 %
03.06.2023 04:00 11,2 C 79 % 1016,8 hPa 0,0 l/m 20,9 km/h (4 Bft) O-SO 112 0 min 0,051 mm 0,0 UV-I 0 W/m 7,7 C 11,2 C 32,2 km/h (5 Bft) 95,65 %
03.06.2023 03:59 11,2 C 79 % 1016,9 hPa 0,0 l/m 19,3 km/h (3 Bft) O-SO 112 0 min 0,000 mm 0,0 UV-I 0 W/m 7,7 C 11,2 C 27,4 km/h (4 Bft) 100,00 %
03.06.2023 03:58 11,2 C 78 % 1016,8 hPa 0,0 l/m 19,3 km/h (3 Bft) O-SO 112 0 min 0,000 mm 0,0 UV-I 0 W/m 7,5 C 11,2 C 25,7 km/h (4 Bft) 100,00 %
03.06.2023 03:57 11,2 C 78 % 1016,9 hPa 0,0 l/m 19,3 km/h (3 Bft) O-SO 112 0 min 0,000 mm 0,0 UV-I 0 W/m 7,5 C 11,2 C 29,0 km/h (5 Bft) 100,00 %
03.06.2023 03:56 11,2 C 78 % 1016,9 hPa 0,0 l/m 19,3 km/h (3 Bft) O-SO 112 0 min 0,000 mm 0,0 UV-I 0 W/m 7,5 C 11,2 C 29,0 km/h (5 Bft) 100,00 %
03.06.2023 03:55 11,2 C 78 % 1016,8 hPa 0,0 l/m 20,9 km/h (4 Bft) O-SO 112 0 min 0,000 mm 0,0 UV-I 0 W/m 7,5 C 11,2 C 32,2 km/h (5 Bft) 95,65 %
03.06.2023 03:54 11,3 C 78 % 1016,8 hPa 0,0 l/m 16,1 km/h (3 Bft) O-SO 112 0 min 0,000 mm 0,0 UV-I 0 W/m 7,6 C 11,3 C 22,5 km/h (4 Bft) 100,00 %
03.06.2023 03:53 11,3 C 78 % 1016,9 hPa 0,0 l/m 19,3 km/h (3 Bft) O-SO 112 0 min 0,000 mm 0,0 UV-I 0 W/m 7,6 C 11,3 C 25,7 km/h (4 Bft) 100,00 %
03.06.2023 03:52 11,3 C 78 % 1016,8 hPa 0,0 l/m 19,3 km/h (3 Bft) O-SO 112 0 min 0,000 mm 0,0 UV-I 0 W/m 7,6 C 11,3 C 30,6 km/h (5 Bft) 100,00 %
03.06.2023 03:51 11,3 C 78 % 1016,9 hPa 0,0 l/m 20,9 km/h (4 Bft) O-SO 112 0 min 0,000 mm 0,0 UV-I 0 W/m 7,6 C 11,3 C 29,0 km/h (5 Bft) 95,65 %
03.06.2023 03:50 11,3 C 78 % 1016,8 hPa 0,0 l/m 22,5 km/h (4 Bft) O-SO 112 0 min 0,000 mm 0,0 UV-I 0 W/m 7,6 C 11,3 C 29,0 km/h (5 Bft) 100,00 %
03.06.2023 03:49 11,3 C 78 % 1016,8 hPa 0,0 l/m 24,1 km/h (4 Bft) O-SO 112 0 min 0,000 mm 0,0 UV-I 0 W/m 7,6 C 11,3 C 35,4 km/h (5 Bft) 100,00 %
03.06.2023 03:48 11,4 C 78 % 1016,9 hPa 0,0 l/m 22,5 km/h (4 Bft) O-SO 112 0 min 0,000 mm 0,0 UV-I 0 W/m 7,7 C 11,4 C 32,2 km/h (5 Bft) 100,00 %
03.06.2023 03:47 11,4 C 78 % 1016,9 hPa 0,0 l/m 17,7 km/h (3 Bft) O-SO 112 0 min 0,000 mm 0,0 UV-I 0 W/m 7,7 C 11,4 C 25,7 km/h (4 Bft) 100,00 %
03.06.2023 03:46 11,4 C 78 % 1016,9 hPa 0,0 l/m 20,9 km/h (4 Bft) O-SO 112 0 min 0,000 mm 0,0 UV-I 0 W/m 7,7 C 11,4 C 27,4 km/h (4 Bft) 95,65 %
03.06.2023 03:45 11,4 C 78 % 1016,9 hPa 0,0 l/m 24,1 km/h (4 Bft) O-SO 112 0 min 0,000 mm 0,0 UV-I 0 W/m 7,7 C 11,4 C 29,0 km/h (5 Bft) 100,00 %
03.06.2023 03:44 11,4 C 78 % 1016,9 hPa 0,0 l/m 20,9 km/h (4 Bft) O-SO 112 0 min 0,000 mm 0,0 UV-I 0 W/m 7,7 C 11,4 C 27,4 km/h (4 Bft) 95,65 %
03.06.2023 03:43 11,4 C 78 % 1016,9 hPa 0,0 l/m 22,5 km/h (4 Bft) O-SO 112 0 min 0,000 mm 0,0 UV-I 0 W/m 7,7 C 11,4 C 30,6 km/h (5 Bft) 95,65 %
03.06.2023 03:42 11,4 C 78 % 1016,9 hPa 0,0 l/m 19,3 km/h (3 Bft) O-SO 112 0 min 0,000 mm 0,0 UV-I 0 W/m 7,7 C 11,4 C 29,0 km/h (5 Bft) 100,00 %
03.06.2023 03:41 11,4 C 78 % 1016,8 hPa 0,0 l/m 20,9 km/h (4 Bft) O-SO 112 0 min 0,000 mm 0,0 UV-I 0 W/m 7,7 C 11,4 C 33,8 km/h (5 Bft) 100,00 %
03.06.2023 03:40 11,4 C 78 % 1016,8 hPa 0,0 l/m 22,5 km/h (4 Bft) O-SO 112 0 min 0,000 mm 0,0 UV-I 0 W/m 7,7 C 11,4 C 30,6 km/h (5 Bft) 100,00 %
03.06.2023 03:39 11,5 C 78 % 1016,8 hPa 0,0 l/m 24,1 km/h (4 Bft) O-SO 112 0 min 0,000 mm 0,0 UV-I 0 W/m 7,8 C 11,5 C 29,0 km/h (5 Bft) 100,00 %
03.06.2023 03:38 11,5 C 78 % 1016,9 hPa 0,0 l/m 22,5 km/h (4 Bft) O-SO 112 0 min 0,000 mm 0,0 UV-I 0 W/m 7,8 C 11,5 C 32,2 km/h (5 Bft) 95,65 %
03.06.2023 03:37 11,6 C 78 % 1016,9 hPa 0,0 l/m 19,3 km/h (3 Bft) O-SO 112 0 min 0,000 mm 0,0 UV-I 0 W/m 7,9 C 11,6 C 25,7 km/h (4 Bft) 100,00 %
03.06.2023 03:36 11,6 C 78 % 1016,9 hPa 0,0 l/m 20,9 km/h (4 Bft) SO 135 0 min 0,000 mm 0,0 UV-I 0 W/m 7,9 C 11,6 C 32,2 km/h (5 Bft) 95,65 %
03.06.2023 03:35 11,6 C 78 % 1016,9 hPa 0,0 l/m 19,3 km/h (3 Bft) O-SO 112 0 min 0,000 mm 0,0 UV-I 0 W/m 7,9 C 11,6 C 24,1 km/h (4 Bft) 100,00 %
03.06.2023 03:34 11,6 C 78 % 1017,0 hPa 0,0 l/m 20,9 km/h (4 Bft) O-SO 112 0 min 0,000 mm 0,0 UV-I 0 W/m 7,9 C 11,6 C 25,7 km/h (4 Bft) 100,00 %
03.06.2023 03:33 11,6 C 78 % 1017,0 hPa 0,0 l/m 19,3 km/h (3 Bft) O-SO 112 0 min 0,000 mm 0,0 UV-I 0 W/m 7,9 C 11,6 C 27,4 km/h (4 Bft) 100,00 %
03.06.2023 03:32 11,6 C 78 % 1017,0 hPa 0,0 l/m 19,3 km/h (3 Bft) O-SO 112 0 min 0,000 mm 0,0 UV-I 0 W/m 7,9 C 11,6 C 27,4 km/h (4 Bft) 100,00 %
03.06.2023 03:31 11,6 C 78 % 1017,0 hPa 0,0 l/m 20,9 km/h (4 Bft) O-SO 112 0 min 0,000 mm 0,0 UV-I 0 W/m 7,9 C 11,6 C 29,0 km/h (5 Bft) 100,00 %
03.06.2023 03:30 11,7 C 77 % 1017,1 hPa 0,0 l/m 20,9 km/h (4 Bft) O-SO 112 0 min 0,000 mm 0,0 UV-I 0 W/m 7,8 C 11,7 C 25,7 km/h (4 Bft) 100,00 %
03.06.2023 03:29 11,7 C 77 % 1017,0 hPa 0,0 l/m 24,1 km/h (4 Bft) O-SO 112 0 min 0,000 mm 0,0 UV-I 0 W/m 7,8 C 11,7 C 30,6 km/h (5 Bft) 100,00 %
03.06.2023 03:28 11,7 C 77 % 1017,0 hPa 0,0 l/m 20,9 km/h (4 Bft) O-SO 112 0 min 0,000 mm 0,0 UV-I 0 W/m 7,8 C 11,7 C 29,0 km/h (5 Bft) 100,00 %
03.06.2023 03:27 11,7 C 77 % 1017,1 hPa 0,0 l/m 19,3 km/h (3 Bft) O-SO 112 0 min 0,000 mm 0,0 UV-I 0 W/m 7,8 C 11,7 C 22,5 km/h (4 Bft) 100,00 %
03.06.2023 03:26 11,7 C 77 % 1017,1 hPa 0,0 l/m 22,5 km/h (4 Bft) O-SO 112 0 min 0,000 mm 0,0 UV-I 0 W/m 7,8 C 11,7 C 32,2 km/h (5 Bft) 100,00 %
03.06.2023 03:25 11,7 C 77 % 1017,0 hPa 0,0 l/m 22,5 km/h (4 Bft) O-SO 112 0 min 0,000 mm 0,0 UV-I 0 W/m 7,8 C 11,7 C 27,4 km/h (4 Bft) 100,00 %
03.06.2023 03:24 11,8 C 77 % 1017,1 hPa 0,0 l/m 19,3 km/h (3 Bft) O-SO 112 0 min 0,000 mm 0,0 UV-I 0 W/m 7,9 C 11,8 C 24,1 km/h (4 Bft) 95,65 %
03.06.2023 03:23 11,8 C 77 % 1017,1 hPa 0,0 l/m 20,9 km/h (4 Bft) O-SO 112 0 min 0,000 mm 0,0 UV-I 0 W/m 7,9 C 11,8 C 29,0 km/h (5 Bft) 100,00 %
03.06.2023 03:22 11,8 C 77 % 1017,1 hPa 0,0 l/m 19,3 km/h (3 Bft) O-SO 112 0 min 0,000 mm 0,0 UV-I 0 W/m 7,9 C 11,8 C 27,4 km/h (4 Bft) 95,65 %
03.06.2023 03:21 11,8 C 77 % 1017,2 hPa 0,0 l/m 16,1 km/h (3 Bft) O-SO 112 0 min 0,000 mm 0,0 UV-I 0 W/m 7,9 C 11,8 C 24,1 km/h (4 Bft) 100,00 %
03.06.2023 03:20 11,8 C 77 % 1017,1 hPa 0,0 l/m 19,3 km/h (3 Bft) O-SO 112 0 min 0,000 mm 0,0 UV-I 0 W/m 7,9 C 11,8 C 22,5 km/h (4 Bft) 100,00 %
03.06.2023 03:19 11,8 C 77 % 1017,0 hPa 0,0 l/m 19,3 km/h (3 Bft) O-SO 112 0 min 0,000 mm 0,0 UV-I 0 W/m 7,9 C 11,8 C 25,7 km/h (4 Bft) 100,00 %
03.06.2023 03:18 11,8 C 77 % 1017,1 hPa 0,0 l/m 24,1 km/h (4 Bft) O-SO 112 0 min 0,000 mm 0,0 UV-I 0 W/m 7,9 C 11,8 C 32,2 km/h (5 Bft) 100,00 %
03.06.2023 03:17 11,8 C 77 % 1017,1 hPa 0,0 l/m 20,9 km/h (4 Bft) O-SO 112 0 min 0,000 mm 0,0 UV-I 0 W/m 7,9 C 11,8 C 30,6 km/h (5 Bft) 100,00 %
03.06.2023 03:16 11,8 C 77 % 1017,0 hPa 0,0 l/m 19,3 km/h (3 Bft) O-SO 112 0 min 0,000 mm 0,0 UV-I 0 W/m 7,9 C 11,8 C 29,0 km/h (5 Bft) 100,00 %
03.06.2023 03:15 11,8 C 77 % 1017,0 hPa 0,0 l/m 22,5 km/h (4 Bft) O-SO 112 0 min 0,000 mm 0,0 UV-I 0 W/m 7,9 C 11,8 C 32,2 km/h (5 Bft) 100,00 %
03.06.2023 03:14 11,9 C 77 % 1017,1 hPa 0,0 l/m 20,9 km/h (4 Bft) O-SO 112 0 min 0,000 mm 0,0 UV-I 0 W/m 8,0 C 11,9 C 29,0 km/h (5 Bft) 95,65 %
03.06.2023 03:13 11,9 C 77 % 1017,1 hPa 0,0 l/m 19,3 km/h (3 Bft) O-SO 112 0 min 0,000 mm 0,0 UV-I 0 W/m 8,0 C 11,9 C 24,1 km/h (4 Bft) 100,00 %
03.06.2023 03:12 11,9 C 77 % 1017,1 hPa 0,0 l/m 17,7 km/h (3 Bft) O-SO 112 0 min 0,000 mm 0,0 UV-I 0 W/m 8,0 C 11,9 C 24,1 km/h (4 Bft) 100,00 %
03.06.2023 03:11 11,9 C 77 % 1017,1 hPa 0,0 l/m 24,1 km/h (4 Bft) O-SO 112 0 min 0,000 mm 0,0 UV-I 0 W/m 8,0 C 11,9 C 30,6 km/h (5 Bft) 100,00 %
03.06.2023 03:10 11,9 C 77 % 1017,1 hPa 0,0 l/m 20,9 km/h (4 Bft) O-SO 112 0 min 0,000 mm 0,0 UV-I 0 W/m 8,0 C 11,9 C 27,4 km/h (4 Bft) 100,00 %
03.06.2023 03:09 12,0 C 77 % 1017,1 hPa 0,0 l/m 17,7 km/h (3 Bft) O-SO 112 0 min 0,000 mm 0,0 UV-I 0 W/m 8,1 C 12,0 C 24,1 km/h (4 Bft) 100,00 %
03.06.2023 03:08 12,0 C 77 % 1017,1 hPa 0,0 l/m 17,7 km/h (3 Bft) O-SO 112 0 min 0,000 mm 0,0 UV-I 0 W/m 8,1 C 12,0 C 25,7 km/h (4 Bft) 100,00 %
03.06.2023 03:07 12,1 C 77 % 1017,1 hPa 0,0 l/m 20,9 km/h (4 Bft) O-SO 112 0 min 0,000 mm 0,0 UV-I 0 W/m 8,2 C 12,1 C 30,6 km/h (5 Bft) 100,00 %
03.06.2023 03:06 12,1 C 77 % 1017,1 hPa 0,0 l/m 20,9 km/h (4 Bft) O-SO 112 0 min 0,000 mm 0,0 UV-I 0 W/m 8,2 C 12,1 C 32,2 km/h (5 Bft) 100,00 %
03.06.2023 03:05 12,1 C 76 % 1017,1 hPa 0,0 l/m 19,3 km/h (3 Bft) SO 135 0 min 0,000 mm 0,0 UV-I 0 W/m 8,0 C 12,1 C 29,0 km/h (5 Bft) 100,00 %
03.06.2023 03:04 12,1 C 77 % 1017,1 hPa 0,0 l/m 20,9 km/h (4 Bft) O-SO 112 0 min 0,000 mm 0,0 UV-I 0 W/m 8,2 C 12,1 C 29,0 km/h (5 Bft) 100,00 %
03.06.2023 03:03 12,1 C 77 % 1017,1 hPa 0,0 l/m 20,9 km/h (4 Bft) O-SO 112 0 min 0,000 mm 0,0 UV-I 0 W/m 8,2 C 12,1 C 25,7 km/h (4 Bft) 95,65 %
03.06.2023 03:02 12,1 C 77 % 1017,2 hPa 0,0 l/m 19,3 km/h (3 Bft) SO 135 0 min 0,000 mm 0,0 UV-I 0 W/m 8,2 C 12,1 C 33,8 km/h (5 Bft) 100,00 %
03.06.2023 03:01 12,1 C 77 % 1017,2 hPa 0,0 l/m 19,3 km/h (3 Bft) O-SO 112 0 min 0,000 mm 0,0 UV-I 0 W/m 8,2 C 12,1 C 24,1 km/h (4 Bft) 100,00 %
03.06.2023 03:00 12,2 C 77 % 1017,2 hPa 0,0 l/m 20,9 km/h (4 Bft) O-SO 112 0 min 0,051 mm 0,0 UV-I 0 W/m 8,3 C 12,2 C 27,4 km/h (4 Bft) 95,65 %
03.06.2023 02:59 12,2 C 77 % 1017,1 hPa 0,0 l/m 19,3 km/h (3 Bft) O-SO 112 0 min 0,000 mm 0,0 UV-I 0 W/m 8,3 C 12,2 C 24,1 km/h (4 Bft) 100,00 %
03.06.2023 02:58 12,2 C 77 % 1017,2 hPa 0,0 l/m 22,5 km/h (4 Bft) O-SO 112 0 min 0,000 mm 0,0 UV-I 0 W/m 8,3 C 12,2 C 32,2 km/h (5 Bft) 95,65 %
03.06.2023 02:57 12,2 C 77 % 1017,0 hPa 0,0 l/m 22,5 km/h (4 Bft) O-SO 112 0 min 0,000 mm 0,0 UV-I 0 W/m 8,3 C 12,2 C 30,6 km/h (5 Bft) 100,00 %
03.06.2023 02:56 12,2 C 76 % 1017,1 hPa 0,0 l/m 24,1 km/h (4 Bft) SO 135 0 min 0,000 mm 0,0 UV-I 0 W/m 8,1 C 12,2 C 40,2 km/h (6 Bft) 100,00 %
03.06.2023 02:55 12,2 C 77 % 1017,1 hPa 0,0 l/m 22,5 km/h (4 Bft) O-SO 112 0 min 0,000 mm 0,0 UV-I 0 W/m 8,3 C 12,2 C 25,7 km/h (4 Bft) 95,65 %
03.06.2023 02:54 12,3 C 77 % 1017,2 hPa 0,0 l/m 20,9 km/h (4 Bft) O-SO 112 0 min 0,000 mm 0,0 UV-I 0 W/m 8,4 C 12,3 C 24,1 km/h (4 Bft) 100,00 %
03.06.2023 02:53 12,3 C 77 % 1017,2 hPa 0,0 l/m 19,3 km/h (3 Bft) O-SO 112 0 min 0,000 mm 0,0 UV-I 0 W/m 8,4 C 12,3 C 41,8 km/h (6 Bft) 100,00 %
03.06.2023 02:52 12,3 C 76 % 1017,3 hPa 0,0 l/m 22,5 km/h (4 Bft) O-SO 112 0 min 0,000 mm 0,0 UV-I 0 W/m 8,2 C 12,3 C 33,8 km/h (5 Bft) 100,00 %
03.06.2023 02:51 12,3 C 77 % 1017,3 hPa 0,0 l/m 24,1 km/h (4 Bft) O-SO 112 0 min 0,000 mm 0,0 UV-I 0 W/m 8,4 C 12,3 C 41,8 km/h (6 Bft) 100,00 %
03.06.2023 02:50 12,3 C 77 % 1017,3 hPa 0,0 l/m 20,9 km/h (4 Bft) O-SO 112 0 min 0,000 mm 0,0 UV-I 0 W/m 8,4 C 12,3 C 30,6 km/h (5 Bft) 100,00 %
03.06.2023 02:49 12,3 C 77 % 1017,3 hPa 0,0 l/m 16,1 km/h (3 Bft) O-SO 112 0 min 0,000 mm 0,0 UV-I 0 W/m 8,4 C 12,3 C 24,1 km/h (4 Bft) 100,00 %
03.06.2023 02:48 12,3 C 77 % 1017,2 hPa 0,0 l/m 19,3 km/h (3 Bft) O-SO 112 0 min 0,000 mm 0,0 UV-I 0 W/m 8,4 C 12,3 C 25,7 km/h (4 Bft) 100,00 %
03.06.2023 02:47 12,3 C 77 % 1017,2 hPa 0,0 l/m 16,1 km/h (3 Bft) O-SO 112 0 min 0,000 mm 0,0 UV-I 0 W/m 8,4 C 12,3 C 24,1 km/h (4 Bft) 100,00 %
03.06.2023 02:46 12,4 C 77 % 1017,2 hPa 0,0 l/m 17,7 km/h (3 Bft) O-SO 112 0 min 0,000 mm 0,0 UV-I 0 W/m 8,5 C 12,4 C 24,1 km/h (4 Bft) 100,00 %
03.06.2023 02:45 12,4 C 76 % 1017,2 hPa 0,0 l/m 14,5 km/h (3 Bft) SO 135 0 min 0,000 mm 0,0 UV-I 0 W/m 8,3 C 12,4 C 25,7 km/h (4 Bft) 100,00 %
03.06.2023 02:44 12,4 C 76 % 1017,2 hPa 0,0 l/m 17,7 km/h (3 Bft) O-SO 112 0 min 0,000 mm 0,0 UV-I 0 W/m 8,3 C 12,4 C 24,1 km/h (4 Bft) 100,00 %
03.06.2023 02:43 12,4 C 76 % 1017,2 hPa 0,0 l/m 17,7 km/h (3 Bft) O-SO 112 0 min 0,000 mm 0,0 UV-I 0 W/m 8,3 C 12,4 C 24,1 km/h (4 Bft) 100,00 %
03.06.2023 02:42 12,4 C 76 % 1017,2 hPa 0,0 l/m 17,7 km/h (3 Bft) O-SO 112 0 min 0,000 mm 0,0 UV-I 0 W/m 8,3 C 12,4 C 24,1 km/h (4 Bft) 100,00 %
03.06.2023 02:41 12,4 C 76 % 1017,1 hPa 0,0 l/m 20,9 km/h (4 Bft) O-SO 112 0 min 0,000 mm 0,0 UV-I 0 W/m 8,3 C 12,4 C 35,4 km/h (5 Bft) 95,65 %
03.06.2023 02:40 12,4 C 76 % 1017,2 hPa 0,0 l/m 19,3 km/h (3 Bft) O-SO 112 0 min 0,000 mm 0,0 UV-I 0 W/m 8,3 C 12,4 C 30,6 km/h (5 Bft) 100,00 %
03.06.2023 02:39 12,4 C 76 % 1017,1 hPa 0,0 l/m 16,1 km/h (3 Bft) O-SO 112 0 min 0,000 mm 0,0 UV-I 0 W/m 8,3 C 12,4 C 20,9 km/h (4 Bft) 100,00 %
03.06.2023 02:38 12,4 C 76 % 1017,1 hPa 0,0 l/m 19,3 km/h (3 Bft) O-SO 112 0 min 0,000 mm 0,0 UV-I 0 W/m 8,3 C 12,4 C 29,0 km/h (5 Bft) 100,00 %
03.06.2023 02:37 12,5 C 76 % 1017,1 hPa 0,0 l/m 16,1 km/h (3 Bft) O-SO 112 0 min 0,000 mm 0,0 UV-I 0 W/m 8,4 C 12,5 C 24,1 km/h (4 Bft) 100,00 %
03.06.2023 02:36 12,5 C 76 % 1017,1 hPa 0,0 l/m 19,3 km/h (3 Bft) O-SO 112 0 min 0,000 mm 0,0 UV-I 0 W/m 8,4 C 12,5 C 22,5 km/h (4 Bft) 95,65 %
03.06.2023 02:35 12,6 C 76 % 1017,1 hPa 0,0 l/m 17,7 km/h (3 Bft) O-SO 112 0 min 0,000 mm 0,0 UV-I 0 W/m 8,5 C 12,6 C 29,0 km/h (5 Bft) 100,00 %
03.06.2023 02:34 12,6 C 75 % 1017,0 hPa 0,0 l/m 19,3 km/h (3 Bft) O-SO 112 0 min 0,000 mm 0,0 UV-I 0 W/m 8,3 C 12,6 C 27,4 km/h (4 Bft) 100,00 %
03.06.2023 02:33 12,6 C 75 % 1017,1 hPa 0,0 l/m 14,5 km/h (3 Bft) O-SO 112 0 min 0,000 mm 0,0 UV-I 0 W/m 8,3 C 12,6 C 22,5 km/h (4 Bft) 100,00 %
03.06.2023 02:32 12,6 C 75 % 1017,0 hPa 0,0 l/m 19,3 km/h (3 Bft) O-SO 112 0 min 0,000 mm 0,0 UV-I 0 W/m 8,3 C 12,6 C 25,7 km/h (4 Bft) 100,00 %
03.06.2023 02:31 12,6 C 75 % 1017,0 hPa 0,0 l/m 19,3 km/h (3 Bft) O-SO 112 0 min 0,000 mm 0,0 UV-I 0 W/m 8,3 C 12,6 C 22,5 km/h (4 Bft) 100,00 %
03.06.2023 02:30 12,6 C 75 % 1016,9 hPa 0,0 l/m 17,7 km/h (3 Bft) O-SO 112 0 min 0,000 mm 0,0 UV-I 0 W/m 8,3 C 12,6 C 25,7 km/h (4 Bft) 100,00 %
03.06.2023 02:29 12,7 C 74 % 1017,0 hPa 0,0 l/m 19,3 km/h (3 Bft) O-SO 112 0 min 0,000 mm 0,0 UV-I 0 W/m 8,2 C 12,7 C 29,0 km/h (5 Bft) 95,65 %
03.06.2023 02:28 12,7 C 74 % 1016,9 hPa 0,0 l/m 17,7 km/h (3 Bft) O-SO 112 0 min 0,000 mm 0,0 UV-I 0 W/m 8,2 C 12,7 C 29,0 km/h (5 Bft) 100,00 %
03.06.2023 02:27 12,7 C 75 % 1016,9 hPa 0,0 l/m 24,1 km/h (4 Bft) O-SO 112 0 min 0,000 mm 0,0 UV-I 0 W/m 8,4 C 12,7 C 37,0 km/h (5 Bft) 95,65 %
03.06.2023 02:26 12,7 C 74 % 1017,0 hPa 0,0 l/m 27,4 km/h (4 Bft) O-SO 112 0 min 0,000 mm 0,0 UV-I 0 W/m 8,2 C 12,7 C 37,0 km/h (5 Bft) 100,00 %
03.06.2023 02:25 12,7 C 74 % 1016,9 hPa 0,0 l/m 17,7 km/h (3 Bft) O-SO 112 0 min 0,000 mm 0,0 UV-I 0 W/m 8,2 C 12,7 C 27,4 km/h (4 Bft) 100,00 %
03.06.2023 02:24 12,7 C 74 % 1016,9 hPa 0,0 l/m 17,7 km/h (3 Bft) O-SO 112 0 min 0,000 mm 0,0 UV-I 0 W/m 8,2 C 12,7 C 24,1 km/h (4 Bft) 100,00 %
03.06.2023 02:23 12,7 C 74 % 1017,0 hPa 0,0 l/m 19,3 km/h (3 Bft) O-SO 112 0 min 0,000 mm 0,0 UV-I 0 W/m 8,2 C 12,7 C 22,5 km/h (4 Bft) 100,00 %
03.06.2023 02:22 12,7 C 74 % 1017,0 hPa 0,0 l/m 19,3 km/h (3 Bft) O-SO 112 0 min 0,000 mm 0,0 UV-I 0 W/m 8,2 C 12,7 C 29,0 km/h (5 Bft) 100,00 %
03.06.2023 02:21 12,7 C 74 % 1016,8 hPa 0,0 l/m 19,3 km/h (3 Bft) O-SO 112 0 min 0,000 mm 0,0 UV-I 0 W/m 8,2 C 12,7 C 33,8 km/h (5 Bft) 100,00 %
03.06.2023 02:20 12,7 C 73 % 1016,9 hPa 0,0 l/m 22,5 km/h (4 Bft) O-SO 112 0 min 0,000 mm 0,0 UV-I 0 W/m 8,0 C 12,7 C 33,8 km/h (5 Bft) 100,00 %
03.06.2023 02:19 12,7 C 73 % 1016,9 hPa 0,0 l/m 19,3 km/h (3 Bft) O-SO 112 0 min 0,000 mm 0,0 UV-I 0 W/m 8,0 C 12,7 C 29,0 km/h (5 Bft) 100,00 %
03.06.2023 02:18 12,7 C 73 % 1016,9 hPa 0,0 l/m 19,3 km/h (3 Bft) O-SO 112 0 min 0,000 mm 0,0 UV-I 0 W/m 8,0 C 12,7 C 27,4 km/h (4 Bft) 100,00 %
03.06.2023 02:17 12,7 C 73 % 1016,9 hPa 0,0 l/m 17,7 km/h (3 Bft) O-SO 112 0 min 0,000 mm 0,0 UV-I 0 W/m 8,0 C 12,7 C 22,5 km/h (4 Bft) 95,65 %
03.06.2023 02:16 12,7 C 73 % 1016,8 hPa 0,0 l/m 20,9 km/h (4 Bft) O-SO 112 0 min 0,000 mm 0,0 UV-I 0 W/m 8,0 C 12,7 C 25,7 km/h (4 Bft) 100,00 %
03.06.2023 02:15 12,7 C 73 % 1016,8 hPa 0,0 l/m 19,3 km/h (3 Bft) O-SO 112 0 min 0,000 mm 0,0 UV-I 0 W/m 8,0 C 12,7 C 25,7 km/h (4 Bft) 100,00 %
03.06.2023 02:14 12,7 C 72 % 1016,9 hPa 0,0 l/m 16,1 km/h (3 Bft) O-SO 112 0 min 0,000 mm 0,0 UV-I 0 W/m 7,8 C 12,7 C 25,7 km/h (4 Bft) 100,00 %
03.06.2023 02:13 12,7 C 73 % 1016,9 hPa 0,0 l/m 20,9 km/h (4 Bft) O-SO 112 0 min 0,000 mm 0,0 UV-I 0 W/m 8,0 C 12,7 C 27,4 km/h (4 Bft) 100,00 %
03.06.2023 02:12 12,7 C 73 % 1016,9 hPa 0,0 l/m 16,1 km/h (3 Bft) O-SO 112 0 min 0,000 mm 0,0 UV-I 0 W/m 8,0 C 12,7 C 24,1 km/h (4 Bft) 100,00 %
03.06.2023 02:11 12,7 C 72 % 1016,8 hPa 0,0 l/m 19,3 km/h (3 Bft) O-SO 112 0 min 0,000 mm 0,0 UV-I 0 W/m 7,8 C 12,7 C 27,4 km/h (4 Bft) 100,00 %
03.06.2023 02:10 12,8 C 72 % 1016,9 hPa 0,0 l/m 16,1 km/h (3 Bft) O-SO 112 0 min 0,000 mm 0,0 UV-I 0 W/m 7,9 C 12,8 C 20,9 km/h (4 Bft) 100,00 %
03.06.2023 02:09 12,7 C 72 % 1016,9 hPa 0,0 l/m 17,7 km/h (3 Bft) O-SO 112 0 min 0,000 mm 0,0 UV-I 0 W/m 7,8 C 12,7 C 29,0 km/h (5 Bft) 100,00 %
03.06.2023 02:08 12,8 C 72 % 1016,9 hPa 0,0 l/m 17,7 km/h (3 Bft) O-SO 112 0 min 0,000 mm 0,0 UV-I 0 W/m 7,9 C 12,8 C 24,1 km/h (4 Bft) 100,00 %
03.06.2023 02:07 12,8 C 72 % 1016,9 hPa 0,0 l/m 16,1 km/h (3 Bft) O-SO 112 0 min 0,000 mm 0,0 UV-I 0 W/m 7,9 C 12,8 C 19,3 km/h (3 Bft) 95,65 %
03.06.2023 02:06 12,8 C 72 % 1016,9 hPa 0,0 l/m 17,7 km/h (3 Bft) O-SO 112 0 min 0,000 mm 0,0 UV-I 0 W/m 7,9 C 12,8 C 20,9 km/h (4 Bft) 100,00 %
03.06.2023 02:05 12,8 C 72 % 1016,8 hPa 0,0 l/m 14,5 km/h (3 Bft) O-SO 112 0 min 0,000 mm 0,0 UV-I 0 W/m 7,9 C 12,8 C 17,7 km/h (3 Bft) 100,00 %
03.06.2023 02:04 12,8 C 72 % 1016,8 hPa 0,0 l/m 17,7 km/h (3 Bft) O-SO 112 0 min 0,000 mm 0,0 UV-I 0 W/m 7,9 C 12,8 C 22,5 km/h (4 Bft) 100,00 %
03.06.2023 02:03 12,9 C 72 % 1016,9 hPa 0,0 l/m 17,7 km/h (3 Bft) O-SO 112 0 min 0,000 mm 0,0 UV-I 0 W/m 8,0 C 12,9 C 22,5 km/h (4 Bft) 100,00 %
03.06.2023 02:02 12,9 C 71 % 1016,8 hPa 0,0 l/m 16,1 km/h (3 Bft) O-SO 112 0 min 0,000 mm 0,0 UV-I 0 W/m 7,8 C 12,9 C 25,7 km/h (4 Bft) 100,00 %
03.06.2023 02:01 12,9 C 71 % 1016,8 hPa 0,0 l/m 19,3 km/h (3 Bft) O-SO 112 0 min 0,000 mm 0,0 UV-I 0 W/m 7,8 C 12,9 C 29,0 km/h (5 Bft) 91,30 %
03.06.2023 02:00 12,9 C 71 % 1016,9 hPa 0,0 l/m 19,3 km/h (3 Bft) O-SO 112 0 min 0,051 mm 0,0 UV-I 0 W/m 7,8 C 12,9 C 30,6 km/h (5 Bft) 95,65 %
03.06.2023 01:59 12,9 C 71 % 1016,9 hPa 0,0 l/m 16,1 km/h (3 Bft) O-SO 112 0 min 0,000 mm 0,0 UV-I 0 W/m 7,8 C 12,9 C 25,7 km/h (4 Bft) 100,00 %
03.06.2023 01:58 12,9 C 71 % 1016,9 hPa 0,0 l/m 14,5 km/h (3 Bft) O-SO 112 0 min 0,000 mm 0,0 UV-I 0 W/m 7,8 C 12,9 C 19,3 km/h (3 Bft) 95,65 %
03.06.2023 01:57 12,9 C 71 % 1016,9 hPa 0,0 l/m 19,3 km/h (3 Bft) O-SO 112 0 min 0,000 mm 0,0 UV-I 0 W/m 7,8 C 12,9 C 25,7 km/h (4 Bft) 100,00 %
03.06.2023 01:56 12,9 C 71 % 1017,0 hPa 0,0 l/m 16,1 km/h (3 Bft) O-SO 112 0 min 0,000 mm 0,0 UV-I 0 W/m 7,8 C 12,9 C 20,9 km/h (4 Bft) 100,00 %
03.06.2023 01:55 12,9 C 71 % 1016,9 hPa 0,0 l/m 19,3 km/h (3 Bft) O-SO 112 0 min 0,000 mm 0,0 UV-I 0 W/m 7,8 C 12,9 C 29,0 km/h (5 Bft) 95,65 %
03.06.2023 01:54 12,9 C 71 % 1016,9 hPa 0,0 l/m 16,1 km/h (3 Bft) SO 135 0 min 0,000 mm 0,0 UV-I 0 W/m 7,8 C 12,9 C 25,7 km/h (4 Bft) 100,00 %
03.06.2023 01:53 13,0 C 71 % 1016,8 hPa 0,0 l/m 14,5 km/h (3 Bft) O-SO 112 0 min 0,000 mm 0,0 UV-I 0 W/m 7,9 C 13,0 C 27,4 km/h (4 Bft) 100,00 %
03.06.2023 01:52 13,0 C 71 % 1017,0 hPa 0,0 l/m 16,1 km/h (3 Bft) O-SO 112 0 min 0,000 mm 0,0 UV-I 0 W/m 7,9 C 13,0 C 20,9 km/h (4 Bft) 100,00 %
03.06.2023 01:51 13,0 C 71 % 1016,9 hPa 0,0 l/m 14,5 km/h (3 Bft) O-SO 112 0 min 0,000 mm 0,0 UV-I 0 W/m 7,9 C 13,0 C 20,9 km/h (4 Bft) 100,00 %
03.06.2023 01:50 13,1 C 71 % 1016,9 hPa 0,0 l/m 14,5 km/h (3 Bft) O-SO 112 0 min 0,000 mm 0,0 UV-I 0 W/m 8,0 C 13,1 C 22,5 km/h (4 Bft) 100,00 %
03.06.2023 01:49 13,1 C 71 % 1016,9 hPa 0,0 l/m 17,7 km/h (3 Bft) O-SO 112 0 min 0,000 mm 0,0 UV-I 0 W/m 8,0 C 13,1 C 24,1 km/h (4 Bft) 100,00 %
03.06.2023 01:48 13,1 C 71 % 1017,0 hPa 0,0 l/m 16,1 km/h (3 Bft) O-SO 112 0 min 0,000 mm 0,0 UV-I 0 W/m 8,0 C 13,1 C 22,5 km/h (4 Bft) 95,65 %
03.06.2023 01:47 13,1 C 71 % 1017,0 hPa 0,0 l/m 17,7 km/h (3 Bft) O-SO 112 0 min 0,000 mm 0,0 UV-I 0 W/m 8,0 C 13,1 C 24,1 km/h (4 Bft) 100,00 %
03.06.2023 01:46 13,1 C 71 % 1017,0 hPa 0,0 l/m 17,7 km/h (3 Bft) O-SO 112 0 min 0,000 mm 0,0 UV-I 0 W/m 8,0 C 13,1 C 22,5 km/h (4 Bft) 100,00 %
03.06.2023 01:45 13,1 C 71 % 1017,0 hPa 0,0 l/m 17,7 km/h (3 Bft) O-SO 112 0 min 0,000 mm 0,0 UV-I 0 W/m 8,0 C 13,1 C 22,5 km/h (4 Bft) 100,00 %
03.06.2023 01:44 13,1 C 71 % 1017,0 hPa 0,0 l/m 17,7 km/h (3 Bft) O-SO 112 0 min 0,000 mm 0,0 UV-I 0 W/m 8,0 C 13,1 C 24,1 km/h (4 Bft) 100,00 %
03.06.2023 01:43 13,1 C 71 % 1017,0 hPa 0,0 l/m 16,1 km/h (3 Bft) O-SO 112 0 min 0,000 mm 0,0 UV-I 0 W/m 8,0 C 13,1 C 25,7 km/h (4 Bft) 100,00 %
03.06.2023 01:42 13,1 C 71 % 1017,0 hPa 0,0 l/m 14,5 km/h (3 Bft) O-SO 112 0 min 0,000 mm 0,0 UV-I 0 W/m 8,0 C 13,1 C 19,3 km/h (3 Bft) 100,00 %
03.06.2023 01:41 13,1 C 71 % 1017,0 hPa 0,0 l/m 16,1 km/h (3 Bft) O-SO 112 0 min 0,000 mm 0,0 UV-I 0 W/m 8,0 C 13,1 C 22,5 km/h (4 Bft) 95,65 %
03.06.2023 01:40 13,1 C 71 % 1017,0 hPa 0,0 l/m 17,7 km/h (3 Bft) O-SO 112 0 min 0,000 mm 0,0 UV-I 0 W/m 8,0 C 13,1 C 22,5 km/h (4 Bft) 95,65 %
03.06.2023 01:39 13,2 C 71 % 1016,9 hPa 0,0 l/m 16,1 km/h (3 Bft) O-SO 112 0 min 0,000 mm 0,0 UV-I 0 W/m 8,1 C 13,2 C 27,4 km/h (4 Bft) 100,00 %
03.06.2023 01:38 13,2 C 70 % 1016,9 hPa 0,0 l/m 16,1 km/h (3 Bft) O-SO 112 0 min 0,000 mm 0,0 UV-I 0 W/m 7,9 C 13,2 C 22,5 km/h (4 Bft) 100,00 %
03.06.2023 01:37 13,2 C 70 % 1017,0 hPa 0,0 l/m 16,1 km/h (3 Bft) O-SO 112 0 min 0,000 mm 0,0 UV-I 0 W/m 7,9 C 13,2 C 20,9 km/h (4 Bft) 100,00 %
03.06.2023 01:36 13,2 C 71 % 1017,0 hPa 0,0 l/m 16,1 km/h (3 Bft) O-SO 112 0 min 0,000 mm 0,0 UV-I 0 W/m 8,1 C 13,2 C 24,1 km/h (4 Bft) 95,65 %
03.06.2023 01:35 13,2 C 70 % 1017,0 hPa 0,0 l/m 12,9 km/h (3 Bft) O-SO 112 0 min 0,000 mm 0,0 UV-I 0 W/m 7,9 C 13,2 C 16,1 km/h (3 Bft) 100,00 %
03.06.2023 01:34 13,2 C 70 % 1017,0 hPa 0,0 l/m 16,1 km/h (3 Bft) O-SO 112 0 min 0,000 mm 0,0 UV-I 0 W/m 7,9 C 13,2 C 19,3 km/h (3 Bft) 100,00 %
03.06.2023 01:33 13,2 C 71 % 1017,0 hPa 0,0 l/m 14,5 km/h (3 Bft) O-SO 112 0 min 0,000 mm 0,0 UV-I 0 W/m 8,1 C 13,2 C 19,3 km/h (3 Bft) 100,00 %
03.06.2023 01:32 13,2 C 70 % 1017,0 hPa 0,0 l/m 14,5 km/h (3 Bft) O-SO 112 0 min 0,000 mm 0,0 UV-I 0 W/m 7,9 C 13,2 C 20,9 km/h (4 Bft) 100,00 %
03.06.2023 01:31 13,2 C 71 % 1017,0 hPa 0,0 l/m 16,1 km/h (3 Bft) O-SO 112 0 min 0,000 mm 0,0 UV-I 0 W/m 8,1 C 13,2 C 25,7 km/h (4 Bft) 100,00 %
03.06.2023 01:30 13,2 C 70 % 1016,9 hPa 0,0 l/m 14,5 km/h (3 Bft) O-SO 112 0 min 0,000 mm 0,0 UV-I 0 W/m 7,9 C 13,2 C 22,5 km/h (4 Bft) 100,00 %
03.06.2023 01:29 13,3 C 70 % 1017,0 hPa 0,0 l/m 12,9 km/h (3 Bft) SO 135 0 min 0,000 mm 0,0 UV-I 0 W/m 7,9 C 13,3 C 29,0 km/h (5 Bft) 100,00 %
03.06.2023 01:28 13,3 C 70 % 1017,1 hPa 0,0 l/m 12,9 km/h (3 Bft) SO 135 0 min 0,000 mm 0,0 UV-I 0 W/m 7,9 C 13,3 C 17,7 km/h (3 Bft) 100,00 %
03.06.2023 01:27 13,3 C 70 % 1017,1 hPa 0,0 l/m 12,9 km/h (3 Bft) O-SO 112 0 min 0,000 mm 0,0 UV-I 0 W/m 7,9 C 13,3 C 17,7 km/h (3 Bft) 100,00 %
03.06.2023 01:26 13,3 C 71 % 1017,0 hPa 0,0 l/m 12,9 km/h (3 Bft) O-SO 112 0 min 0,000 mm 0,0 UV-I 0 W/m 8,2 C 13,3 C 17,7 km/h (3 Bft) 100,00 %
03.06.2023 01:25 13,3 C 70 % 1017,1 hPa 0,0 l/m 16,1 km/h (3 Bft) SO 135 0 min 0,000 mm 0,0 UV-I 0 W/m 7,9 C 13,3 C 25,7 km/h (4 Bft) 100,00 %
03.06.2023 01:24 13,3 C 71 % 1017,0 hPa 0,0 l/m 16,1 km/h (3 Bft) SO 135 0 min 0,000 mm 0,0 UV-I 0 W/m 8,2 C 13,3 C 24,1 km/h (4 Bft) 100,00 %
03.06.2023 01:23 13,3 C 70 % 1017,0 hPa 0,0 l/m 17,7 km/h (3 Bft) O-SO 112 0 min 0,000 mm 0,0 UV-I 0 W/m 7,9 C 13,3 C 22,5 km/h (4 Bft) 95,65 %
03.06.2023 01:22 13,3 C 71 % 1017,0 hPa 0,0 l/m 19,3 km/h (3 Bft) O-SO 112 0 min 0,000 mm 0,0 UV-I 0 W/m 8,2 C 13,3 C 30,6 km/h (5 Bft) 100,00 %
03.06.2023 01:21 13,3 C 71 % 1017,0 hPa 0,0 l/m 17,7 km/h (3 Bft) O-SO 112 0 min 0,000 mm 0,0 UV-I 0 W/m 8,2 C 13,3 C 30,6 km/h (5 Bft) 95,65 %
03.06.2023 01:20 13,3 C 71 % 1017,0 hPa 0,0 l/m 9,7 km/h (2 Bft) O-SO 112 0 min 0,000 mm 0,0 UV-I 0 W/m 8,2 C 13,3 C 14,5 km/h (3 Bft) 100,00 %
03.06.2023 01:19 13,3 C 70 % 1017,1 hPa 0,0 l/m 11,3 km/h (2 Bft) O-SO 112 0 min 0,000 mm 0,0 UV-I 0 W/m 7,9 C 13,3 C 16,1 km/h (3 Bft) 95,65 %
03.06.2023 01:18 13,3 C 71 % 1017,0 hPa 0,0 l/m 14,5 km/h (3 Bft) O-SO 112 0 min 0,000 mm 0,0 UV-I 0 W/m 8,2 C 13,3 C 25,7 km/h (4 Bft) 100,00 %
03.06.2023 01:17 13,3 C 71 % 1017,1 hPa 0,0 l/m 14,5 km/h (3 Bft) O-SO 112 0 min 0,000 mm 0,0 UV-I 0 W/m 8,2 C 13,3 C 20,9 km/h (4 Bft) 95,65 %
03.06.2023 01:16 13,3 C 71 % 1017,0 hPa 0,0 l/m 16,1 km/h (3 Bft) O-SO 112 0 min 0,000 mm 0,0 UV-I 0 W/m 8,2 C 13,3 C 25,7 km/h (4 Bft) 100,00 %
03.06.2023 01:15 13,4 C 71 % 1017,0 hPa 0,0 l/m 19,3 km/h (3 Bft) O-SO 112 0 min 0,000 mm 0,0 UV-I 0 W/m 8,3 C 13,4 C 24,1 km/h (4 Bft) 100,00 %
03.06.2023 01:14 13,4 C 71 % 1017,0 hPa 0,0 l/m 17,7 km/h (3 Bft) SO 135 0 min 0,000 mm 0,0 UV-I 0 W/m 8,3 C 13,4 C 25,7 km/h (4 Bft) 100,00 %
03.06.2023 01:13 13,4 C 71 % 1017,0 hPa 0,0 l/m 17,7 km/h (3 Bft) SO 135 0 min 0,000 mm 0,0 UV-I 0 W/m 8,3 C 13,4 C 24,1 km/h (4 Bft) 100,00 %
03.06.2023 01:12 13,4 C 71 % 1017,1 hPa 0,0 l/m 16,1 km/h (3 Bft) O-SO 112 0 min 0,000 mm 0,0 UV-I 0 W/m 8,3 C 13,4 C 19,3 km/h (3 Bft) 95,65 %
03.06.2023 01:11 13,4 C 71 % 1017,0 hPa 0,0 l/m 16,1 km/h (3 Bft) O-SO 112 0 min 0,000 mm 0,0 UV-I 0 W/m 8,3 C 13,4 C 20,9 km/h (4 Bft) 100,00 %
03.06.2023 01:10 13,4 C 71 % 1017,0 hPa 0,0 l/m 16,1 km/h (3 Bft) SO 135 0 min 0,000 mm 0,0 UV-I 0 W/m 8,3 C 13,4 C 20,9 km/h (4 Bft) 100,00 %
03.06.2023 01:09 13,4 C 71 % 1017,1 hPa 0,0 l/m 16,1 km/h (3 Bft) O-SO 112 0 min 0,000 mm 0,0 UV-I 0 W/m 8,3 C 13,4 C 24,1 km/h (4 Bft) 95,65 %
03.06.2023 01:08 13,4 C 71 % 1017,0 hPa 0,0 l/m 17,7 km/h (3 Bft) O-SO 112 0 min 0,000 mm 0,0 UV-I 0 W/m 8,3 C 13,4 C 27,4 km/h (4 Bft) 100,00 %
03.06.2023 01:07 13,4 C 71 % 1017,1 hPa 0,0 l/m 14,5 km/h (3 Bft) O-SO 112 0 min 0,000 mm 0,0 UV-I 0 W/m 8,3 C 13,4 C 16,1 km/h (3 Bft) 100,00 %
03.06.2023 01:06 13,4 C 71 % 1017,0 hPa 0,0 l/m 16,1 km/h (3 Bft) O-SO 112 0 min 0,000 mm 0,0 UV-I 0 W/m 8,3 C 13,4 C 24,1 km/h (4 Bft) 100,00 %
03.06.2023 01:05 13,4 C 71 % 1017,1 hPa 0,0 l/m 19,3 km/h (3 Bft) O-SO 112 0 min 0,000 mm 0,0 UV-I 0 W/m 8,3 C 13,4 C 29,0 km/h (5 Bft) 100,00 %
03.06.2023 01:04 13,4 C 71 % 1017,1 hPa 0,0 l/m 16,1 km/h (3 Bft) O-SO 112 0 min 0,000 mm 0,0 UV-I 0 W/m 8,3 C 13,4 C 30,6 km/h (5 Bft) 100,00 %
03.06.2023 01:03 13,4 C 71 % 1017,0 hPa 0,0 l/m 22,5 km/h (4 Bft) O-SO 112 0 min 0,000 mm 0,0 UV-I 0 W/m 8,3 C 13,4 C 30,6 km/h (5 Bft) 100,00 %
03.06.2023 01:02 13,4 C 71 % 1017,1 hPa 0,0 l/m 16,1 km/h (3 Bft) O-SO 112 0 min 0,000 mm 0,0 UV-I 0 W/m 8,3 C 13,4 C 24,1 km/h (4 Bft) 95,65 %
03.06.2023 01:01 13,4 C 72 % 1017,1 hPa 0,0 l/m 16,1 km/h (3 Bft) O-SO 112 0 min 0,000 mm 0,0 UV-I 0 W/m 8,5 C 13,4 C 22,5 km/h (4 Bft) 100,00 %
03.06.2023 01:00 13,4 C 71 % 1017,2 hPa 0,0 l/m 17,7 km/h (3 Bft) O-SO 112 0 min 0,051 mm 0,0 UV-I 0 W/m 8,3 C 13,4 C 24,1 km/h (4 Bft) 95,65 %
03.06.2023 00:59 13,4 C 72 % 1017,1 hPa 0,0 l/m 16,1 km/h (3 Bft) O-SO 112 0 min 0,000 mm 0,0 UV-I 0 W/m 8,5 C 13,4 C 19,3 km/h (3 Bft) 95,65 %
03.06.2023 00:58 13,4 C 71 % 1017,1 hPa 0,0 l/m 16,1 km/h (3 Bft) O-SO 112 0 min 0,000 mm 0,0 UV-I 0 W/m 8,3 C 13,4 C 22,5 km/h (4 Bft) 100,00 %
03.06.2023 00:57 13,4 C 72 % 1017,1 hPa 0,0 l/m 19,3 km/h (3 Bft) O-SO 112 0 min 0,000 mm 0,0 UV-I 0 W/m 8,5 C 13,4 C 25,7 km/h (4 Bft) 95,65 %
03.06.2023 00:56 13,4 C 72 % 1017,2 hPa 0,0 l/m 14,5 km/h (3 Bft) O-SO 112 0 min 0,000 mm 0,0 UV-I 0 W/m 8,5 C 13,4 C 22,5 km/h (4 Bft) 100,00 %
03.06.2023 00:55 13,4 C 72 % 1017,1 hPa 0,0 l/m 16,1 km/h (3 Bft) O-SO 112 0 min 0,000 mm 0,0 UV-I 0 W/m 8,5 C 13,4 C 25,7 km/h (4 Bft) 100,00 %
03.06.2023 00:54 13,5 C 72 % 1017,2 hPa 0,0 l/m 16,1 km/h (3 Bft) O-SO 112 0 min 0,000 mm 0,0 UV-I 0 W/m 8,6 C 13,5 C 24,1 km/h (4 Bft) 100,00 %
03.06.2023 00:53 13,5 C 72 % 1017,1 hPa 0,0 l/m 14,5 km/h (3 Bft) SO 135 0 min 0,000 mm 0,0 UV-I 0 W/m 8,6 C 13,5 C 17,7 km/h (3 Bft) 100,00 %
03.06.2023 00:52 13,5 C 72 % 1017,1 hPa 0,0 l/m 14,5 km/h (3 Bft) O-SO 112 0 min 0,000 mm 0,0 UV-I 0 W/m 8,6 C 13,5 C 19,3 km/h (3 Bft) 95,65 %
03.06.2023 00:51 13,5 C 72 % 1017,1 hPa 0,0 l/m 14,5 km/h (3 Bft) SO 135 0 min 0,000 mm 0,0 UV-I 0 W/m 8,6 C 13,5 C 17,7 km/h (3 Bft) 100,00 %
03.06.2023 00:50 13,5 C 72 % 1017,2 hPa 0,0 l/m 16,1 km/h (3 Bft) O-SO 112 0 min 0,000 mm 0,0 UV-I 0 W/m 8,6 C 13,5 C 19,3 km/h (3 Bft) 100,00 %
03.06.2023 00:49 13,6 C 72 % 1017,2 hPa 0,0 l/m 16,1 km/h (3 Bft) O-SO 112 0 min 0,000 mm 0,0 UV-I 0 W/m 8,6 C 13,6 C 20,9 km/h (4 Bft) 95,65 %
03.06.2023 00:48 13,5 C 72 % 1017,2 hPa 0,0 l/m 16,1 km/h (3 Bft) O-SO 112 0 min 0,000 mm 0,0 UV-I 0 W/m 8,6 C 13,5 C 20,9 km/h (4 Bft) 100,00 %
03.06.2023 00:47 13,6 C 72 % 1017,2 hPa 0,0 l/m 14,5 km/h (3 Bft) O-SO 112 0 min 0,000 mm 0,0 UV-I 0 W/m 8,6 C 13,6 C 17,7 km/h (3 Bft) 100,00 %
03.06.2023 00:46 13,6 C 72 % 1017,1 hPa 0,0 l/m 14,5 km/h (3 Bft) O-SO 112 0 min 0,000 mm 0,0 UV-I 0 W/m 8,6 C 13,6 C 19,3 km/h (3 Bft) 100,00 %
03.06.2023 00:45 13,6 C 72 % 1017,1 hPa 0,0 l/m 17,7 km/h (3 Bft) O-SO 112 0 min 0,000 mm 0,0 UV-I 0 W/m 8,6 C 13,6 C 20,9 km/h (4 Bft) 100,00 %
03.06.2023 00:44 13,6 C 72 % 1017,1 hPa 0,0 l/m 12,9 km/h (3 Bft) O-SO 112 0 min 0,000 mm 0,0 UV-I 0 W/m 8,6 C 13,6 C 16,1 km/h (3 Bft) 100,00 %
03.06.2023 00:43 13,6 C 72 % 1017,1 hPa 0,0 l/m 17,7 km/h (3 Bft) O-SO 112 0 min 0,000 mm 0,0 UV-I 0 W/m 8,6 C 13,6 C 24,1 km/h (4 Bft) 95,65 %
03.06.2023 00:42 13,5 C 72 % 1017,2 hPa 0,0 l/m 14,5 km/h (3 Bft) O-SO 112 0 min 0,000 mm 0,0 UV-I 0 W/m 8,6 C 13,5 C 20,9 km/h (4 Bft) 100,00 %
03.06.2023 00:41 13,6 C 72 % 1017,1 hPa 0,0 l/m 11,3 km/h (2 Bft) O-SO 112 0 min 0,000 mm 0,0 UV-I 0 W/m 8,6 C 13,6 C 16,1 km/h (3 Bft) 100,00 %
03.06.2023 00:40 13,6 C 72 % 1017,1 hPa 0,0 l/m 14,5 km/h (3 Bft) O-SO 112 0 min 0,000 mm 0,0 UV-I 0 W/m 8,6 C 13,6 C 22,5 km/h (4 Bft) 100,00 %
03.06.2023 00:39 13,6 C 72 % 1017,1 hPa 0,0 l/m 16,1 km/h (3 Bft) O-SO 112 0 min 0,000 mm 0,0 UV-I 0 W/m 8,6 C 13,6 C 19,3 km/h (3 Bft) 100,00 %
03.06.2023 00:38 13,6 C 72 % 1017,1 hPa 0,0 l/m 14,5 km/h (3 Bft) O-SO 112 0 min 0,000 mm 0,0 UV-I 0 W/m 8,6 C 13,6 C 17,7 km/h (3 Bft) 100,00 %
03.06.2023 00:37 13,6 C 72 % 1017,2 hPa 0,0 l/m 14,5 km/h (3 Bft) O-SO 112 0 min 0,000 mm 0,0 UV-I 0 W/m 8,6 C 13,6 C 17,7 km/h (3 Bft) 100,00 %
03.06.2023 00:36 13,6 C 72 % 1017,1 hPa 0,0 l/m 14,5 km/h (3 Bft) O-SO 112 0 min 0,000 mm 0,0 UV-I 0 W/m 8,6 C 13,6 C 22,5 km/h (4 Bft) 100,00 %
03.06.2023 00:35 13,6 C 72 % 1017,2 hPa 0,0 l/m 14,5 km/h (3 Bft) O-SO 112 0 min 0,000 mm 0,0 UV-I 0 W/m 8,6 C 13,6 C 24,1 km/h (4 Bft) 100,00 %
03.06.2023 00:34 13,6 C 72 % 1017,1 hPa 0,0 l/m 14,5 km/h (3 Bft) SO 135 0 min 0,000 mm 0,0 UV-I 0 W/m 8,6 C 13,6 C 20,9 km/h (4 Bft) 100,00 %
03.06.2023 00:33 13,6 C 72 % 1017,2 hPa 0,0 l/m 14,5 km/h (3 Bft) SO 135 0 min 0,000 mm 0,0 UV-I 0 W/m 8,6 C 13,6 C 19,3 km/h (3 Bft) 95,65 %
03.06.2023 00:32 13,7 C 72 % 1017,1 hPa 0,0 l/m 16,1 km/h (3 Bft) O-SO 112 0 min 0,000 mm 0,0 UV-I 0 W/m 8,7 C 13,7 C 20,9 km/h (4 Bft) 100,00 %
03.06.2023 00:31 13,7 C 72 % 1017,2 hPa 0,0 l/m 17,7 km/h (3 Bft) O-SO 112 0 min 0,000 mm 0,0 UV-I 0 W/m 8,7 C 13,7 C 25,7 km/h (4 Bft) 95,65 %
03.06.2023 00:30 13,7 C 72 % 1017,2 hPa 0,0 l/m 16,1 km/h (3 Bft) O-SO 112 0 min 0,000 mm 0,0 UV-I 0 W/m 8,7 C 13,7 C 20,9 km/h (4 Bft) 100,00 %
03.06.2023 00:29 13,7 C 72 % 1017,1 hPa 0,0 l/m 12,9 km/h (3 Bft) O-SO 112 0 min 0,000 mm 0,0 UV-I 0 W/m 8,7 C 13,7 C 17,7 km/h (3 Bft) 100,00 %
03.06.2023 00:28 13,7 C 72 % 1017,2 hPa 0,0 l/m 12,9 km/h (3 Bft) O-SO 112 0 min 0,000 mm 0,0 UV-I 0 W/m 8,7 C 13,7 C 20,9 km/h (4 Bft) 100,00 %
03.06.2023 00:27 13,7 C 72 % 1017,2 hPa 0,0 l/m 14,5 km/h (3 Bft) O-SO 112 0 min 0,000 mm 0,0 UV-I 0 W/m 8,7 C 13,7 C 20,9 km/h (4 Bft) 100,00 %
03.06.2023 00:26 13,7 C 72 % 1017,1 hPa 0,0 l/m 14,5 km/h (3 Bft) O-SO 112 0 min 0,000 mm 0,0 UV-I 0 W/m 8,7 C 13,7 C 19,3 km/h (3 Bft) 100,00 %
03.06.2023 00:25 13,7 C 72 % 1017,2 hPa 0,0 l/m 14,5 km/h (3 Bft) O-SO 112 0 min 0,000 mm 0,0 UV-I 0 W/m 8,7 C 13,7 C 19,3 km/h (3 Bft) 100,00 %
03.06.2023 00:24 13,7 C 71 % 1017,3 hPa 0,0 l/m 16,1 km/h (3 Bft) O-SO 112 0 min 0,000 mm 0,0 UV-I 0 W/m 8,5 C 13,7 C 22,5 km/h (4 Bft) 100,00 %
03.06.2023 00:23 13,7 C 72 % 1017,2 hPa 0,0 l/m 16,1 km/h (3 Bft) O-SO 112 0 min 0,000 mm 0,0 UV-I 0 W/m 8,7 C 13,7 C 20,9 km/h (4 Bft) 100,00 %
03.06.2023 00:22 13,8 C 72 % 1017,2 hPa 0,0 l/m 9,7 km/h (2 Bft) O-SO 112 0 min 0,000 mm 0,0 UV-I 0 W/m 8,8 C 13,8 C 16,1 km/h (3 Bft) 100,00 %
03.06.2023 00:21 13,8 C 72 % 1017,2 hPa 0,0 l/m 14,5 km/h (3 Bft) O-SO 112 0 min 0,000 mm 0,0 UV-I 0 W/m 8,8 C 13,8 C 17,7 km/h (3 Bft) 100,00 %
03.06.2023 00:20 13,8 C 71 % 1017,1 hPa 0,0 l/m 14,5 km/h (3 Bft) O-SO 112 0 min 0,000 mm 0,0 UV-I 0 W/m 8,6 C 13,8 C 19,3 km/h (3 Bft) 100,00 %
03.06.2023 00:19 13,8 C 71 % 1017,2 hPa 0,0 l/m 16,1 km/h (3 Bft) O-SO 112 0 min 0,000 mm 0,0 UV-I 0 W/m 8,6 C 13,8 C 20,9 km/h (4 Bft) 100,00 %
03.06.2023 00:18 13,8 C 72 % 1017,2 hPa 0,0 l/m 14,5 km/h (3 Bft) O-SO 112 0 min 0,000 mm 0,0 UV-I 0 W/m 8,8 C 13,8 C 22,5 km/h (4 Bft) 100,00 %
03.06.2023 00:17 13,8 C 72 % 1017,1 hPa 0,0 l/m 14,5 km/h (3 Bft) O-SO 112 0 min 0,000 mm 0,0 UV-I 0 W/m 8,8 C 13,8 C 19,3 km/h (3 Bft) 100,00 %
03.06.2023 00:16 13,8 C 72 % 1017,1 hPa 0,0 l/m 14,5 km/h (3 Bft) O-SO 112 0 min 0,000 mm 0,0 UV-I 0 W/m 8,8 C 13,8 C 20,9 km/h (4 Bft) 95,65 %
03.06.2023 00:15 13,8 C 71 % 1017,0 hPa 0,0 l/m 12,9 km/h (3 Bft) SO 135 0 min 0,000 mm 0,0 UV-I 0 W/m 8,6 C 13,8 C 16,1 km/h (3 Bft) 100,00 %
03.06.2023 00:14 13,8 C 71 % 1017,1 hPa 0,0 l/m 12,9 km/h (3 Bft) O-SO 112 0 min 0,000 mm 0,0 UV-I 0 W/m 8,6 C 13,8 C 17,7 km/h (3 Bft) 95,65 %
03.06.2023 00:13 13,9 C 71 % 1017,0 hPa 0,0 l/m 16,1 km/h (3 Bft) O-SO 112 0 min 0,000 mm 0,0 UV-I 0 W/m 8,7 C 13,9 C 19,3 km/h (3 Bft) 95,65 %
03.06.2023 00:12 13,9 C 71 % 1017,1 hPa 0,0 l/m 17,7 km/h (3 Bft) O-SO 112 0 min 0,000 mm 0,0 UV-I 0 W/m 8,7 C 13,9 C 25,7 km/h (4 Bft) 100,00 %
03.06.2023 00:11 13,9 C 71 % 1017,1 hPa 0,0 l/m 16,1 km/h (3 Bft) O-SO 112 0 min 0,000 mm 0,0 UV-I 0 W/m 8,7 C 13,9 C 20,9 km/h (4 Bft) 95,65 %
03.06.2023 00:10 13,9 C 71 % 1017,1 hPa 0,0 l/m 17,7 km/h (3 Bft) O-SO 112 0 min 0,000 mm 0,0 UV-I 0 W/m 8,7 C 13,9 C 24,1 km/h (4 Bft) 100,00 %
03.06.2023 00:09 13,9 C 71 % 1017,1 hPa 0,0 l/m 16,1 km/h (3 Bft) O-SO 112 0 min 0,000 mm 0,0 UV-I 0 W/m 8,7 C 13,9 C 27,4 km/h (4 Bft) 100,00 %
03.06.2023 00:08 13,9 C 71 % 1017,1 hPa 0,0 l/m 17,7 km/h (3 Bft) O-SO 112 0 min 0,000 mm 0,0 UV-I 0 W/m 8,7 C 13,9 C 24,1 km/h (4 Bft) 100,00 %
03.06.2023 00:07 13,9 C 71 % 1017,1 hPa 0,0 l/m 17,7 km/h (3 Bft) O-SO 112 0 min 0,000 mm 0,0 UV-I 0 W/m 8,7 C 13,9 C 27,4 km/h (4 Bft) 100,00 %
03.06.2023 00:06 13,9 C 72 % 1017,1 hPa 0,0 l/m 14,5 km/h (3 Bft) O-SO 112 0 min 0,000 mm 0,0 UV-I 0 W/m 8,9 C 13,9 C 19,3 km/h (3 Bft) 100,00 %
03.06.2023 00:05 13,9 C 71 % 1017,1 hPa 0,0 l/m 16,1 km/h (3 Bft) O-SO 112 0 min 0,000 mm 0,0 UV-I 0 W/m 8,7 C 13,9 C 22,5 km/h (4 Bft) 100,00 %
03.06.2023 00:04 13,9 C 71 % 1017,1 hPa 0,0 l/m 17,7 km/h (3 Bft) O-SO 112 0 min 0,000 mm 0,0 UV-I 0 W/m 8,7 C 13,9 C 25,7 km/h (4 Bft) 100,00 %
03.06.2023 00:03 13,9 C 71 % 1017,1 hPa 0,0 l/m 19,3 km/h (3 Bft) O-SO 112 0 min 0,000 mm 0,0 UV-I 0 W/m 8,7 C 13,9 C 29,0 km/h (5 Bft) 100,00 %
03.06.2023 00:02 13,9 C 71 % 1017,1 hPa 0,0 l/m 17,7 km/h (3 Bft) SO 135 0 min 0,000 mm 0,0 UV-I 0 W/m 8,7 C 13,9 C 22,5 km/h (4 Bft) 95,65 %
03.06.2023 00:01 13,9 C 71 % 1017,2 hPa 0,0 l/m 16,1 km/h (3 Bft) O-SO 112 0 min 0,000 mm 0,0 UV-I 0 W/m 8,7 C 13,9 C 22,5 km/h (4 Bft) 91,30 %
03.06.2023 00:00 13,9 C 71 % 1017,1 hPa 0,0 l/m 14,5 km/h (3 Bft) SO 135 0 min 0,051 mm 0,0 UV-I 0 W/m 8,7 C 13,9 C 19,3 km/h (3 Bft) 100,00 %
_ Min-Zeit 05:43 15:58 04:01 - 00:22 - - - - - - 05:44 06:06 01:20 14:38
Minimum _ 9,8 C 54 % 1016,7 hPa - 9,7 km/h (2 Bft) - - - - - - 6,3 C 6,2 C 14,5 km/h (3 Bft) 8,70 %
_ Max-Zeit 15:55 04:41 12:05 00:00 06:06 - - 06:58 13:00 12:48 13:09 14:08 15:55 06:14 00:00
Maximum _ 18,6 C 81 % 1019,0 hPa 0,0 l/m 32,2 km/h
O-SO (5 Bft)
- - 1 min 0,559 mm 4,4 UV-I 846 W/m 10,6 C 18,6 C 49,9 km/h
O (6 Bft)
100,00 %
Durchschnitt _ 13,8 C 69 % 1017,9 hPa #0,0 l/m 20,9 km/h (4 Bft) O-SO - #10:00 h #4,294 mm 2,9 UV-I 543 W/m 8,1 C 13,6 C 29,5 km/h (5 Bft) 98,88 %